Wetterdaten: Dienstag, 31.07.2018
Datum Zeit Temp. A. Pool Temp. Temp. 5cm Feuchte A. Luftdruck Regen Wind Richtung Richtung Sonnenschein ET UV Solar Taupunkt Windchill Windben Empfang
31.07.2018 00:00 21,2 C 27,2 C 18,3 C 75 % 1014,3 hPa 0,0 l/m 0,0 km/h (0 Bft) SO 140 0 min 0,000 mm 0,0 UV-I 0 W/m 16,6 C 21,2 C 0,0 km/h (0 Bft) 95,65 %
31.07.2018 00:02 21,2 C 27,2 C 17,8 C 75 % 1014,3 hPa 0,0 l/m 0,0 km/h (0 Bft) SO 140 0 min 0,000 mm 0,0 UV-I 0 W/m 16,6 C 21,2 C 0,0 km/h (0 Bft) 97,78 %
31.07.2018 00:04 21,2 C 27,2 C 18,3 C 75 % 1014,4 hPa 0,0 l/m 0,0 km/h (0 Bft) SO 140 0 min 0,000 mm 0,0 UV-I 0 W/m 16,6 C 21,2 C 0,0 km/h (0 Bft) 97,87 %
31.07.2018 00:06 21,1 C 27,2 C 18,3 C 75 % 1014,4 hPa 0,0 l/m 0,0 km/h (0 Bft) SO 140 0 min 0,000 mm 0,0 UV-I 0 W/m 16,5 C 21,1 C 0,0 km/h (0 Bft) 100,00 %
31.07.2018 00:08 20,8 C 27,2 C 18,3 C 76 % 1014,5 hPa 0,0 l/m 0,0 km/h (0 Bft) SO 140 0 min 0,000 mm 0,0 UV-I 0 W/m 16,4 C 20,8 C 0,0 km/h (0 Bft) 97,87 %
31.07.2018 00:10 20,7 C 27,2 C 18,3 C 76 % 1014,4 hPa 0,0 l/m 0,0 km/h (0 Bft) SO 140 0 min 0,000 mm 0,0 UV-I 0 W/m 16,3 C 20,7 C 0,0 km/h (0 Bft) 100,00 %
31.07.2018 00:12 20,7 C 27,2 C 18,3 C 76 % 1014,5 hPa 0,0 l/m 0,1 km/h (0 Bft) SO 140 0 min 0,000 mm 0,0 UV-I 0 W/m 16,3 C 20,7 C 1,6 km/h (1 Bft) 96,00 %
31.07.2018 00:14 20,9 C 27,2 C 18,3 C 75 % 1014,5 hPa 0,0 l/m 1,4 km/h (1 Bft) SO 140 0 min 0,000 mm 0,0 UV-I 0 W/m 16,3 C 20,9 C 1,6 km/h (1 Bft) 96,00 %
31.07.2018 00:16 20,9 C 27,2 C 18,3 C 75 % 1014,5 hPa 0,0 l/m 1,0 km/h (0 Bft) SO 140 0 min 0,000 mm 0,0 UV-I 0 W/m 16,3 C 20,9 C 1,6 km/h (1 Bft) 97,87 %
31.07.2018 00:18 20,8 C 26,7 C 18,9 C 75 % 1014,4 hPa 0,0 l/m 1,9 km/h (1 Bft) SO 140 0 min 0,000 mm 0,0 UV-I 0 W/m 16,2 C 20,8 C 3,2 km/h (1 Bft) 96,00 %
31.07.2018 00:20 20,6 C 26,7 C 18,9 C 76 % 1014,5 hPa 0,0 l/m 2,9 km/h (1 Bft) SO 140 0 min 0,000 mm 0,0 UV-I 0 W/m 16,2 C 20,6 C 4,8 km/h (1 Bft) 94,00 %
31.07.2018 00:22 20,5 C 27,2 C 18,9 C 76 % 1014,5 hPa 0,0 l/m 3,4 km/h (1 Bft) SO 140 0 min 0,000 mm 0,0 UV-I 0 W/m 16,1 C 20,5 C 4,8 km/h (1 Bft) 95,74 %
31.07.2018 00:24 20,5 C 26,7 C 18,9 C 76 % 1014,5 hPa 0,0 l/m 4,4 km/h (1 Bft) SO 139 0 min 0,000 mm 0,0 UV-I 0 W/m 16,1 C 20,5 C 4,8 km/h (1 Bft) 94,44 %
31.07.2018 00:26 20,5 C 26,7 C 18,9 C 76 % 1014,5 hPa 0,0 l/m 4,8 km/h (1 Bft) O-SO 111 0 min 0,000 mm 0,0 UV-I 0 W/m 16,1 C 20,5 C 6,4 km/h (2 Bft) 95,74 %
31.07.2018 00:28 20,5 C 26,7 C 18,9 C 76 % 1014,5 hPa 0,0 l/m 4,6 km/h (1 Bft) O-SO 111 0 min 0,000 mm 0,0 UV-I 0 W/m 16,1 C 20,5 C 6,4 km/h (2 Bft) 91,49 %
31.07.2018 00:30 20,4 C 26,7 C 18,9 C 76 % 1014,5 hPa 0,0 l/m 3,2 km/h (1 Bft) O-SO 111 0 min 0,000 mm 0,0 UV-I 0 W/m 16,0 C 20,4 C 4,8 km/h (1 Bft) 93,62 %
31.07.2018 00:32 20,4 C 26,7 C 18,9 C 76 % 1014,5 hPa 0,0 l/m 1,3 km/h (1 Bft) O-SO 111 0 min 0,000 mm 0,0 UV-I 0 W/m 16,0 C 20,4 C 3,2 km/h (1 Bft) 91,67 %
31.07.2018 00:34 20,4 C 26,7 C 18,9 C 76 % 1014,5 hPa 0,0 l/m 1,2 km/h (1 Bft) O-SO 111 0 min 0,000 mm 0,0 UV-I 0 W/m 16,0 C 20,4 C 3,2 km/h (1 Bft) 91,49 %
31.07.2018 00:36 20,5 C 26,7 C 18,9 C 76 % 1014,5 hPa 0,0 l/m 1,5 km/h (1 Bft) O-SO 111 0 min 0,000 mm 0,0 UV-I 0 W/m 16,1 C 20,5 C 3,2 km/h (1 Bft) 91,49 %
31.07.2018 00:38 20,6 C 26,7 C 18,9 C 76 % 1014,6 hPa 0,0 l/m 1,2 km/h (1 Bft) O-SO 111 0 min 0,000 mm 0,0 UV-I 0 W/m 16,2 C 20,6 C 1,6 km/h (1 Bft) 91,49 %
31.07.2018 00:40 20,4 C 26,7 C 18,9 C 77 % 1014,6 hPa 0,0 l/m 1,4 km/h (1 Bft) O-SO 111 0 min 0,000 mm 0,0 UV-I 0 W/m 16,2 C 20,4 C 3,2 km/h (1 Bft) 90,57 %
31.07.2018 00:42 20,3 C 26,7 C 18,3 C 78 % 1014,5 hPa 0,0 l/m 0,0 km/h (0 Bft) O-SO 111 0 min 0,000 mm 0,0 UV-I 0 W/m 16,3 C 20,3 C 0,0 km/h (0 Bft) 89,36 %
31.07.2018 00:44 20,3 C 26,7 C 18,3 C 78 % 1014,6 hPa 0,0 l/m 0,0 km/h (0 Bft) O-SO 111 0 min 0,000 mm 0,0 UV-I 0 W/m 16,3 C 20,3 C 0,0 km/h (0 Bft) 94,87 %
31.07.2018 00:46 20,4 C 26,7 C 18,3 C 78 % 1014,6 hPa 0,0 l/m 0,0 km/h (0 Bft) O-SO 111 0 min 0,000 mm 0,0 UV-I 0 W/m 16,4 C 20,4 C 0,0 km/h (0 Bft) 89,36 %
31.07.2018 00:48 20,4 C 26,7 C 17,8 C 77 % 1014,6 hPa 0,0 l/m 0,0 km/h (0 Bft) O-SO 111 0 min 0,000 mm 0,0 UV-I 0 W/m 16,2 C 20,4 C 0,0 km/h (0 Bft) 90,00 %
31.07.2018 00:50 20,3 C 26,7 C 17,8 C 78 % 1014,6 hPa 0,0 l/m 0,1 km/h (0 Bft) O-SO 111 0 min 0,000 mm 0,0 UV-I 0 W/m 16,3 C 20,3 C 1,6 km/h (1 Bft) 95,83 %
31.07.2018 00:52 20,2 C 26,7 C 17,8 C 78 % 1014,6 hPa 0,0 l/m 2,8 km/h (1 Bft) O-SO 111 0 min 0,000 mm 0,0 UV-I 0 W/m 16,2 C 20,2 C 4,8 km/h (1 Bft) 93,62 %
31.07.2018 00:54 20,1 C 26,7 C 18,3 C 78 % 1014,6 hPa 0,0 l/m 3,4 km/h (1 Bft) SO 125 0 min 0,000 mm 0,0 UV-I 0 W/m 16,1 C 20,1 C 4,8 km/h (1 Bft) 95,74 %
31.07.2018 00:56 20,1 C 26,7 C 18,3 C 78 % 1014,7 hPa 0,0 l/m 2,6 km/h (1 Bft) SO 126 0 min 0,000 mm 0,0 UV-I 0 W/m 16,1 C 20,1 C 4,8 km/h (1 Bft) 95,12 %
31.07.2018 00:58 20,1 C 26,7 C 18,3 C 78 % 1014,7 hPa 0,0 l/m 2,3 km/h (1 Bft) SO 126 0 min 0,000 mm 0,0 UV-I 0 W/m 16,1 C 20,1 C 3,2 km/h (1 Bft) 97,87 %
31.07.2018 01:00 20,1 C 26,7 C 18,3 C 79 % 1014,7 hPa 0,0 l/m 2,3 km/h (1 Bft) SO 126 0 min 0,000 mm 0,0 UV-I 0 W/m 16,3 C 20,1 C 3,2 km/h (1 Bft) 96,00 %
31.07.2018 01:02 19,9 C 26,7 C 18,3 C 79 % 1014,7 hPa 0,0 l/m 3,5 km/h (1 Bft) SO 126 0 min 0,000 mm 0,0 UV-I 0 W/m 16,1 C 19,9 C 4,8 km/h (1 Bft) 93,62 %
31.07.2018 01:04 19,8 C 26,7 C 18,3 C 80 % 1014,7 hPa 0,0 l/m 4,0 km/h (1 Bft) SO 126 0 min 0,000 mm 0,0 UV-I 0 W/m 16,2 C 19,8 C 4,8 km/h (1 Bft) 97,87 %
31.07.2018 01:06 19,9 C 26,7 C 18,3 C 79 % 1014,8 hPa 0,0 l/m 4,6 km/h (1 Bft) S-SO 159 0 min 0,000 mm 0,0 UV-I 0 W/m 16,1 C 19,9 C 6,4 km/h (2 Bft) 97,87 %
31.07.2018 01:08 19,9 C 26,7 C 18,3 C 79 % 1014,8 hPa 0,0 l/m 6,0 km/h (2 Bft) S-SO 166 0 min 0,000 mm 0,0 UV-I 0 W/m 16,1 C 19,9 C 8,0 km/h (2 Bft) 97,87 %
31.07.2018 01:10 20,1 C 26,7 C 18,3 C 78 % 1014,8 hPa 0,0 l/m 3,5 km/h (1 Bft) S-SO 166 0 min 0,000 mm 0,0 UV-I 0 W/m 16,1 C 20,1 C 6,4 km/h (2 Bft) 95,74 %
31.07.2018 01:12 20,0 C 26,7 C 18,3 C 79 % 1014,8 hPa 0,0 l/m 3,5 km/h (1 Bft) S-SO 166 0 min 0,000 mm 0,0 UV-I 0 W/m 16,2 C 20,0 C 6,4 km/h (2 Bft) 97,87 %
31.07.2018 01:14 20,1 C 26,7 C 18,3 C 78 % 1014,8 hPa 0,0 l/m 4,6 km/h (1 Bft) S-SO 166 0 min 0,000 mm 0,0 UV-I 0 W/m 16,1 C 20,1 C 4,8 km/h (1 Bft) 97,87 %
31.07.2018 01:16 20,1 C 26,7 C 18,3 C 78 % 1014,8 hPa 0,0 l/m 4,7 km/h (1 Bft) S-SO 166 0 min 0,000 mm 0,0 UV-I 0 W/m 16,1 C 20,1 C 6,4 km/h (2 Bft) 97,87 %
31.07.2018 01:18 20,1 C 26,7 C 18,3 C 79 % 1014,8 hPa 0,0 l/m 5,0 km/h (1 Bft) S-SO 167 0 min 0,000 mm 0,0 UV-I 0 W/m 16,3 C 20,1 C 6,4 km/h (2 Bft) 95,83 %
31.07.2018 01:20 20,0 C 26,7 C 18,3 C 79 % 1014,7 hPa 0,0 l/m 3,9 km/h (1 Bft) S 188 0 min 0,000 mm 0,0 UV-I 0 W/m 16,2 C 20,0 C 4,8 km/h (1 Bft) 95,74 %
31.07.2018 01:22 19,7 C 26,7 C 18,3 C 79 % 1014,7 hPa 0,0 l/m 2,4 km/h (1 Bft) S 188 0 min 0,000 mm 0,0 UV-I 0 W/m 16,0 C 19,7 C 4,8 km/h (1 Bft) 95,74 %
31.07.2018 01:24 19,6 C 26,7 C 17,8 C 80 % 1014,7 hPa 0,0 l/m 1,9 km/h (1 Bft) S 188 0 min 0,000 mm 0,0 UV-I 0 W/m 16,1 C 19,6 C 3,2 km/h (1 Bft) 97,87 %
31.07.2018 01:26 19,5 C 26,7 C 17,8 C 80 % 1014,7 hPa 0,0 l/m 2,1 km/h (1 Bft) S 188 0 min 0,000 mm 0,0 UV-I 0 W/m 16,0 C 19,5 C 3,2 km/h (1 Bft) 100,00 %
31.07.2018 01:28 19,6 C 26,7 C 17,8 C 80 % 1014,7 hPa 0,0 l/m 2,0 km/h (1 Bft) S 188 0 min 0,000 mm 0,0 UV-I 0 W/m 16,1 C 19,6 C 3,2 km/h (1 Bft) 100,00 %
31.07.2018 01:30 19,7 C 26,7 C 17,2 C 80 % 1014,7 hPa 0,0 l/m 0,7 km/h (0 Bft) S 188 0 min 0,000 mm 0,0 UV-I 0 W/m 16,1 C 19,7 C 3,2 km/h (1 Bft) 100,00 %
31.07.2018 01:32 19,7 C 26,7 C 17,2 C 80 % 1014,7 hPa 0,0 l/m 0,0 km/h (0 Bft) S 188 0 min 0,000 mm 0,0 UV-I 0 W/m 16,1 C 19,7 C 0,0 km/h (0 Bft) 97,87 %
31.07.2018 01:34 19,8 C 26,7 C 17,2 C 80 % 1014,7 hPa 0,0 l/m 0,0 km/h (0 Bft) S 188 0 min 0,000 mm 0,0 UV-I 0 W/m 16,2 C 19,8 C 0,0 km/h (0 Bft) 100,00 %
31.07.2018 01:36 19,9 C 26,7 C 17,2 C 80 % 1014,7 hPa 0,0 l/m 0,0 km/h (0 Bft) S 188 0 min 0,000 mm 0,0 UV-I 0 W/m 16,3 C 19,9 C 0,0 km/h (0 Bft) 100,00 %
31.07.2018 01:38 19,9 C 26,7 C 17,2 C 80 % 1014,7 hPa 0,0 l/m 0,3 km/h (0 Bft) S 188 0 min 0,000 mm 0,0 UV-I 0 W/m 16,3 C 19,9 C 1,6 km/h (1 Bft) 98,04 %
31.07.2018 01:40 19,8 C 26,7 C 17,2 C 80 % 1014,7 hPa 0,0 l/m 1,2 km/h (1 Bft) S 188 0 min 0,000 mm 0,0 UV-I 0 W/m 16,2 C 19,8 C 3,2 km/h (1 Bft) 100,00 %
31.07.2018 01:42 19,7 C 26,7 C 17,2 C 80 % 1014,7 hPa 0,0 l/m 2,2 km/h (1 Bft) S 188 0 min 0,000 mm 0,0 UV-I 0 W/m 16,1 C 19,7 C 3,2 km/h (1 Bft) 100,00 %
31.07.2018 01:44 19,7 C 26,7 C 17,8 C 80 % 1014,7 hPa 0,0 l/m 4,1 km/h (1 Bft) S 188 0 min 0,000 mm 0,0 UV-I 0 W/m 16,1 C 19,7 C 4,8 km/h (1 Bft) 100,00 %
31.07.2018 01:46 19,9 C 26,7 C 17,8 C 80 % 1014,6 hPa 0,0 l/m 4,4 km/h (1 Bft) S-SW 195 0 min 0,000 mm 0,0 UV-I 0 W/m 16,3 C 19,9 C 6,4 km/h (2 Bft) 97,22 %
31.07.2018 01:48 19,9 C 26,7 C 18,3 C 80 % 1014,6 hPa 0,0 l/m 3,3 km/h (1 Bft) S-SW 196 0 min 0,000 mm 0,0 UV-I 0 W/m 16,3 C 19,9 C 4,8 km/h (1 Bft) 97,14 %
31.07.2018 01:50 19,8 C 26,7 C 17,8 C 80 % 1014,5 hPa 0,0 l/m 3,5 km/h (1 Bft) S-SW 197 0 min 0,000 mm 0,0 UV-I 0 W/m 16,2 C 19,8 C 4,8 km/h (1 Bft) 100,00 %
31.07.2018 01:52 19,7 C 26,7 C 17,8 C 81 % 1014,5 hPa 0,0 l/m 4,4 km/h (1 Bft) S-SW 198 0 min 0,000 mm 0,0 UV-I 0 W/m 16,3 C 19,7 C 4,8 km/h (1 Bft) 100,00 %
31.07.2018 01:54 19,8 C 26,7 C 18,3 C 81 % 1014,5 hPa 0,0 l/m 4,6 km/h (1 Bft) S-SW 198 0 min 0,000 mm 0,0 UV-I 0 W/m 16,4 C 19,8 C 4,8 km/h (1 Bft) 100,00 %
31.07.2018 01:56 20,0 C 26,7 C 18,3 C 81 % 1014,5 hPa 0,0 l/m 5,0 km/h (1 Bft) S-SW 197 0 min 0,000 mm 0,0 UV-I 0 W/m 16,6 C 20,0 C 6,4 km/h (2 Bft) 97,87 %
31.07.2018 01:58 20,1 C 26,7 C 18,3 C 81 % 1014,5 hPa 0,0 l/m 4,0 km/h (1 Bft) S-SW 197 0 min 0,000 mm 0,0 UV-I 0 W/m 16,7 C 20,1 C 4,8 km/h (1 Bft) 97,14 %
31.07.2018 02:00 20,1 C 26,7 C 18,9 C 80 % 1014,5 hPa 0,0 l/m 3,1 km/h (1 Bft) S-SW 197 0 min 0,025 mm 0,0 UV-I 0 W/m 16,5 C 20,1 C 4,8 km/h (1 Bft) 98,00 %
31.07.2018 02:02 20,1 C 26,7 C 18,3 C 80 % 1014,5 hPa 0,0 l/m 3,1 km/h (1 Bft) S-SW 197 0 min 0,000 mm 0,0 UV-I 0 W/m 16,5 C 20,1 C 4,8 km/h (1 Bft) 97,92 %
31.07.2018 02:04 20,1 C 26,7 C 18,3 C 80 % 1014,5 hPa 0,0 l/m 2,7 km/h (1 Bft) S-SW 197 0 min 0,000 mm 0,0 UV-I 0 W/m 16,5 C 20,1 C 4,8 km/h (1 Bft) 97,87 %
31.07.2018 02:06 20,0 C 26,7 C 18,3 C 81 % 1014,5 hPa 0,0 l/m 2,6 km/h (1 Bft) S-SW 197 0 min 0,000 mm 0,0 UV-I 0 W/m 16,6 C 20,0 C 3,2 km/h (1 Bft) 93,62 %
31.07.2018 02:08 19,9 C 26,7 C 18,3 C 81 % 1014,5 hPa 0,0 l/m 0,7 km/h (0 Bft) S-SW 197 0 min 0,000 mm 0,0 UV-I 0 W/m 16,5 C 19,9 C 3,2 km/h (1 Bft) 97,87 %
31.07.2018 02:10 19,8 C 26,7 C 17,8 C 81 % 1014,5 hPa 0,0 l/m 0,2 km/h (0 Bft) S-SW 197 0 min 0,000 mm 0,0 UV-I 0 W/m 16,4 C 19,8 C 1,6 km/h (1 Bft) 97,87 %
31.07.2018 02:12 19,5 C 26,7 C 17,8 C 82 % 1014,5 hPa 0,0 l/m 1,6 km/h (1 Bft) S-SW 197 0 min 0,000 mm 0,0 UV-I 0 W/m 16,3 C 19,5 C 3,2 km/h (1 Bft) 97,87 %
31.07.2018 02:14 19,2 C 26,7 C 17,2 C 83 % 1014,5 hPa 0,0 l/m 1,5 km/h (1 Bft) S-SW 197 0 min 0,000 mm 0,0 UV-I 0 W/m 16,2 C 19,2 C 1,6 km/h (1 Bft) 97,87 %
31.07.2018 02:16 19,1 C 26,7 C 17,2 C 84 % 1014,5 hPa 0,0 l/m 2,1 km/h (1 Bft) S-SW 197 0 min 0,000 mm 0,0 UV-I 0 W/m 16,3 C 19,1 C 3,2 km/h (1 Bft) 97,87 %
31.07.2018 02:18 19,1 C 26,7 C 17,2 C 84 % 1014,5 hPa 0,0 l/m 1,2 km/h (1 Bft) S-SW 197 0 min 0,000 mm 0,0 UV-I 0 W/m 16,3 C 19,1 C 1,6 km/h (1 Bft) 93,62 %
31.07.2018 02:20 19,1 C 26,7 C 16,7 C 84 % 1014,5 hPa 0,0 l/m 0,7 km/h (0 Bft) S-SW 197 0 min 0,000 mm 0,0 UV-I 0 W/m 16,3 C 19,1 C 1,6 km/h (1 Bft) 91,49 %
31.07.2018 02:22 19,0 C 26,7 C 16,7 C 84 % 1014,5 hPa 0,0 l/m 0,0 km/h (0 Bft) S-SW 197 0 min 0,000 mm 0,0 UV-I 0 W/m 16,2 C 19,0 C 1,6 km/h (1 Bft) 97,87 %
31.07.2018 02:24 18,9 C 26,7 C 16,7 C 85 % 1014,5 hPa 0,0 l/m 0,0 km/h (0 Bft) S-SW 197 0 min 0,000 mm 0,0 UV-I 0 W/m 16,3 C 18,9 C 0,0 km/h (0 Bft) 93,62 %
31.07.2018 02:26 18,9 C 26,7 C 16,7 C 85 % 1014,5 hPa 0,0 l/m 0,0 km/h (0 Bft) S-SW 197 0 min 0,000 mm 0,0 UV-I 0 W/m 16,3 C 18,9 C 0,0 km/h (0 Bft) 97,87 %
31.07.2018 02:28 18,9 C 26,7 C 16,7 C 85 % 1014,5 hPa 0,0 l/m 0,0 km/h (0 Bft) S-SW 197 0 min 0,000 mm 0,0 UV-I 0 W/m 16,3 C 18,9 C 0,0 km/h (0 Bft) 95,74 %
31.07.2018 02:30 18,9 C 26,7 C 16,7 C 85 % 1014,5 hPa 0,0 l/m 0,0 km/h (0 Bft) S-SW 197 0 min 0,000 mm 0,0 UV-I 0 W/m 16,3 C 18,9 C 0,0 km/h (0 Bft) 97,87 %
31.07.2018 02:32 19,0 C 26,7 C 16,7 C 85 % 1014,4 hPa 0,0 l/m 0,0 km/h (0 Bft) S-SW 197 0 min 0,000 mm 0,0 UV-I 0 W/m 16,4 C 19,0 C 0,0 km/h (0 Bft) 95,74 %
31.07.2018 02:34 19,1 C 26,7 C 16,1 C 85 % 1014,4 hPa 0,0 l/m 0,0 km/h (0 Bft) S-SW 197 0 min 0,000 mm 0,0 UV-I 0 W/m 16,5 C 19,1 C 0,0 km/h (0 Bft) 95,74 %
31.07.2018 02:36 19,1 C 26,7 C 16,7 C 84 % 1014,4 hPa 0,0 l/m 0,0 km/h (0 Bft) S-SW 197 0 min 0,000 mm 0,0 UV-I 0 W/m 16,3 C 19,1 C 0,0 km/h (0 Bft) 97,87 %
31.07.2018 02:38 19,1 C 26,7 C 16,7 C 84 % 1014,4 hPa 0,0 l/m 0,0 km/h (0 Bft) S-SW 197 0 min 0,000 mm 0,0 UV-I 0 W/m 16,3 C 19,1 C 0,0 km/h (0 Bft) 98,00 %
31.07.2018 02:40 19,1 C 26,7 C 16,7 C 84 % 1014,4 hPa 0,0 l/m 0,0 km/h (0 Bft) S-SW 197 0 min 0,000 mm 0,0 UV-I 0 W/m 16,3 C 19,1 C 0,0 km/h (0 Bft) 97,87 %
31.07.2018 02:42 19,1 C 26,7 C 16,7 C 84 % 1014,4 hPa 0,0 l/m 0,0 km/h (0 Bft) S-SW 197 0 min 0,000 mm 0,0 UV-I 0 W/m 16,3 C 19,1 C 0,0 km/h (0 Bft) 97,87 %
31.07.2018 02:44 18,9 C 26,7 C 16,7 C 84 % 1014,4 hPa 0,0 l/m 0,0 km/h (0 Bft) S-SW 197 0 min 0,000 mm 0,0 UV-I 0 W/m 16,1 C 18,9 C 0,0 km/h (0 Bft) 95,83 %
31.07.2018 02:46 18,9 C 26,7 C 17,2 C 84 % 1014,4 hPa 0,0 l/m 0,0 km/h (0 Bft) S-SW 197 0 min 0,000 mm 0,0 UV-I 0 W/m 16,1 C 18,9 C 0,0 km/h (0 Bft) 97,37 %
31.07.2018 02:48 18,8 C 26,7 C 17,2 C 85 % 1014,4 hPa 0,0 l/m 0,0 km/h (0 Bft) S-SW 197 0 min 0,000 mm 0,0 UV-I 0 W/m 16,2 C 18,8 C 0,0 km/h (0 Bft) 97,87 %
31.07.2018 02:50 18,8 C 26,7 C 17,2 C 85 % 1014,4 hPa 0,0 l/m 0,0 km/h (0 Bft) S-SW 197 0 min 0,000 mm 0,0 UV-I 0 W/m 16,2 C 18,8 C 0,0 km/h (0 Bft) 97,87 %
31.07.2018 02:52 18,9 C 26,7 C 17,2 C 85 % 1014,4 hPa 0,0 l/m 0,0 km/h (0 Bft) S-SW 197 0 min 0,000 mm 0,0 UV-I 0 W/m 16,3 C 18,9 C 0,0 km/h (0 Bft) 100,00 %
31.07.2018 02:54 18,7 C 26,7 C 17,2 C 85 % 1014,4 hPa 0,0 l/m 0,0 km/h (0 Bft) S-SW 197 0 min 0,000 mm 0,0 UV-I 0 W/m 16,1 C 18,7 C 0,0 km/h (0 Bft) 100,00 %
31.07.2018 02:56 18,7 C 26,7 C 17,2 C 86 % 1014,4 hPa 0,0 l/m 0,0 km/h (0 Bft) S-SW 197 0 min 0,000 mm 0,0 UV-I 0 W/m 16,3 C 18,7 C 0,0 km/h (0 Bft) 95,74 %
31.07.2018 02:58 18,7 C 26,7 C 16,7 C 86 % 1014,4 hPa 0,0 l/m 0,0 km/h (0 Bft) S-SW 197 0 min 0,000 mm 0,0 UV-I 0 W/m 16,3 C 18,7 C 0,0 km/h (0 Bft) 95,74 %
31.07.2018 03:00 18,7 C 26,7 C 16,7 C 86 % 1014,4 hPa 0,0 l/m 0,0 km/h (0 Bft) S-SW 197 0 min 0,000 mm 0,0 UV-I 0 W/m 16,3 C 18,7 C 0,0 km/h (0 Bft) 100,00 %
31.07.2018 03:02 18,7 C 26,7 C 16,7 C 86 % 1014,4 hPa 0,0 l/m 0,0 km/h (0 Bft) S-SW 197 0 min 0,000 mm 0,0 UV-I 0 W/m 16,3 C 18,7 C 0,0 km/h (0 Bft) 100,00 %
31.07.2018 03:04 18,7 C 26,7 C 16,7 C 86 % 1014,4 hPa 0,0 l/m 0,0 km/h (0 Bft) S-SW 197 0 min 0,000 mm 0,0 UV-I 0 W/m 16,3 C 18,7 C 0,0 km/h (0 Bft) 98,00 %
31.07.2018 03:06 18,7 C 26,7 C 17,2 C 86 % 1014,4 hPa 0,0 l/m 1,1 km/h (1 Bft) S-SW 197 0 min 0,000 mm 0,0 UV-I 0 W/m 16,3 C 18,7 C 3,2 km/h (1 Bft) 100,00 %
31.07.2018 03:08 18,7 C 26,7 C 17,2 C 86 % 1014,4 hPa 0,0 l/m 2,1 km/h (1 Bft) S-SW 197 0 min 0,000 mm 0,0 UV-I 0 W/m 16,3 C 18,7 C 3,2 km/h (1 Bft) 97,87 %
31.07.2018 03:10 18,7 C 26,7 C 16,7 C 86 % 1014,4 hPa 0,0 l/m 2,6 km/h (1 Bft) S-SW 197 0 min 0,000 mm 0,0 UV-I 0 W/m 16,3 C 18,7 C 3,2 km/h (1 Bft) 97,87 %
31.07.2018 03:12 18,6 C 26,7 C 16,7 C 86 % 1014,4 hPa 0,0 l/m 3,0 km/h (1 Bft) S-SW 197 0 min 0,000 mm 0,0 UV-I 0 W/m 16,2 C 18,6 C 3,2 km/h (1 Bft) 100,00 %
31.07.2018 03:14 18,4 C 26,7 C 16,7 C 86 % 1014,4 hPa 0,0 l/m 2,7 km/h (1 Bft) S-SW 197 0 min 0,000 mm 0,0 UV-I 0 W/m 16,0 C 18,4 C 3,2 km/h (1 Bft) 97,87 %
31.07.2018 03:16 18,4 C 26,7 C 16,7 C 87 % 1014,3 hPa 0,0 l/m 2,8 km/h (1 Bft) S-SW 197 0 min 0,000 mm 0,0 UV-I 0 W/m 16,2 C 18,4 C 3,2 km/h (1 Bft) 100,00 %
31.07.2018 03:18 18,4 C 26,7 C 16,7 C 87 % 1014,2 hPa 0,0 l/m 1,9 km/h (1 Bft) S-SW 197 0 min 0,000 mm 0,0 UV-I 0 W/m 16,2 C 18,4 C 3,2 km/h (1 Bft) 100,00 %
31.07.2018 03:20 18,4 C 26,7 C 16,7 C 87 % 1014,3 hPa 0,0 l/m 1,2 km/h (1 Bft) S-SW 197 0 min 0,000 mm 0,0 UV-I 0 W/m 16,2 C 18,4 C 1,6 km/h (1 Bft) 100,00 %
31.07.2018 03:22 18,4 C 26,7 C 16,7 C 87 % 1014,2 hPa 0,0 l/m 0,7 km/h (0 Bft) S-SW 197 0 min 0,000 mm 0,0 UV-I 0 W/m 16,2 C 18,4 C 1,6 km/h (1 Bft) 97,87 %
31.07.2018 03:24 18,4 C 26,7 C 16,7 C 87 % 1014,3 hPa 0,0 l/m 0,7 km/h (0 Bft) S-SW 197 0 min 0,000 mm 0,0 UV-I 0 W/m 16,2 C 18,4 C 1,6 km/h (1 Bft) 97,14 %
31.07.2018 03:26 18,4 C 26,7 C 16,7 C 87 % 1014,3 hPa 0,0 l/m 0,8 km/h (0 Bft) S-SW 197 0 min 0,000 mm 0,0 UV-I 0 W/m 16,2 C 18,4 C 1,6 km/h (1 Bft) 98,00 %
31.07.2018 03:28 18,4 C 26,7 C 16,7 C 87 % 1014,3 hPa 0,0 l/m 0,9 km/h (0 Bft) S-SW 197 0 min 0,000 mm 0,0 UV-I 0 W/m 16,2 C 18,4 C 1,6 km/h (1 Bft) 97,87 %
31.07.2018 03:30 18,3 C 26,7 C 16,7 C 87 % 1014,3 hPa 0,0 l/m 0,0 km/h (0 Bft) S-SW 197 0 min 0,000 mm 0,0 UV-I 0 W/m 16,1 C 18,3 C 0,0 km/h (0 Bft) 93,62 %
31.07.2018 03:32 18,3 C 26,7 C 16,7 C 88 % 1014,3 hPa 0,0 l/m 0,0 km/h (0 Bft) S-SW 197 0 min 0,000 mm 0,0 UV-I 0 W/m 16,3 C 18,3 C 0,0 km/h (0 Bft) 97,87 %
31.07.2018 03:34 18,4 C 26,7 C 16,7 C 88 % 1014,3 hPa 0,0 l/m 0,8 km/h (0 Bft) S-SW 197 0 min 0,000 mm 0,0 UV-I 0 W/m 16,4 C 18,4 C 3,2 km/h (1 Bft) 97,87 %
31.07.2018 03:36 18,4 C 26,7 C 16,7 C 87 % 1014,3 hPa 0,0 l/m 2,2 km/h (1 Bft) S-SW 197 0 min 0,000 mm 0,0 UV-I 0 W/m 16,2 C 18,4 C 3,2 km/h (1 Bft) 97,87 %
31.07.2018 03:38 18,2 C 26,7 C 16,7 C 87 % 1014,3 hPa 0,0 l/m 2,8 km/h (1 Bft) S-SW 197 0 min 0,000 mm 0,0 UV-I 0 W/m 16,0 C 18,2 C 4,8 km/h (1 Bft) 95,74 %
31.07.2018 03:40 18,0 C 26,7 C 16,7 C 88 % 1014,3 hPa 0,0 l/m 2,2 km/h (1 Bft) S-SW 197 0 min 0,000 mm 0,0 UV-I 0 W/m 16,0 C 18,0 C 3,2 km/h (1 Bft) 93,62 %
31.07.2018 03:42 18,0 C 26,7 C 16,7 C 89 % 1014,3 hPa 0,0 l/m 2,3 km/h (1 Bft) S-SW 197 0 min 0,000 mm 0,0 UV-I 0 W/m 16,2 C 18,0 C 3,2 km/h (1 Bft) 95,74 %
31.07.2018 03:44 18,2 C 26,7 C 16,7 C 89 % 1014,3 hPa 0,0 l/m 0,9 km/h (0 Bft) S-SW 197 0 min 0,000 mm 0,0 UV-I 0 W/m 16,4 C 18,2 C 1,6 km/h (1 Bft) 93,62 %
31.07.2018 03:46 18,3 C 26,7 C 16,1 C 88 % 1014,3 hPa 0,0 l/m 0,0 km/h (0 Bft) S-SW 197 0 min 0,000 mm 0,0 UV-I 0 W/m 16,3 C 18,3 C 0,0 km/h (0 Bft) 100,00 %
31.07.2018 03:48 18,3 C 26,7 C 16,1 C 88 % 1014,3 hPa 0,0 l/m 0,0 km/h (0 Bft) S-SW 197 0 min 0,000 mm 0,0 UV-I 0 W/m 16,3 C 18,3 C 0,0 km/h (0 Bft) 98,00 %
31.07.2018 03:50 18,2 C 26,7 C 16,1 C 88 % 1014,3 hPa 0,0 l/m 0,0 km/h (0 Bft) S-SW 197 0 min 0,000 mm 0,0 UV-I 0 W/m 16,2 C 18,2 C 0,0 km/h (0 Bft) 97,87 %
31.07.2018 03:52 18,1 C 26,7 C 16,1 C 88 % 1014,3 hPa 0,0 l/m 0,0 km/h (0 Bft) S-SW 197 0 min 0,000 mm 0,0 UV-I 0 W/m 16,1 C 18,1 C 0,0 km/h (0 Bft) 97,87 %
31.07.2018 03:54 18,1 C 26,7 C 16,1 C 89 % 1014,2 hPa 0,0 l/m 0,9 km/h (0 Bft) S-SW 197 0 min 0,000 mm 0,0 UV-I 0 W/m 16,3 C 18,1 C 1,6 km/h (1 Bft) 100,00 %
31.07.2018 03:56 18,1 C 26,7 C 16,1 C 88 % 1014,2 hPa 0,0 l/m 2,5 km/h (1 Bft) S-SW 197 0 min 0,000 mm 0,0 UV-I 0 W/m 16,1 C 18,1 C 3,2 km/h (1 Bft) 98,00 %
31.07.2018 03:58 17,9 C 26,7 C 16,7 C 88 % 1014,3 hPa 0,0 l/m 2,6 km/h (1 Bft) S-SW 197 0 min 0,000 mm 0,0 UV-I 0 W/m 15,9 C 17,9 C 3,2 km/h (1 Bft) 97,92 %
31.07.2018 04:00 17,9 C 26,7 C 16,7 C 88 % 1014,2 hPa 0,0 l/m 2,1 km/h (1 Bft) S-SW 197 0 min 0,000 mm 0,0 UV-I 0 W/m 15,9 C 17,9 C 3,2 km/h (1 Bft) 95,74 %
31.07.2018 04:02 17,8 C 26,7 C 16,7 C 88 % 1014,1 hPa 0,0 l/m 1,8 km/h (1 Bft) S-SW 197 0 min 0,000 mm 0,0 UV-I 0 W/m 15,8 C 17,8 C 3,2 km/h (1 Bft) 100,00 %
31.07.2018 04:04 17,8 C 26,7 C 16,7 C 89 % 1014,1 hPa 0,0 l/m 2,3 km/h (1 Bft) S-SW 197 0 min 0,000 mm 0,0 UV-I 0 W/m 16,0 C 17,8 C 3,2 km/h (1 Bft) 93,62 %
31.07.2018 04:06 17,8 C 26,7 C 16,7 C 89 % 1014,1 hPa 0,0 l/m 1,5 km/h (1 Bft) S-SW 197 0 min 0,000 mm 0,0 UV-I 0 W/m 16,0 C 17,8 C 3,2 km/h (1 Bft) 95,74 %
31.07.2018 04:08 17,8 C 26,7 C 16,7 C 88 % 1014,2 hPa 0,0 l/m 0,5 km/h (0 Bft) S-SW 197 0 min 0,000 mm 0,0 UV-I 0 W/m 15,8 C 17,8 C 1,6 km/h (1 Bft) 97,96 %
31.07.2018 04:10 17,7 C 26,7 C 16,7 C 88 % 1014,2 hPa 0,0 l/m 0,0 km/h (0 Bft) S-SW 197 0 min 0,000 mm 0,0 UV-I 0 W/m 15,7 C 17,7 C 0,0 km/h (0 Bft) 95,74 %
31.07.2018 04:12 17,6 C 26,7 C 16,7 C 89 % 1014,2 hPa 0,0 l/m 0,0 km/h (0 Bft) S-SW 197 0 min 0,000 mm 0,0 UV-I 0 W/m 15,8 C 17,6 C 0,0 km/h (0 Bft) 100,00 %
31.07.2018 04:14 17,7 C 26,7 C 16,1 C 89 % 1014,2 hPa 0,0 l/m 0,0 km/h (0 Bft) S-SW 197 0 min 0,000 mm 0,0 UV-I 0 W/m 15,9 C 17,7 C 0,0 km/h (0 Bft) 95,74 %
31.07.2018 04:16 17,7 C 26,1 C 16,1 C 89 % 1014,2 hPa 0,0 l/m 0,0 km/h (0 Bft) S-SW 197 0 min 0,000 mm 0,0 UV-I 0 W/m 15,9 C 17,7 C 0,0 km/h (0 Bft) 98,00 %
31.07.2018 04:18 17,8 C 26,1 C 16,1 C 89 % 1014,2 hPa 0,0 l/m 0,0 km/h (0 Bft) S-SW 197 0 min 0,000 mm 0,0 UV-I 0 W/m 16,0 C 17,8 C 0,0 km/h (0 Bft) 97,87 %
31.07.2018 04:20 17,9 C 26,1 C 16,1 C 89 % 1014,2 hPa 0,0 l/m 0,0 km/h (0 Bft) S-SW 197 0 min 0,000 mm 0,0 UV-I 0 W/m 16,1 C 17,9 C 0,0 km/h (0 Bft) 97,87 %
31.07.2018 04:22 18,1 C 26,1 C 16,1 C 89 % 1014,1 hPa 0,0 l/m 0,0 km/h (0 Bft) S-SW 197 0 min 0,000 mm 0,0 UV-I 0 W/m 16,3 C 18,1 C 0,0 km/h (0 Bft) 95,74 %
31.07.2018 04:24 18,2 C 26,1 C 15,6 C 88 % 1014,2 hPa 0,0 l/m 0,0 km/h (0 Bft) S-SW 197 0 min 0,000 mm 0,0 UV-I 0 W/m 16,2 C 18,2 C 0,0 km/h (0 Bft) 95,74 %
31.07.2018 04:26 18,1 C 26,1 C 15,6 C 87 % 1014,1 hPa 0,0 l/m 0,0 km/h (0 Bft) S-SW 197 0 min 0,000 mm 0,0 UV-I 0 W/m 15,9 C 18,1 C 0,0 km/h (0 Bft) 95,74 %
31.07.2018 04:28 18,1 C 26,1 C 15,6 C 88 % 1014,2 hPa 0,0 l/m 0,0 km/h (0 Bft) S-SW 197 0 min 0,000 mm 0,0 UV-I 0 W/m 16,1 C 18,1 C 0,0 km/h (0 Bft) 91,49 %
31.07.2018 04:30 18,0 C 26,1 C 15,6 C 88 % 1014,2 hPa 0,0 l/m 0,0 km/h (0 Bft) S-SW 197 0 min 0,000 mm 0,0 UV-I 0 W/m 16,0 C 18,0 C 0,0 km/h (0 Bft) 93,62 %
31.07.2018 04:32 17,9 C 26,1 C 16,1 C 88 % 1014,2 hPa 0,0 l/m 0,0 km/h (0 Bft) S-SW 197 0 min 0,000 mm 0,0 UV-I 0 W/m 15,9 C 17,9 C 0,0 km/h (0 Bft) 95,83 %
31.07.2018 04:34 17,8 C 26,1 C 15,6 C 88 % 1014,2 hPa 0,0 l/m 0,0 km/h (0 Bft) S-SW 197 0 min 0,000 mm 0,0 UV-I 0 W/m 15,8 C 17,8 C 0,0 km/h (0 Bft) 93,62 %
31.07.2018 04:36 17,8 C 26,1 C 15,6 C 89 % 1014,2 hPa 0,0 l/m 0,0 km/h (0 Bft) S-SW 197 0 min 0,000 mm 0,0 UV-I 0 W/m 16,0 C 17,8 C 0,0 km/h (0 Bft) 95,74 %
31.07.2018 04:38 17,9 C 26,1 C 15,6 C 89 % 1014,2 hPa 0,0 l/m 0,0 km/h (0 Bft) S-SW 197 0 min 0,000 mm 0,0 UV-I 0 W/m 16,1 C 17,9 C 0,0 km/h (0 Bft) 93,62 %
31.07.2018 04:40 17,9 C 26,1 C 15,6 C 88 % 1014,1 hPa 0,0 l/m 0,0 km/h (0 Bft) S-SW 197 0 min 0,000 mm 0,0 UV-I 0 W/m 15,9 C 17,9 C 0,0 km/h (0 Bft) 95,74 %
31.07.2018 04:42 17,9 C 26,1 C 15,6 C 88 % 1014,1 hPa 0,0 l/m 0,7 km/h (0 Bft) S-SW 197 0 min 0,000 mm 0,0 UV-I 0 W/m 15,9 C 17,9 C 3,2 km/h (1 Bft) 95,74 %
31.07.2018 04:44 17,8 C 26,1 C 15,6 C 88 % 1014,2 hPa 0,0 l/m 2,0 km/h (1 Bft) S-SW 197 0 min 0,000 mm 0,0 UV-I 0 W/m 15,8 C 17,8 C 3,2 km/h (1 Bft) 93,62 %
31.07.2018 04:46 17,8 C 26,1 C 15,6 C 88 % 1014,2 hPa 0,0 l/m 2,2 km/h (1 Bft) S-SW 197 0 min 0,000 mm 0,0 UV-I 0 W/m 15,8 C 17,8 C 3,2 km/h (1 Bft) 93,62 %
31.07.2018 04:48 17,8 C 26,1 C 16,1 C 88 % 1014,2 hPa 0,0 l/m 2,5 km/h (1 Bft) S-SW 197 0 min 0,000 mm 0,0 UV-I 0 W/m 15,8 C 17,8 C 3,2 km/h (1 Bft) 95,74 %
31.07.2018 04:50 17,6 C 26,1 C 16,1 C 88 % 1014,1 hPa 0,0 l/m 1,7 km/h (1 Bft) S-SW 197 0 min 0,000 mm 0,0 UV-I 0 W/m 15,6 C 17,6 C 3,2 km/h (1 Bft) 93,62 %
31.07.2018 04:52 17,5 C 26,1 C 16,1 C 89 % 1014,2 hPa 0,0 l/m 2,0 km/h (1 Bft) S-SW 197 0 min 0,000 mm 0,0 UV-I 0 W/m 15,7 C 17,5 C 3,2 km/h (1 Bft) 93,62 %
31.07.2018 04:54 17,4 C 26,1 C 16,1 C 89 % 1014,2 hPa 0,0 l/m 1,2 km/h (1 Bft) S-SW 197 0 min 0,000 mm 0,0 UV-I 0 W/m 15,6 C 17,4 C 3,2 km/h (1 Bft) 93,62 %
31.07.2018 04:56 17,5 C 26,1 C 16,1 C 90 % 1014,2 hPa 0,0 l/m 0,0 km/h (0 Bft) S-SW 197 0 min 0,000 mm 0,0 UV-I 0 W/m 15,8 C 17,5 C 0,0 km/h (0 Bft) 93,62 %
31.07.2018 04:58 17,6 C 26,1 C 15,6 C 90 % 1014,2 hPa 0,0 l/m 0,0 km/h (0 Bft) S-SW 197 0 min 0,000 mm 0,0 UV-I 0 W/m 15,9 C 17,6 C 0,0 km/h (0 Bft) 95,74 %
31.07.2018 05:00 17,7 C 26,1 C 15,6 C 89 % 1014,2 hPa 0,0 l/m 0,0 km/h (0 Bft) S-SW 197 0 min 0,000 mm 0,0 UV-I 0 W/m 15,9 C 17,7 C 0,0 km/h (0 Bft) 95,74 %
31.07.2018 05:02 17,7 C 26,1 C 15,6 C 89 % 1014,2 hPa 0,0 l/m 0,0 km/h (0 Bft) S-SW 197 0 min 0,000 mm 0,0 UV-I 0 W/m 15,9 C 17,7 C 0,0 km/h (0 Bft) 93,62 %
31.07.2018 05:04 17,7 C 26,1 C 15,6 C 89 % 1014,2 hPa 0,0 l/m 0,0 km/h (0 Bft) S-SW 197 0 min 0,000 mm 0,0 UV-I 0 W/m 15,9 C 17,7 C 0,0 km/h (0 Bft) 100,00 %
31.07.2018 05:06 17,7 C 26,1 C 15,6 C 89 % 1014,2 hPa 0,0 l/m 0,0 km/h (0 Bft) S-SW 197 0 min 0,000 mm 0,0 UV-I 0 W/m 15,9 C 17,7 C 0,0 km/h (0 Bft) 94,00 %
31.07.2018 05:08 17,5 C 26,1 C 15,6 C 89 % 1014,2 hPa 0,0 l/m 0,0 km/h (0 Bft) S-SW 197 0 min 0,000 mm 0,0 UV-I 0 W/m 15,7 C 17,5 C 0,0 km/h (0 Bft) 97,87 %
31.07.2018 05:10 17,4 C 26,1 C 15,6 C 89 % 1014,2 hPa 0,0 l/m 0,0 km/h (0 Bft) S-SW 197 0 min 0,000 mm 0,0 UV-I 0 W/m 15,6 C 17,4 C 0,0 km/h (0 Bft) 97,87 %
31.07.2018 05:12 17,4 C 26,1 C 15,6 C 89 % 1014,2 hPa 0,0 l/m 0,0 km/h (0 Bft) S-SW 197 0 min 0,000 mm 0,0 UV-I 0 W/m 15,6 C 17,4 C 0,0 km/h (0 Bft) 95,74 %
31.07.2018 05:14 17,4 C 26,1 C 15,6 C 90 % 1014,3 hPa 0,0 l/m 0,0 km/h (0 Bft) S-SW 197 0 min 0,000 mm 0,0 UV-I 0 W/m 15,7 C 17,4 C 1,6 km/h (1 Bft) 100,00 %
31.07.2018 05:16 17,3 C 26,1 C 16,1 C 90 % 1014,2 hPa 0,0 l/m 3,0 km/h (1 Bft) S-SW 197 0 min 0,000 mm 0,0 UV-I 0 W/m 15,6 C 17,3 C 4,8 km/h (1 Bft) 97,87 %
31.07.2018 05:18 17,3 C 26,1 C 16,1 C 90 % 1014,2 hPa 0,0 l/m 4,1 km/h (1 Bft) S-SW 198 0 min 0,000 mm 0,0 UV-I 0 W/m 15,6 C 17,3 C 4,8 km/h (1 Bft) 93,62 %
31.07.2018 05:20 17,3 C 26,1 C 16,1 C 90 % 1014,3 hPa 0,0 l/m 4,0 km/h (1 Bft) S-SW 198 0 min 0,000 mm 0,0 UV-I 0 W/m 15,6 C 17,3 C 4,8 km/h (1 Bft) 100,00 %
31.07.2018 05:22 17,2 C 26,1 C 16,1 C 90 % 1014,3 hPa 0,0 l/m 3,9 km/h (1 Bft) S-SW 198 0 min 0,000 mm 0,0 UV-I 1 W/m 15,5 C 17,2 C 4,8 km/h (1 Bft) 97,87 %
31.07.2018 05:24 17,3 C 26,1 C 16,1 C 91 % 1014,3 hPa 0,0 l/m 3,2 km/h (1 Bft) S-SW 198 0 min 0,000 mm 0,0 UV-I 5 W/m 15,8 C 17,3 C 4,8 km/h (1 Bft) 100,00 %
31.07.2018 05:26 17,3 C 26,1 C 16,1 C 90 % 1014,3 hPa 0,0 l/m 0,6 km/h (0 Bft) S-SW 198 0 min 0,000 mm 0,0 UV-I 5 W/m 15,6 C 17,3 C 3,2 km/h (1 Bft) 100,00 %
31.07.2018 05:28 17,3 C 26,1 C 15,6 C 90 % 1014,3 hPa 0,0 l/m 0,0 km/h (0 Bft) S-SW 198 0 min 0,000 mm 0,0 UV-I 5 W/m 15,6 C 17,3 C 0,0 km/h (0 Bft) 100,00 %
31.07.2018 05:30 17,2 C 26,1 C 15,6 C 90 % 1014,3 hPa 0,0 l/m 0,0 km/h (0 Bft) S-SW 198 0 min 0,000 mm 0,0 UV-I 6 W/m 15,5 C 17,2 C 0,0 km/h (0 Bft) 97,14 %
31.07.2018 05:32 17,3 C 26,1 C 15,6 C 90 % 1014,3 hPa 0,0 l/m 0,0 km/h (0 Bft) S-SW 198 0 min 0,000 mm 0,0 UV-I 7 W/m 15,6 C 17,3 C 0,0 km/h (0 Bft) 98,04 %
31.07.2018 05:34 17,3 C 26,1 C 15,6 C 90 % 1014,2 hPa 0,0 l/m 0,0 km/h (0 Bft) S-SW 198 0 min 0,000 mm 0,0 UV-I 6 W/m 15,6 C 17,3 C 0,0 km/h (0 Bft) 97,87 %
31.07.2018 05:36 17,3 C 26,1 C 15,6 C 90 % 1014,2 hPa 0,0 l/m 0,6 km/h (0 Bft) S-SW 198 0 min 0,000 mm 0,0 UV-I 6 W/m 15,6 C 17,3 C 1,6 km/h (1 Bft) 100,00 %
31.07.2018 05:38 17,3 C 26,1 C 15,6 C 90 % 1014,3 hPa 0,0 l/m 0,0 km/h (0 Bft) S-SW 198 0 min 0,000 mm 0,0 UV-I 9 W/m 15,6 C 17,3 C 0,0 km/h (0 Bft) 97,87 %
31.07.2018 05:40 17,4 C 26,1 C 15,6 C 90 % 1014,2 hPa 0,0 l/m 1,0 km/h (0 Bft) S-SW 198 0 min 0,000 mm 0,0 UV-I 9 W/m 15,7 C 17,4 C 3,2 km/h (1 Bft) 100,00 %
31.07.2018 05:42 17,5 C 26,1 C 15,6 C 90 % 1014,3 hPa 0,0 l/m 3,0 km/h (1 Bft) S-SW 198 0 min 0,000 mm 0,0 UV-I 8 W/m 15,8 C 17,5 C 4,8 km/h (1 Bft) 100,00 %
31.07.2018 05:44 17,5 C 26,1 C 16,1 C 90 % 1014,3 hPa 0,0 l/m 3,5 km/h (1 Bft) S-SW 198 0 min 0,000 mm 0,0 UV-I 7 W/m 15,8 C 17,5 C 4,8 km/h (1 Bft) 100,00 %
31.07.2018 05:46 17,3 C 26,1 C 16,1 C 90 % 1014,2 hPa 0,0 l/m 3,8 km/h (1 Bft) S-SW 198 0 min 0,000 mm 0,0 UV-I 8 W/m 15,6 C 17,3 C 4,8 km/h (1 Bft) 97,87 %
31.07.2018 05:48 17,2 C 26,1 C 16,1 C 89 % 1014,3 hPa 0,0 l/m 3,7 km/h (1 Bft) S-SW 198 0 min 0,000 mm 0,0 UV-I 10 W/m 15,4 C 17,2 C 4,8 km/h (1 Bft) 97,92 %
31.07.2018 05:50 17,0 C 26,1 C 16,1 C 90 % 1014,3 hPa 0,0 l/m 2,2 km/h (1 Bft) S-SW 198 2 min 0,000 mm 0,0 UV-I 11 W/m 15,3 C 17,0 C 3,2 km/h (1 Bft) 100,00 %
31.07.2018 05:52 17,0 C 26,1 C 16,1 C 90 % 1014,3 hPa 0,0 l/m 2,4 km/h (1 Bft) S-SW 198 2 min 0,000 mm 0,0 UV-I 17 W/m 15,3 C 17,0 C 3,2 km/h (1 Bft) 100,00 %
31.07.2018 05:54 17,1 C 26,1 C 16,1 C 91 % 1014,3 hPa 0,0 l/m 3,5 km/h (1 Bft) S-SW 198 2 min 0,000 mm 0,0 UV-I 19 W/m 15,6 C 17,1 C 4,8 km/h (1 Bft) 95,74 %
31.07.2018 05:56 17,1 C 26,1 C 16,1 C 91 % 1014,4 hPa 0,0 l/m 3,5 km/h (1 Bft) S-SW 198 2 min 0,000 mm 0,0 UV-I 21 W/m 15,6 C 17,1 C 4,8 km/h (1 Bft) 97,87 %
31.07.2018 05:58 17,2 C 26,1 C 16,1 C 91 % 1014,4 hPa 0,0 l/m 2,6 km/h (1 Bft) S-SW 198 2 min 0,000 mm 0,0 UV-I 23 W/m 15,7 C 17,2 C 4,8 km/h (1 Bft) 100,00 %
31.07.2018 06:00 17,3 C 26,1 C 16,1 C 91 % 1014,4 hPa 0,0 l/m 2,1 km/h (1 Bft) S-SW 198 2 min 0,000 mm 0,0 UV-I 25 W/m 15,8 C 17,3 C 3,2 km/h (1 Bft) 100,00 %
31.07.2018 06:02 17,3 C 26,1 C 16,1 C 91 % 1014,5 hPa 0,0 l/m 0,6 km/h (0 Bft) S-SW 198 2 min 0,000 mm 0,0 UV-I 27 W/m 15,8 C 17,3 C 1,6 km/h (1 Bft) 97,87 %
31.07.2018 06:04 17,4 C 26,1 C 16,1 C 91 % 1014,4 hPa 0,0 l/m 2,7 km/h (1 Bft) S-SW 198 2 min 0,000 mm 0,0 UV-I 30 W/m 15,9 C 17,4 C 4,8 km/h (1 Bft) 97,87 %
31.07.2018 06:06 17,3 C 26,1 C 16,7 C 90 % 1014,5 hPa 0,0 l/m 2,7 km/h (1 Bft) S-SW 198 2 min 0,000 mm 0,0 UV-I 34 W/m 15,6 C 17,3 C 3,2 km/h (1 Bft) 100,00 %
31.07.2018 06:08 17,3 C 26,1 C 16,7 C 90 % 1014,5 hPa 0,0 l/m 3,4 km/h (1 Bft) S-SW 198 2 min 0,000 mm 0,0 UV-I 36 W/m 15,6 C 17,3 C 4,8 km/h (1 Bft) 100,00 %
31.07.2018 06:10 17,3 C 26,1 C 16,7 C 90 % 1014,5 hPa 0,0 l/m 4,2 km/h (1 Bft) S-SW 199 2 min 0,000 mm 0,0 UV-I 40 W/m 15,6 C 17,3 C 4,8 km/h (1 Bft) 97,37 %
31.07.2018 06:12 17,3 C 26,1 C 16,7 C 90 % 1014,5 hPa 0,0 l/m 3,4 km/h (1 Bft) SW 219 2 min 0,000 mm 0,0 UV-I 43 W/m 15,6 C 17,3 C 4,8 km/h (1 Bft) 100,00 %
31.07.2018 06:15 17,4 C 26,1 C 16,7 C 90 % 1014,6 hPa 0,0 l/m 1,6 km/h (1 Bft) SW 219 3 min 0,000 mm 0,0 UV-I 48 W/m 15,7 C 17,4 C 3,2 km/h (1 Bft) 98,65 %
31.07.2018 06:16 17,4 C 26,1 C 16,7 C 90 % 1014,6 hPa 0,0 l/m 2,8 km/h (1 Bft) SW 219 1 min 0,000 mm 0,0 UV-I 52 W/m 15,7 C 17,4 C 3,2 km/h (1 Bft) 100,00 %
31.07.2018 06:18 17,5 C 26,1 C 16,7 C 90 % 1014,5 hPa 0,0 l/m 2,9 km/h (1 Bft) SW 218 2 min 0,000 mm 0,0 UV-I 53 W/m 15,8 C 17,5 C 4,8 km/h (1 Bft) 97,87 %
31.07.2018 06:20 17,6 C 26,1 C 17,2 C 90 % 1014,5 hPa 0,0 l/m 2,0 km/h (1 Bft) SW 218 2 min 0,000 mm 0,0 UV-I 57 W/m 15,9 C 17,6 C 3,2 km/h (1 Bft) 97,87 %
31.07.2018 06:22 17,5 C 26,1 C 17,2 C 90 % 1014,5 hPa 0,0 l/m 0,1 km/h (0 Bft) SW 218 2 min 0,000 mm 0,0 UV-I 62 W/m 15,8 C 17,5 C 1,6 km/h (1 Bft) 97,87 %
31.07.2018 06:24 17,6 C 26,1 C 17,2 C 90 % 1014,5 hPa 0,0 l/m 0,0 km/h (0 Bft) SW 218 2 min 0,000 mm 0,0 UV-I 66 W/m 15,9 C 17,6 C 0,0 km/h (0 Bft) 97,92 %
31.07.2018 06:26 17,6 C 26,1 C 16,7 C 90 % 1014,5 hPa 0,0 l/m 0,0 km/h (0 Bft) SW 218 2 min 0,000 mm 0,0 UV-I 69 W/m 15,9 C 17,6 C 0,0 km/h (0 Bft) 94,00 %
31.07.2018 06:28 17,7 C 26,1 C 16,7 C 90 % 1014,5 hPa 0,0 l/m 0,9 km/h (0 Bft) SW 218 2 min 0,000 mm 0,0 UV-I 71 W/m 16,0 C 17,7 C 3,2 km/h (1 Bft) 100,00 %
31.07.2018 06:30 17,8 C 26,1 C 17,2 C 90 % 1014,5 hPa 0,0 l/m 1,9 km/h (1 Bft) SW 218 2 min 0,000 mm 0,0 UV-I 73 W/m 16,1 C 17,8 C 3,2 km/h (1 Bft) 93,62 %
31.07.2018 06:32 17,9 C 26,1 C 17,2 C 90 % 1014,5 hPa 0,0 l/m 1,3 km/h (1 Bft) SW 218 2 min 0,000 mm 0,0 UV-I 77 W/m 16,2 C 17,9 C 3,2 km/h (1 Bft) 91,49 %
31.07.2018 06:34 17,9 C 26,1 C 17,2 C 89 % 1014,5 hPa 0,0 l/m 0,9 km/h (0 Bft) SW 218 2 min 0,000 mm 0,0 UV-I 84 W/m 16,1 C 17,9 C 1,6 km/h (1 Bft) 93,62 %
31.07.2018 06:36 18,0 C 26,1 C 17,2 C 89 % 1014,5 hPa 0,0 l/m 0,6 km/h (0 Bft) SW 218 2 min 0,000 mm 0,0 UV-I 86 W/m 16,2 C 18,0 C 1,6 km/h (1 Bft) 95,74 %
31.07.2018 06:38 18,0 C 26,1 C 17,2 C 89 % 1014,5 hPa 0,0 l/m 1,1 km/h (1 Bft) SW 218 2 min 0,000 mm 0,0 UV-I 91 W/m 16,2 C 18,0 C 3,2 km/h (1 Bft) 95,74 %
31.07.2018 06:40 18,0 C 26,1 C 17,8 C 89 % 1014,5 hPa 0,0 l/m 1,9 km/h (1 Bft) SW 218 2 min 0,000 mm 0,0 UV-I 94 W/m 16,2 C 18,0 C 3,2 km/h (1 Bft) 94,00 %
31.07.2018 06:42 18,1 C 26,1 C 17,8 C 89 % 1014,5 hPa 0,0 l/m 1,8 km/h (1 Bft) SW 218 2 min 0,000 mm 0,0 UV-I 99 W/m 16,3 C 18,1 C 3,2 km/h (1 Bft) 96,00 %
31.07.2018 06:44 18,1 C 26,1 C 17,8 C 89 % 1014,5 hPa 0,0 l/m 1,7 km/h (1 Bft) SW 218 2 min 0,000 mm 0,0 UV-I 103 W/m 16,3 C 18,1 C 3,2 km/h (1 Bft) 94,74 %
31.07.2018 06:46 18,2 C 26,1 C 17,8 C 89 % 1014,5 hPa 0,0 l/m 1,7 km/h (1 Bft) SW 218 2 min 0,000 mm 0,0 UV-I 107 W/m 16,4 C 18,2 C 3,2 km/h (1 Bft) 96,00 %
31.07.2018 06:48 18,2 C 26,1 C 18,3 C 89 % 1014,5 hPa 0,0 l/m 1,3 km/h (1 Bft) SW 218 2 min 0,000 mm 0,0 UV-I 112 W/m 16,4 C 18,2 C 3,2 km/h (1 Bft) 97,87 %
31.07.2018 06:50 18,3 C 26,1 C 18,3 C 89 % 1014,5 hPa 0,0 l/m 1,4 km/h (1 Bft) SW 218 2 min 0,000 mm 0,0 UV-I 116 W/m 16,5 C 18,3 C 1,6 km/h (1 Bft) 95,74 %
31.07.2018 06:52 18,5 C 26,1 C 18,3 C 88 % 1014,6 hPa 0,0 l/m 1,4 km/h (1 Bft) SW 218 2 min 0,000 mm 0,0 UV-I 120 W/m 16,5 C 18,5 C 3,2 km/h (1 Bft) 97,87 %
31.07.2018 06:54 18,7 C 26,1 C 18,3 C 88 % 1014,5 hPa 0,0 l/m 2,2 km/h (1 Bft) SW 219 2 min 0,000 mm 0,0 UV-I 126 W/m 16,7 C 18,7 C 3,2 km/h (1 Bft) 97,87 %
31.07.2018 06:56 18,7 C 26,1 C 18,3 C 88 % 1014,5 hPa 0,0 l/m 2,6 km/h (1 Bft) SW 219 2 min 0,000 mm 0,0 UV-I 130 W/m 16,7 C 18,7 C 4,8 km/h (1 Bft) 98,08 %
31.07.2018 06:58 18,8 C 26,1 C 18,3 C 87 % 1014,5 hPa 0,0 l/m 3,9 km/h (1 Bft) SW 220 2 min 0,000 mm 0,0 UV-I 134 W/m 16,6 C 18,8 C 4,8 km/h (1 Bft) 97,87 %
31.07.2018 07:00 18,7 C 26,1 C 18,3 C 87 % 1014,5 hPa 0,0 l/m 3,2 km/h (1 Bft) SW 220 2 min 0,051 mm 0,0 UV-I 138 W/m 16,5 C 18,7 C 4,8 km/h (1 Bft) 93,62 %
31.07.2018 07:02 18,8 C 26,1 C 18,9 C 87 % 1014,5 hPa 0,0 l/m 2,9 km/h (1 Bft) SW 220 2 min 0,000 mm 0,0 UV-I 144 W/m 16,6 C 18,8 C 4,8 km/h (1 Bft) 93,62 %
31.07.2018 07:04 18,8 C 26,1 C 18,9 C 87 % 1014,5 hPa 0,0 l/m 4,3 km/h (1 Bft) SW 220 2 min 0,000 mm 0,0 UV-I 148 W/m 16,6 C 18,8 C 4,8 km/h (1 Bft) 95,74 %
31.07.2018 07:06 18,8 C 26,1 C 18,9 C 87 % 1014,5 hPa 0,0 l/m 4,1 km/h (1 Bft) SW 220 2 min 0,000 mm 0,0 UV-I 154 W/m 16,6 C 18,8 C 6,4 km/h (2 Bft) 95,83 %
31.07.2018 07:08 18,9 C 26,1 C 18,9 C 87 % 1014,5 hPa 0,0 l/m 4,6 km/h (1 Bft) SW 220 2 min 0,000 mm 0,0 UV-I 157 W/m 16,7 C 18,9 C 6,4 km/h (2 Bft) 92,11 %
31.07.2018 07:10 19,1 C 26,1 C 18,9 C 86 % 1014,5 hPa 0,0 l/m 3,8 km/h (1 Bft) SW 220 2 min 0,000 mm 0,0 UV-I 163 W/m 16,7 C 19,1 C 4,8 km/h (1 Bft) 97,87 %
31.07.2018 07:12 19,2 C 26,1 C 19,4 C 86 % 1014,5 hPa 0,0 l/m 3,8 km/h (1 Bft) SW 220 2 min 0,000 mm 0,0 UV-I 168 W/m 16,8 C 19,2 C 4,8 km/h (1 Bft) 97,87 %
31.07.2018 07:14 19,3 C 26,1 C 19,4 C 86 % 1014,6 hPa 0,0 l/m 2,9 km/h (1 Bft) SW 220 2 min 0,000 mm 0,0 UV-I 174 W/m 16,9 C 19,3 C 4,8 km/h (1 Bft) 100,00 %
31.07.2018 07:16 19,4 C 26,1 C 19,4 C 85 % 1014,6 hPa 0,0 l/m 2,2 km/h (1 Bft) SW 220 2 min 0,000 mm 0,0 UV-I 178 W/m 16,8 C 19,4 C 4,8 km/h (1 Bft) 100,00 %
31.07.2018 07:18 19,5 C 26,1 C 19,4 C 85 % 1014,6 hPa 0,0 l/m 1,6 km/h (1 Bft) SW 220 2 min 0,000 mm 0,0 UV-I 184 W/m 16,9 C 19,5 C 3,2 km/h (1 Bft) 95,74 %
31.07.2018 07:20 19,5 C 26,1 C 19,4 C 85 % 1014,6 hPa 0,0 l/m 1,7 km/h (1 Bft) SW 220 2 min 0,000 mm 0,0 UV-I 188 W/m 16,9 C 19,5 C 3,2 km/h (1 Bft) 100,00 %
31.07.2018 07:22 19,5 C 26,1 C 20,0 C 85 % 1014,6 hPa 0,0 l/m 2,1 km/h (1 Bft) SW 220 2 min 0,000 mm 0,0 UV-I 193 W/m 16,9 C 19,5 C 3,2 km/h (1 Bft) 100,00 %
31.07.2018 07:24 19,7 C 26,1 C 20,0 C 85 % 1014,6 hPa 0,0 l/m 2,3 km/h (1 Bft) SW 220 2 min 0,000 mm 0,0 UV-I 198 W/m 17,1 C 19,7 C 3,2 km/h (1 Bft) 95,74 %
31.07.2018 07:26 19,8 C 26,1 C 20,0 C 85 % 1014,6 hPa 0,0 l/m 3,5 km/h (1 Bft) SW 220 2 min 0,000 mm 0,0 UV-I 202 W/m 17,2 C 19,8 C 4,8 km/h (1 Bft) 95,74 %
31.07.2018 07:28 20,1 C 26,1 C 20,0 C 84 % 1014,6 hPa 0,0 l/m 3,1 km/h (1 Bft) SW 220 2 min 0,000 mm 0,0 UV-I 206 W/m 17,3 C 20,1 C 4,8 km/h (1 Bft) 97,87 %
31.07.2018 07:30 20,2 C 26,1 C 20,0 C 84 % 1014,6 hPa 0,0 l/m 2,0 km/h (1 Bft) SW 220 2 min 0,000 mm 0,2 UV-I 212 W/m 17,4 C 20,2 C 3,2 km/h (1 Bft) 94,00 %
31.07.2018 07:32 20,2 C 26,1 C 20,0 C 84 % 1014,7 hPa 0,0 l/m 1,1 km/h (1 Bft) SW 220 2 min 0,000 mm 0,5 UV-I 218 W/m 17,4 C 20,2 C 3,2 km/h (1 Bft) 95,74 %
31.07.2018 07:34 20,3 C 26,1 C 20,6 C 83 % 1014,7 hPa 0,0 l/m 1,7 km/h (1 Bft) SW 220 2 min 0,000 mm 0,5 UV-I 223 W/m 17,3 C 20,3 C 3,2 km/h (1 Bft) 93,62 %
31.07.2018 07:36 20,4 C 26,1 C 20,6 C 82 % 1014,7 hPa 0,0 l/m 0,4 km/h (0 Bft) SW 220 2 min 0,000 mm 0,5 UV-I 230 W/m 17,2 C 20,4 C 1,6 km/h (1 Bft) 97,87 %
31.07.2018 07:38 20,6 C 26,1 C 20,6 C 82 % 1014,8 hPa 0,0 l/m 0,6 km/h (0 Bft) SW 220 2 min 0,000 mm 0,5 UV-I 234 W/m 17,4 C 20,6 C 1,6 km/h (1 Bft) 95,74 %
31.07.2018 07:40 20,8 C 26,1 C 20,6 C 82 % 1014,7 hPa 0,0 l/m 1,5 km/h (1 Bft) SW 220 2 min 0,000 mm 0,5 UV-I 239 W/m 17,6 C 20,8 C 4,8 km/h (1 Bft) 98,00 %
31.07.2018 07:42 20,8 C 26,1 C 20,6 C 81 % 1014,7 hPa 0,0 l/m 3,0 km/h (1 Bft) SW 220 2 min 0,000 mm 0,6 UV-I 245 W/m 17,4 C 20,8 C 4,8 km/h (1 Bft) 95,74 %
31.07.2018 07:44 20,8 C 26,1 C 21,1 C 81 % 1014,7 hPa 0,0 l/m 3,0 km/h (1 Bft) SW 220 2 min 0,000 mm 0,6 UV-I 250 W/m 17,4 C 20,8 C 4,8 km/h (1 Bft) 91,67 %
31.07.2018 07:46 20,9 C 26,1 C 21,1 C 81 % 1014,8 hPa 0,0 l/m 1,7 km/h (1 Bft) SW 220 2 min 0,000 mm 0,6 UV-I 256 W/m 17,5 C 20,9 C 3,2 km/h (1 Bft) 93,62 %
31.07.2018 07:48 20,9 C 26,1 C 21,1 C 81 % 1014,8 hPa 0,0 l/m 1,7 km/h (1 Bft) SW 220 2 min 0,000 mm 0,6 UV-I 261 W/m 17,5 C 20,9 C 3,2 km/h (1 Bft) 95,74 %
31.07.2018 07:50 20,9 C 26,1 C 21,1 C 81 % 1014,8 hPa 0,0 l/m 1,8 km/h (1 Bft) SW 220 2 min 0,000 mm 0,6 UV-I 266 W/m 17,5 C 20,9 C 3,2 km/h (1 Bft) 95,74 %
31.07.2018 07:52 21,1 C 26,1 C 21,1 C 80 % 1014,8 hPa 0,0 l/m 1,3 km/h (1 Bft) SW 220 2 min 0,000 mm 0,7 UV-I 271 W/m 17,5 C 21,1 C 3,2 km/h (1 Bft) 95,74 %
31.07.2018 07:54 21,2 C 26,1 C 21,1 C 80 % 1014,9 hPa 0,0 l/m 0,8 km/h (0 Bft) SW 220 2 min 0,000 mm 0,7 UV-I 276 W/m 17,6 C 21,2 C 1,6 km/h (1 Bft) 95,74 %
31.07.2018 07:56 21,2 C 26,1 C 21,1 C 80 % 1014,9 hPa 0,0 l/m 0,9 km/h (0 Bft) SW 220 2 min 0,000 mm 0,7 UV-I 282 W/m 17,6 C 21,2 C 3,2 km/h (1 Bft) 91,43 %
31.07.2018 07:58 21,3 C 26,1 C 21,7 C 80 % 1014,9 hPa 0,0 l/m 1,4 km/h (1 Bft) SW 220 2 min 0,000 mm 0,7 UV-I 288 W/m 17,7 C 21,3 C 3,2 km/h (1 Bft) 93,62 %
31.07.2018 08:00 21,5 C 26,1 C 21,7 C 80 % 1014,9 hPa 0,0 l/m 1,4 km/h (1 Bft) SW 219 2 min 0,127 mm 0,8 UV-I 293 W/m 17,9 C 21,5 C 3,2 km/h (1 Bft) 94,00 %
31.07.2018 08:02 21,6 C 26,1 C 21,7 C 79 % 1014,9 hPa 0,0 l/m 2,3 km/h (1 Bft) SW 230 2 min 0,000 mm 0,8 UV-I 299 W/m 17,8 C 21,6 C 3,2 km/h (1 Bft) 92,00 %
31.07.2018 08:04 21,7 C 26,1 C 21,7 C 79 % 1014,9 hPa 0,0 l/m 0,6 km/h (0 Bft) SW 230 2 min 0,000 mm 0,8 UV-I 305 W/m 17,9 C 21,7 C 3,2 km/h (1 Bft) 95,74 %
31.07.2018 08:06 21,6 C 26,1 C 21,7 C 78 % 1014,9 hPa 0,0 l/m 0,8 km/h (0 Bft) SW 231 2 min 0,000 mm 0,8 UV-I 309 W/m 17,6 C 21,6 C 1,6 km/h (1 Bft) 97,87 %
31.07.2018 08:08 21,7 C 26,1 C 21,7 C 79 % 1014,9 hPa 0,0 l/m 1,5 km/h (1 Bft) SW 231 2 min 0,000 mm 0,9 UV-I 315 W/m 17,9 C 21,7 C 3,2 km/h (1 Bft) 93,62 %
31.07.2018 08:10 21,7 C 26,1 C 22,2 C 79 % 1014,9 hPa 0,0 l/m 1,9 km/h (1 Bft) SW 231 2 min 0,000 mm 0,9 UV-I 322 W/m 17,9 C 21,7 C 3,2 km/h (1 Bft) 98,00 %
31.07.2018 08:12 21,7 C 26,1 C 22,2 C 79 % 1014,9 hPa 0,0 l/m 2,6 km/h (1 Bft) W-SW 241 2 min 0,000 mm 0,9 UV-I 329 W/m 17,9 C 21,7 C 4,8 km/h (1 Bft) 95,74 %
31.07.2018 08:14 21,6 C 26,1 C 22,2 C 78 % 1014,9 hPa 0,0 l/m 2,0 km/h (1 Bft) W-SW 241 2 min 0,000 mm 1,0 UV-I 336 W/m 17,6 C 21,6 C 3,2 km/h (1 Bft) 95,12 %
31.07.2018 08:16 21,7 C 26,1 C 22,2 C 79 % 1014,9 hPa 0,0 l/m 0,7 km/h (0 Bft) W-SW 241 2 min 0,000 mm 1,0 UV-I 340 W/m 17,9 C 21,7 C 1,6 km/h (1 Bft) 95,74 %
31.07.2018 08:18 21,7 C 26,1 C 22,2 C 78 % 1014,9 hPa 0,0 l/m 0,3 km/h (0 Bft) W-SW 241 2 min 0,000 mm 1,0 UV-I 345 W/m 17,7 C 21,7 C 1,6 km/h (1 Bft) 95,83 %
31.07.2018 08:20 21,7 C 26,1 C 22,2 C 78 % 1014,9 hPa 0,0 l/m 0,9 km/h (0 Bft) W-SW 241 2 min 0,000 mm 1,0 UV-I 350 W/m 17,7 C 21,7 C 1,6 km/h (1 Bft) 97,87 %
31.07.2018 08:22 21,7 C 26,1 C 22,2 C 78 % 1014,9 hPa 0,0 l/m 0,3 km/h (0 Bft) W-SW 241 2 min 0,000 mm 1,1 UV-I 356 W/m 17,7 C 21,7 C 1,6 km/h (1 Bft) 95,74 %
31.07.2018 08:24 21,8 C 26,1 C 22,2 C 78 % 1014,8 hPa 0,0 l/m 1,4 km/h (1 Bft) W-SW 250 2 min 0,000 mm 1,1 UV-I 362 W/m 17,8 C 21,8 C 3,2 km/h (1 Bft) 95,74 %
31.07.2018 08:26 22,2 C 26,1 C 22,8 C 79 % 1014,9 hPa 0,0 l/m 3,8 km/h (1 Bft) N-NO 15 2 min 0,000 mm 1,1 UV-I 367 W/m 18,4 C 22,2 C 4,8 km/h (1 Bft) 97,87 %
31.07.2018 08:28 22,4 C 26,1 C 22,8 C 77 % 1014,9 hPa 0,0 l/m 2,5 km/h (1 Bft) N-NO 20 2 min 0,000 mm 1,1 UV-I 374 W/m 18,2 C 22,4 C 4,8 km/h (1 Bft) 96,00 %
31.07.2018 08:30 22,7 C 26,1 C 22,8 C 78 % 1014,8 hPa 0,0 l/m 2,9 km/h (1 Bft) O-NO 64 2 min 0,000 mm 1,2 UV-I 379 W/m 18,7 C 22,7 C 4,8 km/h (1 Bft) 100,00 %
31.07.2018 08:32 22,7 C 26,1 C 23,3 C 76 % 1014,8 hPa 0,0 l/m 2,5 km/h (1 Bft) O-NO 57 2 min 0,000 mm 1,2 UV-I 386 W/m 18,2 C 22,7 C 4,8 km/h (1 Bft) 100,00 %
31.07.2018 08:34 22,7 C 26,1 C 23,3 C 75 % 1014,8 hPa 0,0 l/m 0,5 km/h (0 Bft) NO 51 2 min 0,000 mm 1,3 UV-I 391 W/m 18,0 C 22,7 C 3,2 km/h (1 Bft) 95,74 %
31.07.2018 08:36 22,6 C 26,1 C 23,9 C 76 % 1014,9 hPa 0,0 l/m 1,5 km/h (1 Bft) NO 51 2 min 0,000 mm 1,3 UV-I 397 W/m 18,1 C 22,6 C 3,2 km/h (1 Bft) 97,87 %
31.07.2018 08:38 22,5 C 26,1 C 25,0 C 76 % 1014,9 hPa 0,0 l/m 2,1 km/h (1 Bft) NO 51 2 min 0,000 mm 1,3 UV-I 402 W/m 18,0 C 22,5 C 3,2 km/h (1 Bft) 100,00 %
31.07.2018 08:40 22,6 C 26,1 C 26,1 C 77 % 1014,9 hPa 0,0 l/m 2,8 km/h (1 Bft) NO 36 2 min 0,000 mm 1,3 UV-I 408 W/m 18,4 C 22,6 C 4,8 km/h (1 Bft) 98,00 %
31.07.2018 08:42 22,7 C 26,1 C 26,1 C 77 % 1014,9 hPa 0,0 l/m 3,5 km/h (1 Bft) NO 36 2 min 0,000 mm 1,4 UV-I 413 W/m 18,5 C 22,7 C 4,8 km/h (1 Bft) 95,74 %
31.07.2018 08:44 22,9 C 26,1 C 26,7 C 75 % 1014,9 hPa 0,0 l/m 2,8 km/h (1 Bft) NO 37 2 min 0,000 mm 1,4 UV-I 417 W/m 18,2 C 22,9 C 4,8 km/h (1 Bft) 98,00 %
31.07.2018 08:46 23,1 C 26,1 C 27,8 C 74 % 1014,9 hPa 0,0 l/m 0,8 km/h (0 Bft) NO 38 2 min 0,000 mm 1,4 UV-I 423 W/m 18,2 C 23,1 C 4,8 km/h (1 Bft) 97,87 %
31.07.2018 08:48 23,3 C 26,1 C 28,9 C 75 % 1015,0 hPa 0,0 l/m 4,4 km/h (1 Bft) NO 53 2 min 0,000 mm 1,5 UV-I 429 W/m 18,6 C 23,3 C 6,4 km/h (2 Bft) 91,49 %
31.07.2018 08:50 23,4 C 26,1 C 28,9 C 74 % 1015,0 hPa 0,0 l/m 2,8 km/h (1 Bft) NO 53 2 min 0,000 mm 1,5 UV-I 434 W/m 18,5 C 23,4 C 4,8 km/h (1 Bft) 97,87 %
31.07.2018 08:52 23,4 C 26,1 C 30,0 C 72 % 1015,0 hPa 0,0 l/m 2,0 km/h (1 Bft) NO 53 2 min 0,000 mm 1,5 UV-I 439 W/m 18,1 C 23,4 C 3,2 km/h (1 Bft) 97,22 %
31.07.2018 08:54 23,4 C 26,1 C 30,0 C 73 % 1015,0 hPa 0,0 l/m 3,8 km/h (1 Bft) NO 37 2 min 0,000 mm 1,6 UV-I 444 W/m 18,3 C 23,4 C 4,8 km/h (1 Bft) 95,74 %
31.07.2018 08:56 23,4 C 26,1 C 30,6 C 74 % 1015,0 hPa 0,0 l/m 2,0 km/h (1 Bft) NO 55 2 min 0,000 mm 1,6 UV-I 448 W/m 18,5 C 23,4 C 4,8 km/h (1 Bft) 97,87 %
31.07.2018 08:58 23,5 C 26,1 C 31,1 C 73 % 1015,0 hPa 0,0 l/m 4,1 km/h (1 Bft) N-NW 333 2 min 0,000 mm 1,7 UV-I 452 W/m 18,4 C 23,5 C 6,4 km/h (2 Bft) 98,00 %
31.07.2018 09:00 23,5 C 26,1 C 31,1 C 72 % 1015,0 hPa 0,0 l/m 3,9 km/h (1 Bft) N-NW 330 2 min 0,229 mm 1,7 UV-I 459 W/m 18,2 C 23,5 C 4,8 km/h (1 Bft) 97,87 %
31.07.2018 09:02 23,5 C 26,1 C 31,7 C 73 % 1015,0 hPa 0,0 l/m 3,1 km/h (1 Bft) N-NW 330 2 min 0,000 mm 1,7 UV-I 462 W/m 18,4 C 23,5 C 4,8 km/h (1 Bft) 98,00 %
31.07.2018 09:04 23,4 C 26,1 C 31,1 C 71 % 1014,9 hPa 0,0 l/m 3,2 km/h (1 Bft) N-NW 333 2 min 0,000 mm 1,8 UV-I 469 W/m 17,8 C 23,4 C 4,8 km/h (1 Bft) 97,87 %
31.07.2018 09:06 23,6 C 26,1 C 31,7 C 72 % 1014,9 hPa 0,0 l/m 2,7 km/h (1 Bft) N-NW 334 2 min 0,000 mm 1,8 UV-I 475 W/m 18,2 C 23,6 C 4,8 km/h (1 Bft) 100,00 %
31.07.2018 09:08 23,7 C 26,1 C 32,8 C 71 % 1014,9 hPa 0,0 l/m 2,7 km/h (1 Bft) N-NW 333 2 min 0,000 mm 1,9 UV-I 479 W/m 18,1 C 23,7 C 4,8 km/h (1 Bft) 100,00 %
31.07.2018 09:10 23,8 C 26,1 C 32,8 C 70 % 1014,9 hPa 0,0 l/m 2,7 km/h (1 Bft) N-NW 333 2 min 0,000 mm 1,9 UV-I 484 W/m 18,0 C 23,8 C 3,2 km/h (1 Bft) 100,00 %
31.07.2018 09:12 23,8 C 26,1 C 32,8 C 69 % 1014,9 hPa 0,0 l/m 1,1 km/h (1 Bft) N-NW 333 2 min 0,000 mm 1,9 UV-I 489 W/m 17,8 C 23,8 C 3,2 km/h (1 Bft) 100,00 %
31.07.2018 09:14 24,0 C 26,1 C 33,3 C 70 % 1014,9 hPa 0,0 l/m 2,9 km/h (1 Bft) N-NW 335 2 min 0,000 mm 2,0 UV-I 494 W/m 18,2 C 24,0 C 4,8 km/h (1 Bft) 98,00 %
31.07.2018 09:16 24,2 C 26,1 C 33,3 C 69 % 1014,9 hPa 0,0 l/m 4,1 km/h (1 Bft) NO 40 2 min 0,000 mm 2,0 UV-I 498 W/m 18,1 C 24,2 C 6,4 km/h (2 Bft) 95,74 %
31.07.2018 09:18 24,4 C 26,1 C 33,9 C 68 % 1014,9 hPa 0,0 l/m 4,3 km/h (1 Bft) N-NO 17 2 min 0,000 mm 2,1 UV-I 503 W/m 18,1 C 24,4 C 6,4 km/h (2 Bft) 97,14 %
31.07.2018 09:20 24,6 C 26,1 C 33,9 C 69 % 1014,9 hPa 0,0 l/m 4,4 km/h (1 Bft) NO 43 2 min 0,000 mm 2,1 UV-I 507 W/m 18,5 C 24,6 C 6,4 km/h (2 Bft) 96,00 %
31.07.2018 09:22 24,6 C 26,1 C 33,9 C 68 % 1014,9 hPa 0,0 l/m 2,4 km/h (1 Bft) O-NO 69 2 min 0,000 mm 2,1 UV-I 514 W/m 18,3 C 24,6 C 4,8 km/h (1 Bft) 97,87 %
31.07.2018 09:24 24,6 C 26,1 C 34,4 C 68 % 1014,9 hPa 0,0 l/m 1,0 km/h (0 Bft) O-NO 69 2 min 0,000 mm 2,2 UV-I 518 W/m 18,3 C 24,6 C 1,6 km/h (1 Bft) 97,87 %
31.07.2018 09:26 24,6 C 26,1 C 35,0 C 69 % 1015,0 hPa 0,0 l/m 3,6 km/h (1 Bft) N-NO 26 2 min 0,000 mm 2,2 UV-I 523 W/m 18,5 C 24,6 C 6,4 km/h (2 Bft) 97,87 %
31.07.2018 09:28 24,8 C 26,1 C 35,0 C 68 % 1014,9 hPa 0,0 l/m 5,1 km/h (1 Bft) O 82 2 min 0,000 mm 2,3 UV-I 530 W/m 18,5 C 24,8 C 6,4 km/h (2 Bft) 98,00 %
31.07.2018 09:30 24,9 C 26,1 C 35,0 C 66 % 1014,9 hPa 0,0 l/m 3,7 km/h (1 Bft) O-NO 65 2 min 0,000 mm 2,3 UV-I 533 W/m 18,1 C 24,9 C 6,4 km/h (2 Bft) 97,87 %
31.07.2018 09:32 24,9 C 26,1 C 35,0 C 65 % 1014,9 hPa 0,0 l/m 3,6 km/h (1 Bft) O 94 2 min 0,000 mm 2,3 UV-I 539 W/m 17,9 C 24,9 C 6,4 km/h (2 Bft) 96,00 %
31.07.2018 09:34 24,9 C 26,1 C 35,6 C 65 % 1014,9 hPa 0,0 l/m 1,4 km/h (1 Bft) O 94 2 min 0,000 mm 2,4 UV-I 543 W/m 17,9 C 24,9 C 3,2 km/h (1 Bft) 95,74 %
31.07.2018 09:36 25,1 C 26,1 C 36,1 C 69 % 1014,9 hPa 0,0 l/m 5,2 km/h (1 Bft) N-NO 15 2 min 0,000 mm 2,4 UV-I 546 W/m 19,0 C 25,1 C 8,0 km/h (2 Bft) 97,92 %
31.07.2018 09:38 25,3 C 26,1 C 36,1 C 68 % 1014,8 hPa 0,0 l/m 5,7 km/h (1 Bft) N-NO 26 2 min 0,000 mm 2,5 UV-I 550 W/m 19,0 C 25,3 C 8,0 km/h (2 Bft) 97,87 %
31.07.2018 09:40 25,4 C 26,1 C 35,6 C 67 % 1014,8 hPa 0,0 l/m 5,8 km/h (2 Bft) N-NO 21 2 min 0,000 mm 2,5 UV-I 556 W/m 18,8 C 25,4 C 9,7 km/h (2 Bft) 95,74 %
31.07.2018 09:42 25,3 C 26,1 C 35,6 C 64 % 1014,8 hPa 0,0 l/m 1,5 km/h (1 Bft) N-NO 20 2 min 0,000 mm 2,6 UV-I 560 W/m 18,0 C 25,3 C 3,2 km/h (1 Bft) 100,00 %
31.07.2018 09:44 25,3 C 26,1 C 36,1 C 67 % 1014,8 hPa 0,0 l/m 3,4 km/h (1 Bft) NO 46 2 min 0,000 mm 2,6 UV-I 567 W/m 18,7 C 25,3 C 4,8 km/h (1 Bft) 97,87 %
31.07.2018 09:46 25,3 C 26,1 C 36,1 C 67 % 1014,8 hPa 0,0 l/m 3,0 km/h (1 Bft) NO 49 2 min 0,000 mm 2,7 UV-I 572 W/m 18,7 C 25,3 C 4,8 km/h (1 Bft) 95,74 %
31.07.2018 09:48 25,3 C 26,1 C 36,1 C 65 % 1014,8 hPa 0,0 l/m 2,6 km/h (1 Bft) O-NO 61 2 min 0,000 mm 2,7 UV-I 577 W/m 18,2 C 25,3 C 4,8 km/h (1 Bft) 97,87 %
31.07.2018 09:50 25,4 C 26,1 C 36,7 C 63 % 1014,8 hPa 0,0 l/m 3,7 km/h (1 Bft) O 79 2 min 0,000 mm 2,8 UV-I 583 W/m 17,8 C 25,4 C 4,8 km/h (1 Bft) 100,00 %
31.07.2018 09:52 25,4 C 26,1 C 37,2 C 63 % 1014,7 hPa 0,0 l/m 2,8 km/h (1 Bft) O-NO 62 2 min 0,000 mm 2,8 UV-I 590 W/m 17,8 C 25,4 C 4,8 km/h (1 Bft) 97,87 %
31.07.2018 09:54 25,6 C 26,1 C 37,2 C 62 % 1014,7 hPa 0,0 l/m 2,6 km/h (1 Bft) NO 52 2 min 0,000 mm 2,9 UV-I 592 W/m 17,8 C 25,6 C 4,8 km/h (1 Bft) 100,00 %
31.07.2018 09:56 25,6 C 26,1 C 37,2 C 61 % 1014,7 hPa 0,0 l/m 3,6 km/h (1 Bft) O-NO 63 2 min 0,000 mm 2,9 UV-I 598 W/m 17,5 C 25,6 C 6,4 km/h (2 Bft) 100,00 %
31.07.2018 09:58 25,7 C 26,1 C 37,2 C 62 % 1014,8 hPa 0,0 l/m 2,2 km/h (1 Bft) O-SO 113 2 min 0,000 mm 3,0 UV-I 603 W/m 17,9 C 25,7 C 4,8 km/h (1 Bft) 100,00 %
31.07.2018 10:00 25,8 C 26,1 C 38,3 C 62 % 1014,8 hPa 0,0 l/m 4,8 km/h (1 Bft) O 79 2 min 0,355 mm 3,0 UV-I 606 W/m 18,0 C 25,8 C 8,0 km/h (2 Bft) 97,87 %
31.07.2018 10:02 26,1 C 26,1 C 37,8 C 60 % 1014,8 hPa 0,0 l/m 4,7 km/h (1 Bft) O 97 2 min 0,000 mm 3,0 UV-I 609 W/m 17,7 C 26,1 C 6,4 km/h (2 Bft) 97,87 %
31.07.2018 10:04 26,0 C 26,1 C 37,8 C 60 % 1014,8 hPa 0,0 l/m 4,2 km/h (1 Bft) O-NO 70 2 min 0,000 mm 3,1 UV-I 614 W/m 17,6 C 26,0 C 9,7 km/h (2 Bft) 100,00 %
31.07.2018 10:06 26,1 C 26,1 C 38,3 C 62 % 1014,8 hPa 0,0 l/m 4,8 km/h (1 Bft) O-SO 110 2 min 0,000 mm 3,1 UV-I 616 W/m 18,2 C 26,1 C 9,7 km/h (2 Bft) 100,00 %
31.07.2018 10:08 26,3 C 26,1 C 38,3 C 62 % 1014,8 hPa 0,0 l/m 5,7 km/h (1 Bft) N-NO 33 2 min 0,000 mm 3,1 UV-I 624 W/m 18,4 C 26,3 C 8,0 km/h (2 Bft) 100,00 %
31.07.2018 10:10 26,5 C 26,1 C 38,9 C 63 % 1014,9 hPa 0,0 l/m 4,7 km/h (1 Bft) O 100 2 min 0,000 mm 3,2 UV-I 628 W/m 18,9 C 26,5 C 9,7 km/h (2 Bft) 95,74 %
31.07.2018 10:12 26,5 C 26,1 C 38,3 C 61 % 1014,9 hPa 0,0 l/m 4,7 km/h (1 Bft) SO 136 2 min 0,000 mm 3,2 UV-I 630 W/m 18,4 C 26,5 C 6,4 km/h (2 Bft) 100,00 %
31.07.2018 10:14 26,5 C 26,1 C 38,3 C 63 % 1014,9 hPa 0,0 l/m 6,1 km/h (2 Bft) NO 49 2 min 0,000 mm 3,3 UV-I 635 W/m 18,9 C 26,5 C 11,3 km/h (2 Bft) 95,74 %
31.07.2018 10:16 26,7 C 26,1 C 38,3 C 59 % 1014,9 hPa 0,0 l/m 5,0 km/h (1 Bft) O-NO 72 2 min 0,000 mm 3,3 UV-I 637 W/m 18,0 C 26,7 C 8,0 km/h (2 Bft) 97,87 %
31.07.2018 10:18 26,7 C 26,1 C 38,3 C 61 % 1014,9 hPa 0,0 l/m 2,1 km/h (1 Bft) O-SO 123 2 min 0,000 mm 3,4 UV-I 641 W/m 18,5 C 26,7 C 6,4 km/h (2 Bft) 97,87 %
31.07.2018 10:20 26,8 C 26,1 C 39,4 C 62 % 1014,9 hPa 0,0 l/m 5,3 km/h (1 Bft) O-NO 57 2 min 0,000 mm 3,4 UV-I 646 W/m 18,9 C 26,8 C 11,3 km/h (2 Bft) 100,00 %
31.07.2018 10:22 27,0 C 26,1 C 38,9 C 59 % 1014,9 hPa 0,0 l/m 5,6 km/h (1 Bft) O-NO 63 2 min 0,000 mm 3,4 UV-I 648 W/m 18,3 C 27,0 C 8,0 km/h (2 Bft) 97,87 %
31.07.2018 10:24 26,9 C 26,1 C 37,8 C 59 % 1014,9 hPa 0,0 l/m 7,0 km/h (2 Bft) NO 49 2 min 0,000 mm 3,5 UV-I 654 W/m 18,2 C 26,8 C 14,5 km/h (3 Bft) 100,00 %
31.07.2018 10:26 26,8 C 26,1 C 36,7 C 58 % 1014,9 hPa 0,0 l/m 6,2 km/h (2 Bft) O 82 2 min 0,000 mm 3,6 UV-I 659 W/m 17,8 C 26,8 C 11,3 km/h (2 Bft) 100,00 %
31.07.2018 10:28 26,8 C 26,1 C 36,7 C 58 % 1015,0 hPa 0,0 l/m 7,3 km/h (2 Bft) O-SO 104 2 min 0,000 mm 3,6 UV-I 663 W/m 17,8 C 26,6 C 12,9 km/h (3 Bft) 100,00 %
31.07.2018 10:30 26,8 C 26,1 C 37,2 C 57 % 1015,0 hPa 0,0 l/m 2,9 km/h (1 Bft) O 98 2 min 0,000 mm 3,6 UV-I 667 W/m 17,6 C 26,8 C 4,8 km/h (1 Bft) 100,00 %
31.07.2018 10:32 26,8 C 26,1 C 37,8 C 57 % 1015,0 hPa 0,0 l/m 4,1 km/h (1 Bft) O 82 2 min 0,000 mm 3,7 UV-I 669 W/m 17,6 C 26,8 C 8,0 km/h (2 Bft) 97,87 %
31.07.2018 10:34 26,9 C 26,1 C 38,3 C 58 % 1015,0 hPa 0,0 l/m 8,1 km/h (2 Bft) O-NO 72 2 min 0,000 mm 3,7 UV-I 676 W/m 17,9 C 26,6 C 12,9 km/h (3 Bft) 95,74 %
31.07.2018 10:36 26,9 C 26,1 C 38,9 C 58 % 1015,0 hPa 0,0 l/m 6,5 km/h (2 Bft) O-SO 117 2 min 0,000 mm 3,8 UV-I 680 W/m 17,9 C 26,9 C 9,7 km/h (2 Bft) 97,87 %
31.07.2018 10:38 27,1 C 26,1 C 38,9 C 57 % 1015,0 hPa 0,0 l/m 6,5 km/h (2 Bft) O-SO 110 2 min 0,000 mm 3,9 UV-I 684 W/m 17,8 C 27,1 C 11,3 km/h (2 Bft) 98,00 %
31.07.2018 10:40 27,1 C 26,1 C 38,9 C 57 % 1015,0 hPa 0,0 l/m 7,8 km/h (2 Bft) O 85 2 min 0,000 mm 3,9 UV-I 687 W/m 17,8 C 26,8 C 11,3 km/h (2 Bft) 97,37 %
31.07.2018 10:42 27,2 C 26,1 C 38,9 C 58 % 1015,0 hPa 0,0 l/m 7,4 km/h (2 Bft) O 95 2 min 0,000 mm 3,9 UV-I 691 W/m 18,2 C 27,0 C 12,9 km/h (3 Bft) 95,74 %
31.07.2018 10:44 27,1 C 26,1 C 38,9 C 56 % 1015,0 hPa 0,0 l/m 4,8 km/h (1 Bft) O-SO 105 2 min 0,000 mm 4,0 UV-I 694 W/m 17,5 C 27,1 C 11,3 km/h (2 Bft) 97,87 %
31.07.2018 10:46 27,2 C 26,1 C 38,9 C 57 % 1015,0 hPa 0,0 l/m 8,1 km/h (2 Bft) O-SO 109 2 min 0,000 mm 4,0 UV-I 698 W/m 17,9 C 26,9 C 12,9 km/h (3 Bft) 97,92 %
31.07.2018 10:48 27,2 C 26,1 C 39,4 C 57 % 1015,1 hPa 0,0 l/m 7,1 km/h (2 Bft) O 90 2 min 0,000 mm 4,0 UV-I 700 W/m 17,9 C 27,1 C 11,3 km/h (2 Bft) 97,87 %
31.07.2018 10:50 27,2 C 26,1 C 40,0 C 58 % 1015,1 hPa 0,0 l/m 8,5 km/h (2 Bft) O 79 2 min 0,000 mm 3,8 UV-I 704 W/m 18,2 C 26,8 C 14,5 km/h (3 Bft) 94,00 %
31.07.2018 10:52 27,4 C 26,1 C 40,0 C 58 % 1015,1 hPa 0,0 l/m 6,0 km/h (2 Bft) SO 132 2 min 0,000 mm 4,0 UV-I 707 W/m 18,4 C 27,4 C 9,7 km/h (2 Bft) 95,74 %
31.07.2018 10:54 27,3 C 26,1 C 40,6 C 57 % 1015,1 hPa 0,0 l/m 4,1 km/h (1 Bft) O-SO 107 2 min 0,000 mm 4,1 UV-I 709 W/m 18,0 C 27,3 C 9,7 km/h (2 Bft) 98,00 %
31.07.2018 10:56 27,3 C 26,1 C 40,6 C 59 % 1015,1 hPa 0,0 l/m 3,6 km/h (1 Bft) O 96 2 min 0,000 mm 4,2 UV-I 712 W/m 18,6 C 27,3 C 4,8 km/h (1 Bft) 94,29 %
31.07.2018 10:58 27,6 C 26,1 C 40,6 C 60 % 1015,1 hPa 0,0 l/m 7,6 km/h (2 Bft) O-NO 74 2 min 0,000 mm 4,2 UV-I 715 W/m 19,1 C 27,4 C 11,3 km/h (2 Bft) 96,23 %
31.07.2018 11:00 27,8 C 26,1 C 40,0 C 55 % 1015,1 hPa 0,0 l/m 9,2 km/h (2 Bft) O-NO 69 2 min 0,458 mm 3,8 UV-I 716 W/m 17,9 C 27,4 C 14,5 km/h (3 Bft) 95,74 %
31.07.2018 11:02 27,7 C 26,1 C 40,0 C 56 % 1015,1 hPa 0,0 l/m 9,6 km/h (2 Bft) O-NO 70 2 min 0,000 mm 4,3 UV-I 721 W/m 18,1 C 27,2 C 14,5 km/h (3 Bft) 95,74 %
31.07.2018 11:04 27,7 C 26,1 C 39,4 C 57 % 1015,0 hPa 0,0 l/m 5,0 km/h (1 Bft) O 101 2 min 0,000 mm 4,3 UV-I 723 W/m 18,4 C 27,7 C 8,0 km/h (2 Bft) 95,74 %
31.07.2018 11:06 27,7 C 26,1 C 40,6 C 55 % 1015,0 hPa 0,0 l/m 3,6 km/h (1 Bft) O-SO 115 2 min 0,000 mm 4,4 UV-I 726 W/m 17,8 C 27,7 C 9,7 km/h (2 Bft) 94,00 %
31.07.2018 11:08 27,6 C 26,1 C 40,6 C 55 % 1015,0 hPa 0,0 l/m 4,5 km/h (1 Bft) O 101 2 min 0,000 mm 4,0 UV-I 731 W/m 17,7 C 27,6 C 11,3 km/h (2 Bft) 97,87 %
31.07.2018 11:10 27,5 C 26,1 C 40,6 C 56 % 1015,0 hPa 0,0 l/m 5,2 km/h (1 Bft) O-SO 122 2 min 0,000 mm 4,5 UV-I 735 W/m 17,9 C 27,5 C 11,3 km/h (2 Bft) 97,87 %
31.07.2018 11:12 27,6 C 26,1 C 40,6 C 56 % 1014,9 hPa 0,0 l/m 4,6 km/h (1 Bft) O-SO 121 2 min 0,000 mm 4,6 UV-I 740 W/m 18,0 C 27,6 C 8,0 km/h (2 Bft) 95,74 %
31.07.2018 11:14 27,8 C 26,1 C 40,6 C 57 % 1014,9 hPa 0,0 l/m 7,4 km/h (2 Bft) O-SO 104 2 min 0,000 mm 4,6 UV-I 742 W/m 18,5 C 27,6 C 11,3 km/h (2 Bft) 97,87 %
31.07.2018 11:16 27,9 C 26,7 C 39,4 C 57 % 1014,9 hPa 0,0 l/m 10,9 km/h (2 Bft) O-NO 69 2 min 0,000 mm 4,6 UV-I 744 W/m 18,6 C 27,3 C 14,5 km/h (3 Bft) 95,74 %
31.07.2018 11:18 27,9 C 26,7 C 38,9 C 55 % 1014,9 hPa 0,0 l/m 5,6 km/h (1 Bft) O-NO 65 2 min 0,000 mm 4,7 UV-I 747 W/m 18,0 C 27,9 C 9,7 km/h (2 Bft) 95,74 %
31.07.2018 11:20 28,0 C 26,7 C 39,4 C 57 % 1014,9 hPa 0,0 l/m 9,7 km/h (2 Bft) O 94 2 min 0,000 mm 4,7 UV-I 732 W/m 18,7 C 27,5 C 16,1 km/h (3 Bft) 94,74 %
31.07.2018 11:22 28,2 C 26,7 C 40,0 C 55 % 1015,0 hPa 0,0 l/m 9,1 km/h (2 Bft) O 96 2 min 0,000 mm 4,5 UV-I 718 W/m 18,3 C 27,8 C 12,9 km/h (3 Bft) 95,74 %
31.07.2018 11:24 28,2 C 26,7 C 40,0 C 54 % 1015,0 hPa 0,0 l/m 8,2 km/h (2 Bft) O 92 2 min 0,000 mm 4,6 UV-I 753 W/m 18,0 C 27,9 C 16,1 km/h (3 Bft) 97,92 %
31.07.2018 11:26 28,1 C 26,7 C 40,0 C 53 % 1015,0 hPa 0,0 l/m 5,0 km/h (1 Bft) O 96 2 min 0,000 mm 4,8 UV-I 758 W/m 17,6 C 28,1 C 11,3 km/h (2 Bft) 95,74 %
31.07.2018 11:28 28,2 C 26,7 C 40,6 C 53 % 1015,0 hPa 0,0 l/m 4,6 km/h (1 Bft) SO 146 2 min 0,000 mm 4,9 UV-I 759 W/m 17,7 C 28,2 C 6,4 km/h (2 Bft) 100,00 %
31.07.2018 11:30 28,2 C 26,7 C 41,1 C 55 % 1014,9 hPa 0,0 l/m 2,2 km/h (1 Bft) O-SO 117 2 min 0,000 mm 4,9 UV-I 761 W/m 18,3 C 28,2 C 6,4 km/h (2 Bft) 100,00 %
31.07.2018 11:32 28,2 C 26,7 C 41,7 C 54 % 1014,9 hPa 0,0 l/m 5,2 km/h (1 Bft) S-SO 166 2 min 0,000 mm 4,9 UV-I 763 W/m 18,0 C 28,2 C 9,7 km/h (2 Bft) 100,00 %
31.07.2018 11:34 28,3 C 26,7 C 41,7 C 54 % 1014,9 hPa 0,0 l/m 7,6 km/h (2 Bft) SO 144 2 min 0,000 mm 4,9 UV-I 765 W/m 18,1 C 28,1 C 12,9 km/h (3 Bft) 100,00 %
31.07.2018 11:36 28,4 C 26,7 C 41,7 C 55 % 1014,8 hPa 0,0 l/m 4,9 km/h (1 Bft) O 96 2 min 0,000 mm 5,0 UV-I 769 W/m 18,5 C 28,4 C 11,3 km/h (2 Bft) 97,87 %
31.07.2018 11:38 28,4 C 26,7 C 41,1 C 52 % 1014,9 hPa 0,0 l/m 7,7 km/h (2 Bft) O-NO 76 2 min 0,000 mm 5,0 UV-I 766 W/m 17,6 C 28,2 C 11,3 km/h (2 Bft) 97,87 %
31.07.2018 11:40 28,6 C 26,7 C 41,1 C 53 % 1014,9 hPa 0,0 l/m 5,6 km/h (1 Bft) SO 128 2 min 0,000 mm 5,1 UV-I 771 W/m 18,1 C 28,6 C 11,3 km/h (2 Bft) 93,62 %
31.07.2018 11:42 28,6 C 26,7 C 41,7 C 52 % 1014,9 hPa 0,0 l/m 4,1 km/h (1 Bft) O 80 2 min 0,000 mm 5,1 UV-I 777 W/m 17,8 C 28,6 C 8,0 km/h (2 Bft) 97,87 %
31.07.2018 11:44 28,8 C 26,7 C 41,7 C 53 % 1014,8 hPa 0,0 l/m 5,6 km/h (1 Bft) O-SO 103 2 min 0,000 mm 5,1 UV-I 779 W/m 18,2 C 28,8 C 9,7 km/h (2 Bft) 97,87 %
31.07.2018 11:46 29,0 C 26,7 C 41,7 C 53 % 1014,8 hPa 0,0 l/m 6,3 km/h (2 Bft) O 80 2 min 0,000 mm 5,2 UV-I 782 W/m 18,4 C 29,0 C 9,7 km/h (2 Bft) 98,00 %
31.07.2018 11:48 28,9 C 26,7 C 41,7 C 50 % 1014,8 hPa 0,0 l/m 4,6 km/h (1 Bft) O 90 2 min 0,000 mm 5,2 UV-I 787 W/m 17,4 C 28,9 C 6,4 km/h (2 Bft) 97,87 %
31.07.2018 11:50 28,8 C 26,7 C 42,2 C 51 % 1014,7 hPa 0,0 l/m 3,6 km/h (1 Bft) O 100 2 min 0,000 mm 5,3 UV-I 789 W/m 17,6 C 28,8 C 6,4 km/h (2 Bft) 93,62 %
31.07.2018 11:52 28,8 C 26,7 C 41,7 C 50 % 1014,8 hPa 0,0 l/m 5,6 km/h (1 Bft) O 95 2 min 0,000 mm 5,3 UV-I 789 W/m 17,3 C 28,8 C 11,3 km/h (2 Bft) 97,87 %
31.07.2018 11:54 28,8 C 26,7 C 42,2 C 51 % 1014,7 hPa 0,0 l/m 3,7 km/h (1 Bft) O 99 2 min 0,000 mm 5,3 UV-I 790 W/m 17,6 C 28,8 C 6,4 km/h (2 Bft) 97,37 %
31.07.2018 11:56 28,8 C 26,7 C 42,2 C 52 % 1014,7 hPa 0,0 l/m 1,4 km/h (1 Bft) O 98 2 min 0,000 mm 5,3 UV-I 793 W/m 17,9 C 28,8 C 3,2 km/h (1 Bft) 97,87 %
31.07.2018 11:58 29,1 C 26,7 C 43,3 C 52 % 1014,7 hPa 0,0 l/m 1,5 km/h (1 Bft) O 100 2 min 0,000 mm 5,4 UV-I 795 W/m 18,2 C 29,1 C 3,2 km/h (1 Bft) 97,87 %
31.07.2018 12:00 29,3 C 26,7 C 43,3 C 52 % 1014,7 hPa 0,0 l/m 6,5 km/h (2 Bft) O-NO 70 2 min 0,533 mm 5,4 UV-I 797 W/m 18,4 C 29,3 C 9,7 km/h (2 Bft) 97,87 %
31.07.2018 12:02 29,4 C 26,7 C 41,7 C 50 % 1014,7 hPa 0,0 l/m 5,2 km/h (1 Bft) O-NO 63 2 min 0,000 mm 5,4 UV-I 799 W/m 17,9 C 29,4 C 8,0 km/h (2 Bft) 97,92 %
31.07.2018 12:04 29,3 C 26,7 C 40,6 C 49 % 1014,6 hPa 0,0 l/m 3,9 km/h (1 Bft) O-NO 69 2 min 0,000 mm 5,5 UV-I 798 W/m 17,5 C 29,3 C 4,8 km/h (1 Bft) 95,74 %
31.07.2018 12:06 29,3 C 26,7 C 40,6 C 52 % 1014,6 hPa 0,0 l/m 4,0 km/h (1 Bft) NO 50 2 min 0,000 mm 5,5 UV-I 801 W/m 18,4 C 29,3 C 8,0 km/h (2 Bft) 97,87 %
31.07.2018 12:08 29,3 C 26,7 C 41,1 C 50 % 1014,6 hPa 0,0 l/m 3,2 km/h (1 Bft) O-NO 75 2 min 0,000 mm 5,5 UV-I 803 W/m 17,8 C 29,3 C 6,4 km/h (2 Bft) 95,74 %
31.07.2018 12:10 29,4 C 26,7 C 41,7 C 52 % 1014,5 hPa 0,0 l/m 3,4 km/h (1 Bft) O-NO 76 2 min 0,000 mm 5,6 UV-I 805 W/m 18,5 C 29,4 C 6,4 km/h (2 Bft) 96,00 %
31.07.2018 12:12 29,4 C 26,7 C 42,8 C 48 % 1014,5 hPa 0,0 l/m 0,9 km/h (0 Bft) O-NO 76 2 min 0,000 mm 5,6 UV-I 804 W/m 17,2 C 29,4 C 3,2 km/h (1 Bft) 95,74 %
31.07.2018 12:14 29,6 C 26,7 C 42,8 C 50 % 1014,6 hPa 0,0 l/m 4,2 km/h (1 Bft) NO 54 2 min 0,000 mm 5,6 UV-I 806 W/m 18,1 C 29,6 C 6,4 km/h (2 Bft) 94,00 %
31.07.2018 12:16 29,6 C 26,7 C 42,8 C 47 % 1014,6 hPa 0,0 l/m 4,2 km/h (1 Bft) O-SO 105 2 min 0,000 mm 5,6 UV-I 810 W/m 17,1 C 29,6 C 6,4 km/h (2 Bft) 95,74 %
31.07.2018 12:18 29,6 C 26,7 C 42,8 C 45 % 1014,6 hPa 0,0 l/m 4,1 km/h (1 Bft) SO 126 2 min 0,000 mm 5,7 UV-I 813 W/m 16,4 C 29,6 C 6,4 km/h (2 Bft) 97,87 %
31.07.2018 12:20 29,4 C 26,7 C 42,8 C 45 % 1014,6 hPa 0,0 l/m 3,5 km/h (1 Bft) SW 219 2 min 0,000 mm 5,7 UV-I 814 W/m 16,2 C 29,4 C 6,4 km/h (2 Bft) 100,00 %
31.07.2018 12:22 29,4 C 26,7 C 42,2 C 46 % 1014,6 hPa 0,0 l/m 3,9 km/h (1 Bft) W-NW 297 2 min 0,000 mm 5,7 UV-I 814 W/m 16,5 C 29,4 C 6,4 km/h (2 Bft) 97,87 %
31.07.2018 12:24 29,5 C 26,7 C 42,8 C 47 % 1014,6 hPa 0,0 l/m 2,5 km/h (1 Bft) SO 128 2 min 0,000 mm 5,7 UV-I 816 W/m 17,0 C 29,5 C 6,4 km/h (2 Bft) 95,74 %
31.07.2018 12:26 29,7 C 26,7 C 43,3 C 45 % 1014,5 hPa 0,0 l/m 3,9 km/h (1 Bft) SO 139 2 min 0,000 mm 5,8 UV-I 819 W/m 16,5 C 29,7 C 6,4 km/h (2 Bft) 100,00 %
31.07.2018 12:28 29,7 C 26,7 C 42,8 C 47 % 1014,5 hPa 0,0 l/m 4,0 km/h (1 Bft) S-SW 205 2 min 0,000 mm 5,8 UV-I 822 W/m 17,2 C 29,7 C 8,0 km/h (2 Bft) 95,74 %
31.07.2018 12:30 29,8 C 26,7 C 43,3 C 47 % 1014,5 hPa 0,0 l/m 4,8 km/h (1 Bft) O-SO 113 2 min 0,000 mm 5,8 UV-I 823 W/m 17,2 C 29,8 C 8,0 km/h (2 Bft) 96,00 %
31.07.2018 12:32 30,1 C 26,7 C 43,3 C 47 % 1014,5 hPa 0,0 l/m 4,8 km/h (1 Bft) SO 128 2 min 0,000 mm 5,8 UV-I 823 W/m 17,5 C 30,1 C 6,4 km/h (2 Bft) 97,87 %
31.07.2018 12:34 30,0 C 26,7 C 43,9 C 47 % 1014,5 hPa 0,0 l/m 4,1 km/h (1 Bft) S-SO 159 2 min 0,000 mm 5,8 UV-I 824 W/m 17,4 C 30,0 C 8,0 km/h (2 Bft) 93,62 %
31.07.2018 12:36 29,9 C 26,7 C 43,9 C 48 % 1014,5 hPa 0,0 l/m 1,6 km/h (1 Bft) S-SO 159 2 min 0,000 mm 5,8 UV-I 823 W/m 17,7 C 29,9 C 3,2 km/h (1 Bft) 95,74 %
31.07.2018 12:38 30,2 C 26,7 C 43,9 C 45 % 1014,4 hPa 0,0 l/m 4,0 km/h (1 Bft) NO 49 2 min 0,000 mm 5,8 UV-I 823 W/m 16,9 C 30,2 C 6,4 km/h (2 Bft) 93,62 %
31.07.2018 12:40 30,2 C 26,7 C 44,4 C 45 % 1014,5 hPa 0,0 l/m 3,5 km/h (1 Bft) O-SO 115 2 min 0,000 mm 5,8 UV-I 826 W/m 16,9 C 30,2 C 6,4 km/h (2 Bft) 93,62 %
31.07.2018 12:42 30,1 C 26,7 C 44,4 C 45 % 1014,4 hPa 0,0 l/m 2,4 km/h (1 Bft) O-SO 115 2 min 0,000 mm 5,9 UV-I 826 W/m 16,8 C 30,1 C 4,8 km/h (1 Bft) 95,83 %
31.07.2018 12:44 30,2 C 26,7 C 43,9 C 44 % 1014,5 hPa 0,0 l/m 1,9 km/h (1 Bft) NO 48 2 min 0,000 mm 5,9 UV-I 827 W/m 16,6 C 30,2 C 6,4 km/h (2 Bft) 95,74 %
31.07.2018 12:46 30,4 C 26,7 C 43,9 C 45 % 1014,5 hPa 0,0 l/m 7,6 km/h (2 Bft) O 80 2 min 0,000 mm 5,9 UV-I 830 W/m 17,1 C 30,3 C 11,3 km/h (2 Bft) 95,74 %
31.07.2018 12:48 30,6 C 26,7 C 43,9 C 44 % 1014,4 hPa 0,0 l/m 7,2 km/h (2 Bft) NO 53 2 min 0,000 mm 5,9 UV-I 831 W/m 16,9 C 30,5 C 12,9 km/h (3 Bft) 95,74 %
31.07.2018 12:50 30,8 C 26,7 C 43,3 C 46 % 1014,4 hPa 0,0 l/m 7,9 km/h (2 Bft) O-NO 77 2 min 0,000 mm 5,9 UV-I 832 W/m 17,8 C 30,7 C 12,9 km/h (3 Bft) 93,62 %
31.07.2018 12:52 30,8 C 26,7 C 42,2 C 43 % 1014,5 hPa 0,0 l/m 5,7 km/h (1 Bft) N-NO 26 2 min 0,000 mm 6,0 UV-I 832 W/m 16,7 C 30,8 C 9,7 km/h (2 Bft) 95,74 %
31.07.2018 12:54 30,8 C 26,7 C 42,8 C 43 % 1014,4 hPa 0,0 l/m 3,4 km/h (1 Bft) N-NO 32 2 min 0,000 mm 5,9 UV-I 828 W/m 16,7 C 30,8 C 6,4 km/h (2 Bft) 93,62 %
31.07.2018 12:56 30,7 C 27,2 C 43,3 C 41 % 1014,4 hPa 0,0 l/m 1,4 km/h (1 Bft) O-NO 68 2 min 0,000 mm 5,9 UV-I 824 W/m 15,9 C 30,7 C 4,8 km/h (1 Bft) 94,29 %
31.07.2018 12:58 30,7 C 26,7 C 43,3 C 45 % 1014,4 hPa 0,0 l/m 4,4 km/h (1 Bft) O-NO 57 2 min 0,000 mm 5,9 UV-I 829 W/m 17,4 C 30,7 C 8,0 km/h (2 Bft) 94,34 %
31.07.2018 13:00 30,9 C 26,7 C 42,2 C 43 % 1014,4 hPa 0,0 l/m 6,0 km/h (2 Bft) NO 47 2 min 0,584 mm 5,9 UV-I 829 W/m 16,8 C 30,9 C 8,0 km/h (2 Bft) 93,62 %
31.07.2018 13:02 30,8 C 27,2 C 42,8 C 42 % 1014,4 hPa 0,0 l/m 3,0 km/h (1 Bft) NO 56 2 min 0,000 mm 5,9 UV-I 829 W/m 16,4 C 30,8 C 9,7 km/h (2 Bft) 93,62 %
31.07.2018 13:04 30,9 C 27,2 C 42,8 C 45 % 1014,4 hPa 0,0 l/m 11,2 km/h (2 Bft) NO 55 2 min 0,000 mm 5,9 UV-I 828 W/m 17,6 C 30,6 C 17,7 km/h (3 Bft) 95,74 %
31.07.2018 13:06 31,2 C 27,2 C 42,2 C 45 % 1014,4 hPa 0,0 l/m 14,8 km/h (3 Bft) O 89 2 min 0,000 mm 5,9 UV-I 825 W/m 17,8 C 30,8 C 20,9 km/h (4 Bft) 97,87 %
31.07.2018 13:08 31,3 C 27,2 C 42,8 C 41 % 1014,4 hPa 0,0 l/m 8,0 km/h (2 Bft) O 94 2 min 0,000 mm 6,0 UV-I 829 W/m 16,4 C 31,2 C 14,5 km/h (3 Bft) 95,74 %
31.07.2018 13:10 31,3 C 27,2 C 43,3 C 40 % 1014,4 hPa 0,0 l/m 8,7 km/h (2 Bft) O-SO 102 2 min 0,000 mm 6,0 UV-I 833 W/m 16,1 C 31,2 C 12,9 km/h (3 Bft) 97,87 %
31.07.2018 13:12 31,3 C 27,2 C 43,3 C 40 % 1014,3 hPa 0,0 l/m 11,1 km/h (2 Bft) O-SO 110 2 min 0,000 mm 6,0 UV-I 830 W/m 16,1 C 31,1 C 17,7 km/h (3 Bft) 96,00 %
31.07.2018 13:14 31,3 C 27,2 C 42,8 C 42 % 1014,3 hPa 0,0 l/m 11,1 km/h (2 Bft) N 5 2 min 0,000 mm 5,9 UV-I 827 W/m 16,8 C 31,1 C 19,3 km/h (3 Bft) 100,00 %
31.07.2018 13:16 31,3 C 27,2 C 41,7 C 40 % 1014,3 hPa 0,0 l/m 9,9 km/h (2 Bft) N-NO 24 2 min 0,000 mm 5,9 UV-I 826 W/m 16,1 C 31,1 C 12,9 km/h (3 Bft) 95,74 %
31.07.2018 13:18 31,3 C 27,2 C 42,2 C 42 % 1014,3 hPa 0,0 l/m 8,3 km/h (2 Bft) N-NW 334 2 min 0,000 mm 5,9 UV-I 827 W/m 16,8 C 31,2 C 12,9 km/h (3 Bft) 97,87 %
31.07.2018 13:20 31,6 C 27,2 C 42,8 C 41 % 1014,3 hPa 0,0 l/m 5,4 km/h (1 Bft) N-NW 337 2 min 0,000 mm 5,9 UV-I 830 W/m 16,7 C 31,6 C 8,0 km/h (2 Bft) 97,92 %
31.07.2018 13:22 31,7 C 27,2 C 43,3 C 42 % 1014,3 hPa 0,0 l/m 3,2 km/h (1 Bft) N 11 2 min 0,000 mm 5,9 UV-I 827 W/m 17,2 C 31,7 C 4,8 km/h (1 Bft) 97,87 %
31.07.2018 13:24 31,7 C 27,2 C 43,9 C 42 % 1014,3 hPa 0,0 l/m 3,2 km/h (1 Bft) W-SW 253 2 min 0,000 mm 5,8 UV-I 814 W/m 17,2 C 31,7 C 9,7 km/h (2 Bft) 100,00 %
31.07.2018 13:26 31,8 C 27,2 C 43,9 C 42 % 1014,3 hPa 0,0 l/m 5,5 km/h (1 Bft) NO 48 2 min 0,000 mm 5,7 UV-I 801 W/m 17,3 C 31,8 C 12,9 km/h (3 Bft) 100,00 %
31.07.2018 13:28 31,7 C 27,2 C 43,3 C 40 % 1014,3 hPa 0,0 l/m 7,5 km/h (2 Bft) N-NO 25 2 min 0,000 mm 5,7 UV-I 797 W/m 16,4 C 31,7 C 16,1 km/h (3 Bft) 97,87 %
31.07.2018 13:30 31,7 C 27,2 C 42,2 C 41 % 1014,2 hPa 0,0 l/m 11,6 km/h (2 Bft) NO 34 2 min 0,000 mm 5,8 UV-I 796 W/m 16,8 C 31,5 C 16,1 km/h (3 Bft) 100,00 %
31.07.2018 13:32 31,4 C 27,2 C 41,1 C 41 % 1014,2 hPa 0,0 l/m 9,1 km/h (2 Bft) N 5 2 min 0,000 mm 5,8 UV-I 821 W/m 16,5 C 31,3 C 16,1 km/h (3 Bft) 97,87 %
31.07.2018 13:34 31,4 C 27,2 C 41,1 C 41 % 1014,1 hPa 0,0 l/m 8,5 km/h (2 Bft) O-NO 64 2 min 0,000 mm 5,8 UV-I 812 W/m 16,5 C 31,3 C 14,5 km/h (3 Bft) 100,00 %
31.07.2018 13:36 31,5 C 27,2 C 41,7 C 40 % 1014,2 hPa 0,0 l/m 8,4 km/h (2 Bft) O 94 2 min 0,000 mm 5,8 UV-I 812 W/m 16,2 C 31,4 C 14,5 km/h (3 Bft) 100,00 %
31.07.2018 13:38 31,4 C 27,2 C 41,7 C 39 % 1014,2 hPa 0,0 l/m 12,7 km/h (3 Bft) O 85 2 min 0,000 mm 5,8 UV-I 824 W/m 15,7 C 31,1 C 17,7 km/h (3 Bft) 100,00 %
31.07.2018 13:40 31,4 C 27,2 C 42,8 C 39 % 1014,1 hPa 0,0 l/m 7,7 km/h (2 Bft) SO 126 2 min 0,000 mm 5,8 UV-I 827 W/m 15,7 C 31,3 C 12,9 km/h (3 Bft) 100,00 %
31.07.2018 13:42 31,4 C 27,2 C 42,8 C 39 % 1014,2 hPa 0,0 l/m 7,0 km/h (2 Bft) O-NO 75 2 min 0,000 mm 5,8 UV-I 821 W/m 15,7 C 31,4 C 11,3 km/h (2 Bft) 100,00 %
31.07.2018 13:44 31,4 C 27,2 C 42,2 C 39 % 1014,1 hPa 0,0 l/m 4,1 km/h (1 Bft) O-NO 60 2 min 0,000 mm 5,8 UV-I 818 W/m 15,7 C 31,4 C 9,7 km/h (2 Bft) 100,00 %
31.07.2018 13:46 31,2 C 27,2 C 42,2 C 39 % 1014,1 hPa 0,0 l/m 2,2 km/h (1 Bft) SW 236 2 min 0,000 mm 5,8 UV-I 820 W/m 15,6 C 31,2 C 6,4 km/h (2 Bft) 100,00 %
31.07.2018 13:48 31,1 C 27,2 C 42,2 C 39 % 1014,1 hPa 0,0 l/m 4,4 km/h (1 Bft) W-SW 241 2 min 0,000 mm 5,8 UV-I 823 W/m 15,5 C 31,1 C 8,0 km/h (2 Bft) 98,00 %
31.07.2018 13:50 31,3 C 27,2 C 42,8 C 40 % 1014,1 hPa 0,0 l/m 4,0 km/h (1 Bft) W-NW 301 2 min 0,000 mm 5,8 UV-I 823 W/m 16,1 C 31,3 C 4,8 km/h (1 Bft) 100,00 %
31.07.2018 13:52 31,4 C 27,2 C 43,3 C 39 % 1014,0 hPa 0,0 l/m 5,8 km/h (2 Bft) SW 215 2 min 0,000 mm 5,7 UV-I 822 W/m 15,7 C 31,4 C 8,0 km/h (2 Bft) 100,00 %
31.07.2018 13:54 31,5 C 27,2 C 43,3 C 39 % 1014,1 hPa 0,0 l/m 5,9 km/h (2 Bft) S 189 2 min 0,000 mm 5,7 UV-I 823 W/m 15,8 C 31,5 C 12,9 km/h (3 Bft) 100,00 %
31.07.2018 13:56 31,7 C 27,2 C 43,9 C 40 % 1014,0 hPa 0,0 l/m 6,5 km/h (2 Bft) O-NO 59 2 min 0,000 mm 5,7 UV-I 822 W/m 16,4 C 31,7 C 9,7 km/h (2 Bft) 97,87 %
31.07.2018 13:58 31,7 C 27,2 C 43,9 C 40 % 1014,1 hPa 0,0 l/m 8,8 km/h (2 Bft) O 96 2 min 0,000 mm 5,7 UV-I 814 W/m 16,4 C 31,6 C 14,5 km/h (3 Bft) 100,00 %
31.07.2018 14:00 31,6 C 27,2 C 43,9 C 39 % 1014,1 hPa 0,0 l/m 5,6 km/h (1 Bft) SW 217 2 min 0,635 mm 5,6 UV-I 812 W/m 15,9 C 31,6 C 14,5 km/h (3 Bft) 97,87 %
31.07.2018 14:02 31,5 C 27,2 C 43,9 C 39 % 1014,0 hPa 0,0 l/m 8,2 km/h (2 Bft) W-SW 251 2 min 0,000 mm 5,6 UV-I 811 W/m 15,8 C 31,4 C 14,5 km/h (3 Bft) 97,87 %
31.07.2018 14:04 31,5 C 27,2 C 43,9 C 39 % 1014,0 hPa 0,0 l/m 4,3 km/h (1 Bft) W-SW 253 2 min 0,000 mm 5,6 UV-I 787 W/m 15,8 C 31,5 C 8,0 km/h (2 Bft) 100,00 %
31.07.2018 14:06 31,6 C 27,2 C 43,9 C 39 % 1014,0 hPa 0,0 l/m 5,8 km/h (2 Bft) S-SW 192 2 min 0,000 mm 5,6 UV-I 810 W/m 15,9 C 31,6 C 12,9 km/h (3 Bft) 100,00 %
31.07.2018 14:08 31,4 C 27,2 C 43,9 C 38 % 1013,9 hPa 0,0 l/m 6,5 km/h (2 Bft) S-SW 193 2 min 0,000 mm 5,5 UV-I 805 W/m 15,3 C 31,4 C 11,3 km/h (2 Bft) 97,14 %
31.07.2018 14:10 31,4 C 27,2 C 43,9 C 40 % 1013,9 hPa 0,0 l/m 8,4 km/h (2 Bft) W-SW 257 2 min 0,000 mm 5,5 UV-I 805 W/m 16,1 C 31,3 C 11,3 km/h (2 Bft) 98,00 %
31.07.2018 14:12 31,7 C 27,2 C 43,9 C 40 % 1013,9 hPa 0,0 l/m 3,8 km/h (1 Bft) SW 226 2 min 0,000 mm 5,6 UV-I 807 W/m 16,4 C 31,7 C 9,7 km/h (2 Bft) 100,00 %
31.07.2018 14:14 31,8 C 27,2 C 43,9 C 38 % 1014,0 hPa 0,0 l/m 5,8 km/h (2 Bft) O 92 2 min 0,000 mm 5,5 UV-I 801 W/m 15,7 C 31,8 C 9,7 km/h (2 Bft) 97,87 %
31.07.2018 14:16 31,8 C 27,2 C 43,9 C 39 % 1014,0 hPa 0,0 l/m 9,2 km/h (2 Bft) O 101 2 min 0,000 mm 5,4 UV-I 802 W/m 16,1 C 31,7 C 14,5 km/h (3 Bft) 97,87 %
31.07.2018 14:18 31,8 C 27,2 C 43,9 C 39 % 1014,0 hPa 0,0 l/m 9,7 km/h (2 Bft) SO 124 2 min 0,000 mm 5,4 UV-I 798 W/m 16,1 C 31,7 C 14,5 km/h (3 Bft) 95,74 %
31.07.2018 14:20 31,8 C 27,2 C 44,4 C 39 % 1014,0 hPa 0,0 l/m 4,5 km/h (1 Bft) SO 124 2 min 0,000 mm 5,4 UV-I 795 W/m 16,1 C 31,8 C 6,4 km/h (2 Bft) 100,00 %
31.07.2018 14:22 31,8 C 27,2 C 43,9 C 38 % 1014,0 hPa 0,0 l/m 2,4 km/h (1 Bft) SO 134 2 min 0,000 mm 5,3 UV-I 791 W/m 15,7 C 31,8 C 4,8 km/h (1 Bft) 100,00 %
31.07.2018 14:24 31,8 C 27,2 C 43,9 C 38 % 1013,9 hPa 0,0 l/m 5,0 km/h (1 Bft) W-SW 247 2 min 0,000 mm 5,3 UV-I 787 W/m 15,7 C 31,8 C 9,7 km/h (2 Bft) 97,87 %
31.07.2018 14:26 31,8 C 27,2 C 43,9 C 37 % 1013,9 hPa 0,0 l/m 2,5 km/h (1 Bft) S-SO 153 2 min 0,000 mm 5,3 UV-I 786 W/m 15,3 C 31,8 C 4,8 km/h (1 Bft) 100,00 %
31.07.2018 14:28 31,9 C 27,2 C 43,9 C 38 % 1014,0 hPa 0,0 l/m 7,1 km/h (2 Bft) O-SO 102 2 min 0,000 mm 5,2 UV-I 781 W/m 15,8 C 31,9 C 14,5 km/h (3 Bft) 95,74 %
31.07.2018 14:30 31,7 C 27,2 C 43,3 C 37 % 1013,9 hPa 0,0 l/m 3,2 km/h (1 Bft) O 86 2 min 0,000 mm 5,2 UV-I 774 W/m 15,2 C 31,7 C 6,4 km/h (2 Bft) 97,87 %
31.07.2018 14:32 31,8 C 27,2 C 43,9 C 38 % 1013,9 hPa 0,0 l/m 4,8 km/h (1 Bft) SO 136 2 min 0,000 mm 5,2 UV-I 779 W/m 15,7 C 31,8 C 12,9 km/h (3 Bft) 97,92 %
31.07.2018 14:34 31,7 C 27,2 C 44,4 C 38 % 1013,9 hPa 0,0 l/m 4,9 km/h (1 Bft) S 187 2 min 0,000 mm 5,2 UV-I 780 W/m 15,6 C 31,7 C 8,0 km/h (2 Bft) 93,48 %
31.07.2018 14:36 31,6 C 27,2 C 44,4 C 41 % 1013,8 hPa 0,0 l/m 4,0 km/h (1 Bft) NW 323 2 min 0,000 mm 5,2 UV-I 779 W/m 16,7 C 31,6 C 6,4 km/h (2 Bft) 93,62 %
31.07.2018 14:38 31,7 C 27,2 C 43,9 C 38 % 1013,8 hPa 0,0 l/m 1,6 km/h (1 Bft) W 264 2 min 0,000 mm 5,1 UV-I 775 W/m 15,6 C 31,7 C 3,2 km/h (1 Bft) 93,75 %
31.07.2018 14:40 31,8 C 27,2 C 42,8 C 39 % 1013,8 hPa 0,0 l/m 10,5 km/h (2 Bft) SW 230 2 min 0,000 mm 5,1 UV-I 772 W/m 16,1 C 31,7 C 14,5 km/h (3 Bft) 91,43 %
31.07.2018 14:42 32,0 C 27,2 C 42,8 C 37 % 1013,7 hPa 0,0 l/m 7,5 km/h (2 Bft) W-SW 239 2 min 0,000 mm 5,1 UV-I 773 W/m 15,5 C 32,0 C 14,5 km/h (3 Bft) 92,00 %
31.07.2018 14:44 32,0 C 27,2 C 42,8 C 38 % 1013,8 hPa 0,0 l/m 7,9 km/h (2 Bft) S-SW 209 2 min 0,000 mm 5,1 UV-I 770 W/m 15,9 C 32,0 C 12,9 km/h (3 Bft) 93,62 %
31.07.2018 14:45 32,1 C 27,2 C 42,8 C 39 % 1013,8 hPa 0,0 l/m 8,0 km/h (2 Bft) W-SW 247 1 min 0,000 mm 5,1 UV-I 772 W/m 16,4 C 32,1 C 14,5 km/h (3 Bft) 92,11 %
31.07.2018 14:50 32,2 C 27,2 C 43,3 C 37 % 1013,7 hPa 0,0 l/m 1,1 km/h (1 Bft) W-SW 252 5 min 0,000 mm 4,9 UV-I 770 W/m 15,6 C 32,2 C 4,8 km/h (1 Bft) 93,94 %
31.07.2018 14:52 32,2 C 27,2 C 43,9 C 38 % 1013,8 hPa 0,0 l/m 2,4 km/h (1 Bft) W-SW 252 2 min 0,000 mm 4,8 UV-I 752 W/m 16,0 C 32,2 C 4,8 km/h (1 Bft) 91,53 %
31.07.2018 14:54 32,4 C 27,2 C 43,9 C 38 % 1013,8 hPa 0,0 l/m 3,5 km/h (1 Bft) N-NW 328 2 min 0,000 mm 4,7 UV-I 737 W/m 16,2 C 32,4 C 8,0 km/h (2 Bft) 94,74 %
31.07.2018 14:56 32,4 C 27,2 C 43,3 C 37 % 1013,8 hPa 0,0 l/m 7,1 km/h (2 Bft) N 360 2 min 0,000 mm 4,7 UV-I 739 W/m 15,8 C 32,4 C 11,3 km/h (2 Bft) 91,07 %
31.07.2018 14:58 32,6 C 27,2 C 43,3 C 34 % 1013,7 hPa 0,0 l/m 4,1 km/h (1 Bft) N-NO 20 2 min 0,000 mm 4,7 UV-I 739 W/m 14,7 C 32,6 C 9,7 km/h (2 Bft) 91,67 %
31.07.2018 15:00 32,4 C 27,8 C 42,8 C 36 % 1013,7 hPa 0,0 l/m 3,3 km/h (1 Bft) N 11 2 min 0,584 mm 4,7 UV-I 736 W/m 15,4 C 32,4 C 6,4 km/h (2 Bft) 94,55 %
31.07.2018 15:03 32,7 C 27,8 C 43,3 C 35 % 1013,7 hPa 0,0 l/m 4,3 km/h (1 Bft) W-NW 301 3 min 0,000 mm 4,6 UV-I 733 W/m 15,2 C 32,7 C 9,7 km/h (2 Bft) 94,12 %
31.07.2018 15:04 32,6 C 27,8 C 43,3 C 35 % 1013,7 hPa 0,0 l/m 7,2 km/h (2 Bft) W-NW 300 1 min 0,000 mm 4,6 UV-I 735 W/m 15,1 C 32,6 C 11,3 km/h (2 Bft) 92,59 %
31.07.2018 15:06 32,4 C 27,8 C 43,3 C 36 % 1013,7 hPa 0,0 l/m 4,2 km/h (1 Bft) W-NW 300 2 min 0,000 mm 4,6 UV-I 744 W/m 15,4 C 32,4 C 8,0 km/h (2 Bft) 95,74 %
31.07.2018 15:09 32,3 C 27,8 C 43,9 C 37 % 1013,7 hPa 0,0 l/m 4,9 km/h (1 Bft) SW 217 3 min 0,000 mm 4,6 UV-I 736 W/m 15,7 C 32,3 C 6,4 km/h (2 Bft) 97,14 %
31.07.2018 15:10 32,3 C 27,8 C 43,9 C 35 % 1013,7 hPa 0,0 l/m 5,0 km/h (1 Bft) S-SO 166 1 min 0,000 mm 4,4 UV-I 723 W/m 14,9 C 32,3 C 6,4 km/h (2 Bft) 100,00 %
31.07.2018 15:12 32,3 C 27,8 C 44,4 C 36 % 1013,7 hPa 0,0 l/m 3,8 km/h (1 Bft) S 170 2 min 0,000 mm 4,4 UV-I 723 W/m 15,3 C 32,3 C 8,0 km/h (2 Bft) 96,23 %
31.07.2018 15:14 32,7 C 27,8 C 45,0 C 39 % 1013,6 hPa 0,0 l/m 1,6 km/h (1 Bft) S 173 2 min 0,000 mm 4,4 UV-I 724 W/m 16,9 C 32,7 C 3,2 km/h (1 Bft) 100,00 %
31.07.2018 15:16 32,9 C 27,8 C 44,4 C 37 % 1013,6 hPa 0,0 l/m 6,7 km/h (2 Bft) N-NO 19 2 min 0,000 mm 4,3 UV-I 718 W/m 16,2 C 32,9 C 12,9 km/h (3 Bft) 100,00 %
31.07.2018 15:18 33,1 C 27,8 C 43,9 C 38 % 1013,6 hPa 0,0 l/m 7,1 km/h (2 Bft) O-NO 69 2 min 0,000 mm 4,1 UV-I 712 W/m 16,8 C 33,1 C 11,3 km/h (2 Bft) 97,87 %
31.07.2018 15:20 33,0 C 27,8 C 43,9 C 34 % 1013,6 hPa 0,0 l/m 4,4 km/h (1 Bft) O 79 2 min 0,000 mm 4,2 UV-I 707 W/m 15,0 C 33,0 C 9,7 km/h (2 Bft) 100,00 %
31.07.2018 15:22 32,9 C 27,8 C 44,4 C 34 % 1013,6 hPa 0,0 l/m 3,8 km/h (1 Bft) SO 127 2 min 0,000 mm 4,2 UV-I 699 W/m 14,9 C 32,9 C 6,4 km/h (2 Bft) 100,00 %
31.07.2018 15:24 32,6 C 27,8 C 43,9 C 37 % 1013,6 hPa 0,0 l/m 2,0 km/h (1 Bft) O-NO 72 2 min 0,000 mm 4,1 UV-I 694 W/m 16,0 C 32,6 C 4,8 km/h (1 Bft) 97,87 %
31.07.2018 15:26 32,5 C 27,8 C 44,4 C 36 % 1013,6 hPa 0,0 l/m 1,7 km/h (1 Bft) O-NO 71 2 min 0,000 mm 4,0 UV-I 686 W/m 15,5 C 32,5 C 4,8 km/h (1 Bft) 100,00 %
31.07.2018 15:28 32,5 C 27,8 C 42,2 C 38 % 1013,6 hPa 0,0 l/m 10,3 km/h (2 Bft) O-NO 72 2 min 0,000 mm 4,0 UV-I 680 W/m 16,3 C 32,4 C 16,1 km/h (3 Bft) 100,00 %
31.07.2018 15:30 32,6 C 27,8 C 41,7 C 37 % 1013,5 hPa 0,0 l/m 7,3 km/h (2 Bft) NO 37 2 min 0,000 mm 4,0 UV-I 692 W/m 16,0 C 32,6 C 12,9 km/h (3 Bft) 97,87 %
31.07.2018 15:32 32,7 C 27,8 C 40,6 C 36 % 1013,5 hPa 0,0 l/m 7,2 km/h (2 Bft) O 90 2 min 0,000 mm 3,3 UV-I 586 W/m 15,6 C 32,7 C 11,3 km/h (2 Bft) 100,00 %
31.07.2018 15:34 32,6 C 27,8 C 40,6 C 34 % 1013,5 hPa 0,0 l/m 6,2 km/h (2 Bft) O-SO 111 2 min 0,000 mm 3,6 UV-I 443 W/m 14,7 C 32,6 C 8,0 km/h (2 Bft) 100,00 %
31.07.2018 15:36 32,4 C 27,8 C 41,7 C 34 % 1013,5 hPa 0,0 l/m 5,7 km/h (1 Bft) O-SO 107 2 min 0,000 mm 3,8 UV-I 672 W/m 14,5 C 32,4 C 9,7 km/h (2 Bft) 94,87 %
31.07.2018 15:38 32,4 C 27,8 C 42,8 C 37 % 1013,5 hPa 0,0 l/m 4,5 km/h (1 Bft) NO 36 2 min 0,000 mm 3,8 UV-I 673 W/m 15,8 C 32,4 C 9,7 km/h (2 Bft) 100,00 %
31.07.2018 15:40 32,7 C 27,8 C 41,7 C 35 % 1013,5 hPa 0,0 l/m 6,4 km/h (2 Bft) O-SO 112 2 min 0,000 mm 3,8 UV-I 672 W/m 15,2 C 32,7 C 14,5 km/h (3 Bft) 93,86 %
31.07.2018 15:42 32,7 C 27,8 C 41,1 C 38 % 1013,5 hPa 0,0 l/m 9,7 km/h (2 Bft) O-NO 67 2 min 0,000 mm 3,8 UV-I 670 W/m 16,5 C 32,7 C 16,1 km/h (3 Bft) 100,00 %
31.07.2018 15:44 32,6 C 27,8 C 41,1 C 35 % 1013,5 hPa 0,0 l/m 5,3 km/h (1 Bft) W-NW 289 2 min 0,000 mm 3,7 UV-I 662 W/m 15,1 C 32,6 C 11,3 km/h (2 Bft) 100,00 %
31.07.2018 15:46 32,4 C 27,8 C 41,7 C 35 % 1013,5 hPa 0,0 l/m 5,0 km/h (1 Bft) W-SW 252 2 min 0,000 mm 3,7 UV-I 657 W/m 14,9 C 32,4 C 8,0 km/h (2 Bft) 100,00 %
31.07.2018 15:48 32,5 C 27,8 C 42,2 C 37 % 1013,5 hPa 0,0 l/m 7,2 km/h (2 Bft) N-NO 26 2 min 0,000 mm 3,6 UV-I 653 W/m 15,9 C 32,5 C 16,1 km/h (3 Bft) 100,00 %
31.07.2018 15:50 32,6 C 27,8 C 41,7 C 36 % 1013,6 hPa 0,0 l/m 6,6 km/h (2 Bft) NO 36 2 min 0,000 mm 3,6 UV-I 646 W/m 15,6 C 32,6 C 9,7 km/h (2 Bft) 100,00 %
31.07.2018 15:52 32,6 C 27,8 C 41,7 C 34 % 1013,5 hPa 0,0 l/m 5,1 km/h (1 Bft) NO 35 2 min 0,000 mm 3,5 UV-I 641 W/m 14,7 C 32,6 C 8,0 km/h (2 Bft) 95,24 %
31.07.2018 15:54 32,6 C 27,8 C 42,2 C 36 % 1013,5 hPa 0,0 l/m 5,6 km/h (1 Bft) N-NW 336 2 min 0,000 mm 3,5 UV-I 635 W/m 15,6 C 32,6 C 8,0 km/h (2 Bft) 98,11 %
31.07.2018 15:56 32,6 C 27,8 C 42,2 C 36 % 1013,5 hPa 0,0 l/m 4,5 km/h (1 Bft) N-NO 26 2 min 0,000 mm 3,1 UV-I 631 W/m 15,6 C 32,6 C 12,9 km/h (3 Bft) 100,00 %
31.07.2018 15:58 32,7 C 27,8 C 41,7 C 36 % 1013,5 hPa 0,0 l/m 6,7 km/h (2 Bft) NO 38 2 min 0,000 mm 3,0 UV-I 636 W/m 15,6 C 32,7 C 11,3 km/h (2 Bft) 100,00 %
31.07.2018 16:00 32,8 C 27,8 C 42,2 C 35 % 1013,5 hPa 0,0 l/m 4,2 km/h (1 Bft) NO 41 2 min 0,000 mm 3,3 UV-I 637 W/m 15,3 C 32,8 C 8,0 km/h (2 Bft) 100,00 %
31.07.2018 16:02 32,8 C 27,8 C 42,2 C 35 % 1013,4 hPa 0,0 l/m 5,3 km/h (1 Bft) NW 325 2 min 0,534 mm 3,3 UV-I 626 W/m 15,3 C 32,8 C 8,0 km/h (2 Bft) 100,00 %
31.07.2018 16:04 32,8 C 27,8 C 42,2 C 35 % 1013,5 hPa 0,0 l/m 7,9 km/h (2 Bft) N-NW 334 2 min 0,000 mm 3,2 UV-I 619 W/m 15,3 C 32,8 C 12,9 km/h (3 Bft) 100,00 %
31.07.2018 16:06 32,8 C 27,8 C 41,7 C 35 % 1013,5 hPa 0,0 l/m 6,6 km/h (2 Bft) N-NO 17 2 min 0,000 mm 3,2 UV-I 617 W/m 15,3 C 32,8 C 11,3 km/h (2 Bft) 95,12 %
31.07.2018 16:08 32,6 C 27,8 C 42,2 C 35 % 1013,4 hPa 0,0 l/m 2,1 km/h (1 Bft) W-SW 248 2 min 0,000 mm 3,1 UV-I 615 W/m 15,1 C 32,6 C 4,8 km/h (1 Bft) 100,00 %
31.07.2018 16:10 32,5 C 27,8 C 42,8 C 35 % 1013,4 hPa 0,0 l/m 3,6 km/h (1 Bft) W 271 2 min 0,000 mm 2,9 UV-I 611 W/m 15,0 C 32,5 C 4,8 km/h (1 Bft) 100,00 %
31.07.2018 16:12 32,6 C 27,8 C 42,8 C 35 % 1013,4 hPa 0,0 l/m 5,0 km/h (1 Bft) NW 319 2 min 0,000 mm 3,0 UV-I 604 W/m 15,1 C 32,6 C 9,7 km/h (2 Bft) 100,00 %
31.07.2018 16:14 32,7 C 27,8 C 43,3 C 37 % 1013,4 hPa 0,0 l/m 5,1 km/h (1 Bft) N-NW 335 2 min 0,000 mm 3,0 UV-I 604 W/m 16,1 C 32,7 C 8,0 km/h (2 Bft) 97,37 %
31.07.2018 16:16 32,7 C 27,8 C 42,2 C 35 % 1013,4 hPa 0,0 l/m 3,7 km/h (1 Bft) N-NW 331 2 min 0,000 mm 3,0 UV-I 601 W/m 15,2 C 32,7 C 6,4 km/h (2 Bft) 100,00 %
31.07.2018 16:18 32,7 C 27,8 C 42,8 C 35 % 1013,4 hPa 0,0 l/m 3,1 km/h (1 Bft) N-NO 20 2 min 0,000 mm 2,9 UV-I 587 W/m 15,2 C 32,7 C 4,8 km/h (1 Bft) 100,00 %
31.07.2018 16:20 32,6 C 27,8 C 42,2 C 35 % 1013,4 hPa 0,0 l/m 2,4 km/h (1 Bft) W 281 2 min 0,000 mm 2,9 UV-I 579 W/m 15,1 C 32,6 C 4,8 km/h (1 Bft) 97,87 %
31.07.2018 16:22 32,6 C 27,8 C 42,8 C 35 % 1013,4 hPa 0,0 l/m 3,4 km/h (1 Bft) N-NO 18 2 min 0,000 mm 2,8 UV-I 582 W/m 15,1 C 32,6 C 12,9 km/h (3 Bft) 100,00 %
31.07.2018 16:24 32,7 C 27,8 C 42,2 C 36 % 1013,4 hPa 0,0 l/m 7,1 km/h (2 Bft) N 11 2 min 0,000 mm 2,8 UV-I 583 W/m 15,6 C 32,7 C 14,5 km/h (3 Bft) 97,87 %
31.07.2018 16:26 32,8 C 27,8 C 41,7 C 35 % 1013,4 hPa 0,0 l/m 7,8 km/h (2 Bft) NO 37 2 min 0,000 mm 2,8 UV-I 582 W/m 15,3 C 32,8 C 12,9 km/h (3 Bft) 100,00 %
31.07.2018 16:28 32,8 C 27,8 C 40,6 C 36 % 1013,4 hPa 0,0 l/m 12,0 km/h (2 Bft) NO 36 2 min 0,000 mm 2,8 UV-I 576 W/m 15,7 C 32,8 C 16,1 km/h (3 Bft) 100,00 %
31.07.2018 16:30 32,8 C 27,8 C 40,6 C 34 % 1013,4 hPa 0,0 l/m 7,3 km/h (2 Bft) W 272 2 min 0,000 mm 2,7 UV-I 571 W/m 14,8 C 32,8 C 16,1 km/h (3 Bft) 100,00 %
31.07.2018 16:32 32,7 C 27,8 C 41,7 C 35 % 1013,4 hPa 0,0 l/m 6,2 km/h (2 Bft) SW 236 2 min 0,000 mm 2,7 UV-I 574 W/m 15,2 C 32,7 C 8,0 km/h (2 Bft) 97,92 %
31.07.2018 16:34 32,7 C 27,8 C 42,2 C 35 % 1013,3 hPa 0,0 l/m 3,6 km/h (1 Bft) SO 128 2 min 0,000 mm 2,6 UV-I 570 W/m 15,2 C 32,7 C 8,0 km/h (2 Bft) 97,87 %
31.07.2018 16:36 32,8 C 27,8 C 42,2 C 35 % 1013,3 hPa 0,0 l/m 5,8 km/h (2 Bft) O 101 2 min 0,000 mm 2,6 UV-I 565 W/m 15,3 C 32,8 C 11,3 km/h (2 Bft) 97,37 %
31.07.2018 16:39 32,7 C 27,8 C 43,3 C 36 % 1013,3 hPa 0,0 l/m 3,6 km/h (1 Bft) SW 228 3 min 0,000 mm 2,5 UV-I 556 W/m 15,6 C 32,7 C 9,7 km/h (2 Bft) 95,12 %
31.07.2018 16:40 32,7 C 27,8 C 43,3 C 34 % 1013,3 hPa 0,0 l/m 7,2 km/h (2 Bft) W 267 1 min 0,000 mm 2,4 UV-I 550 W/m 14,8 C 32,7 C 11,3 km/h (2 Bft) 83,33 %
31.07.2018 16:42 32,7 C 27,8 C 43,3 C 34 % 1013,4 hPa 0,0 l/m 6,9 km/h (2 Bft) S 188 2 min 0,000 mm 2,4 UV-I 546 W/m 14,8 C 32,7 C 11,3 km/h (2 Bft) 96,00 %
31.07.2018 16:44 32,6 C 27,8 C 42,2 C 34 % 1013,3 hPa 0,0 l/m 7,2 km/h (2 Bft) S-SO 166 2 min 0,000 mm 2,4 UV-I 536 W/m 14,7 C 32,6 C 9,7 km/h (2 Bft) 93,10 %
31.07.2018 16:46 32,6 C 27,8 C 42,2 C 35 % 1013,3 hPa 0,0 l/m 6,7 km/h (2 Bft) O-SO 113 2 min 0,000 mm 2,3 UV-I 536 W/m 15,1 C 32,6 C 12,9 km/h (3 Bft) 93,85 %
31.07.2018 16:48 32,7 C 27,8 C 42,2 C 35 % 1013,2 hPa 0,0 l/m 3,4 km/h (1 Bft) SW 233 2 min 0,000 mm 2,3 UV-I 531 W/m 15,2 C 32,7 C 6,4 km/h (2 Bft) 91,49 %
31.07.2018 16:50 32,8 C 27,8 C 42,8 C 35 % 1013,3 hPa 0,0 l/m 2,5 km/h (1 Bft) SW 234 2 min 0,000 mm 2,3 UV-I 520 W/m 15,3 C 32,8 C 3,2 km/h (1 Bft) 96,23 %
31.07.2018 16:52 32,9 C 27,8 C 42,8 C 36 % 1013,3 hPa 0,0 l/m 10,4 km/h (2 Bft) N-NO 19 2 min 0,000 mm 2,2 UV-I 512 W/m 15,8 C 32,9 C 17,7 km/h (3 Bft) 95,45 %
31.07.2018 16:54 33,2 C 27,8 C 42,8 C 35 % 1013,2 hPa 0,0 l/m 9,2 km/h (2 Bft) NO 47 2 min 0,000 mm 2,2 UV-I 518 W/m 15,6 C 33,2 C 14,5 km/h (3 Bft) 87,80 %
31.07.2018 16:56 33,2 C 27,8 C 41,7 C 36 % 1013,3 hPa 0,0 l/m 12,5 km/h (3 Bft) NO 47 2 min 0,000 mm 2,2 UV-I 511 W/m 16,1 C 33,2 C 16,1 km/h (3 Bft) 88,68 %
31.07.2018 16:58 33,1 C 27,8 C 40,6 C 34 % 1013,3 hPa 0,0 l/m 7,8 km/h (2 Bft) O-NO 76 2 min 0,000 mm 2,1 UV-I 506 W/m 15,1 C 33,1 C 16,1 km/h (3 Bft) 92,68 %
31.07.2018 17:00 32,9 C 27,8 C 41,1 C 34 % 1013,3 hPa 0,0 l/m 2,7 km/h (1 Bft) O-NO 78 2 min 0,457 mm 2,1 UV-I 501 W/m 14,9 C 32,9 C 4,8 km/h (1 Bft) 94,00 %
31.07.2018 17:02 32,9 C 27,8 C 41,7 C 34 % 1013,3 hPa 0,0 l/m 7,9 km/h (2 Bft) O 87 2 min 0,000 mm 2,0 UV-I 475 W/m 14,9 C 32,9 C 11,3 km/h (2 Bft) 92,00 %
31.07.2018 17:04 32,8 C 27,8 C 42,2 C 34 % 1013,2 hPa 0,0 l/m 4,5 km/h (1 Bft) O 99 2 min 0,000 mm 2,0 UV-I 484 W/m 14,8 C 32,8 C 9,7 km/h (2 Bft) 94,87 %
31.07.2018 17:06 32,9 C 27,8 C 42,2 C 34 % 1013,2 hPa 0,0 l/m 2,7 km/h (1 Bft) O 98 2 min 0,000 mm 1,9 UV-I 478 W/m 14,9 C 32,9 C 6,4 km/h (2 Bft) 94,23 %
31.07.2018 17:08 32,9 C 27,8 C 42,8 C 35 % 1013,2 hPa 0,0 l/m 2,6 km/h (1 Bft) SO 126 2 min 0,000 mm 1,9 UV-I 469 W/m 15,4 C 32,9 C 4,8 km/h (1 Bft) 97,87 %
31.07.2018 17:10 32,9 C 27,8 C 42,8 C 36 % 1013,3 hPa 0,0 l/m 4,4 km/h (1 Bft) O 80 2 min 0,000 mm 1,9 UV-I 462 W/m 15,8 C 32,9 C 6,4 km/h (2 Bft) 92,86 %
31.07.2018 17:12 33,0 C 27,8 C 42,2 C 37 % 1013,2 hPa 0,0 l/m 4,6 km/h (1 Bft) NO 44 2 min 0,000 mm 1,8 UV-I 458 W/m 16,3 C 33,0 C 6,4 km/h (2 Bft) 98,21 %
31.07.2018 17:14 33,1 C 27,8 C 42,8 C 35 % 1013,2 hPa 0,0 l/m 5,6 km/h (1 Bft) O 92 2 min 0,000 mm 1,8 UV-I 448 W/m 15,6 C 33,1 C 12,9 km/h (3 Bft) 95,12 %
31.07.2018 17:16 33,1 C 27,8 C 42,8 C 34 % 1013,3 hPa 0,0 l/m 8,4 km/h (2 Bft) O-NO 67 2 min 0,000 mm 1,7 UV-I 447 W/m 15,1 C 33,1 C 14,5 km/h (3 Bft) 98,00 %
31.07.2018 17:18 32,9 C 27,8 C 41,7 C 36 % 1013,2 hPa 0,0 l/m 4,7 km/h (1 Bft) O-SO 115 2 min 0,000 mm 1,7 UV-I 441 W/m 15,8 C 32,9 C 6,4 km/h (2 Bft) 96,00 %
31.07.2018 17:20 32,9 C 27,8 C 41,7 C 34 % 1013,2 hPa 0,0 l/m 5,6 km/h (1 Bft) NO 54 2 min 0,000 mm 1,5 UV-I 433 W/m 14,9 C 32,9 C 9,7 km/h (2 Bft) 97,37 %
31.07.2018 17:22 32,9 C 27,8 C 41,1 C 35 % 1013,2 hPa 0,0 l/m 7,4 km/h (2 Bft) NO 53 2 min 0,000 mm 1,6 UV-I 425 W/m 15,4 C 32,9 C 9,7 km/h (2 Bft) 100,00 %
31.07.2018 17:24 32,9 C 27,8 C 40,6 C 36 % 1013,1 hPa 0,0 l/m 8,5 km/h (2 Bft) N-NO 14 2 min 0,000 mm 1,6 UV-I 425 W/m 15,8 C 32,9 C 16,1 km/h (3 Bft) 96,61 %
31.07.2018 17:26 33,1 C 27,8 C 40,0 C 34 % 1013,2 hPa 0,0 l/m 11,8 km/h (2 Bft) N 11 2 min 0,000 mm 1,6 UV-I 423 W/m 15,1 C 33,1 C 16,1 km/h (3 Bft) 100,00 %
31.07.2018 17:29 33,0 C 27,8 C 40,0 C 33 % 1013,2 hPa 0,0 l/m 5,4 km/h (1 Bft) NW 325 3 min 0,000 mm 1,5 UV-I 420 W/m 14,5 C 33,0 C 8,0 km/h (2 Bft) 98,68 %
31.07.2018 17:30 32,9 C 27,8 C 40,0 C 33 % 1013,2 hPa 0,0 l/m 2,6 km/h (1 Bft) NW 325 1 min 0,000 mm 1,5 UV-I 417 W/m 14,5 C 32,9 C 3,2 km/h (1 Bft) 100,00 %
31.07.2018 17:32 32,7 C 27,8 C 40,6 C 35 % 1013,1 hPa 0,0 l/m 4,2 km/h (1 Bft) W-NW 295 2 min 0,000 mm 1,4 UV-I 408 W/m 15,2 C 32,7 C 6,4 km/h (2 Bft) 100,00 %
31.07.2018 17:34 32,7 C 27,8 C 40,6 C 34 % 1013,2 hPa 0,0 l/m 5,1 km/h (1 Bft) W 267 2 min 0,000 mm 1,4 UV-I 402 W/m 14,8 C 32,7 C 6,4 km/h (2 Bft) 100,00 %
31.07.2018 17:36 32,6 C 27,8 C 41,7 C 34 % 1013,2 hPa 0,0 l/m 3,4 km/h (1 Bft) W 260 2 min 0,000 mm 1,4 UV-I 405 W/m 14,7 C 32,6 C 4,8 km/h (1 Bft) 98,11 %
31.07.2018 17:38 32,7 C 27,8 C 41,7 C 35 % 1013,2 hPa 0,0 l/m 3,2 km/h (1 Bft) W-SW 251 2 min 0,000 mm 1,4 UV-I 403 W/m 15,2 C 32,7 C 4,8 km/h (1 Bft) 100,00 %
31.07.2018 17:40 32,7 C 27,8 C 41,7 C 35 % 1013,2 hPa 0,0 l/m 1,9 km/h (1 Bft) O 83 2 min 0,000 mm 1,3 UV-I 399 W/m 15,2 C 32,7 C 3,2 km/h (1 Bft) 94,34 %
31.07.2018 17:42 32,8 C 27,8 C 41,1 C 34 % 1013,1 hPa 0,0 l/m 2,1 km/h (1 Bft) NW 321 2 min 0,000 mm 1,3 UV-I 394 W/m 14,8 C 32,8 C 4,8 km/h (1 Bft) 100,00 %
31.07.2018 17:44 32,9 C 27,8 C 41,1 C 33 % 1013,1 hPa 0,0 l/m 2,3 km/h (1 Bft) NO 38 2 min 0,000 mm 1,3 UV-I 393 W/m 14,5 C 32,9 C 4,8 km/h (1 Bft) 100,00 %
31.07.2018 17:46 33,0 C 27,8 C 40,6 C 34 % 1013,1 hPa 0,0 l/m 2,4 km/h (1 Bft) O 82 2 min 0,000 mm 1,2 UV-I 387 W/m 15,0 C 33,0 C 4,8 km/h (1 Bft) 100,00 %
31.07.2018 17:48 32,9 C 27,8 C 41,1 C 35 % 1013,1 hPa 0,0 l/m 3,9 km/h (1 Bft) N 355 2 min 0,000 mm 1,2 UV-I 384 W/m 15,4 C 32,9 C 6,4 km/h (2 Bft) 100,00 %
31.07.2018 17:50 32,9 C 27,8 C 41,7 C 34 % 1013,1 hPa 0,0 l/m 5,3 km/h (1 Bft) N-NO 29 2 min 0,000 mm 1,2 UV-I 366 W/m 14,9 C 32,9 C 6,4 km/h (2 Bft) 98,11 %
31.07.2018 17:52 32,9 C 27,8 C 41,7 C 34 % 1013,1 hPa 0,0 l/m 5,0 km/h (1 Bft) NO 44 2 min 0,000 mm 1,2 UV-I 367 W/m 14,9 C 32,9 C 6,4 km/h (2 Bft) 100,00 %
31.07.2018 17:54 33,1 C 27,8 C 41,1 C 34 % 1013,1 hPa 0,0 l/m 6,2 km/h (2 Bft) NO 42 2 min 0,000 mm 1,1 UV-I 361 W/m 15,1 C 33,1 C 8,0 km/h (2 Bft) 100,00 %
31.07.2018 17:56 33,1 C 27,8 C 40,6 C 33 % 1013,1 hPa 0,0 l/m 5,0 km/h (1 Bft) N-NW 339 2 min 0,000 mm 1,1 UV-I 354 W/m 14,6 C 33,1 C 6,4 km/h (2 Bft) 98,00 %
31.07.2018 17:58 33,2 C 27,8 C 40,6 C 33 % 1013,1 hPa 0,0 l/m 4,8 km/h (1 Bft) N 11 2 min 0,000 mm 1,1 UV-I 349 W/m 14,7 C 33,2 C 6,4 km/h (2 Bft) 100,00 %
31.07.2018 18:00 33,2 C 27,8 C 40,0 C 33 % 1013,1 hPa 0,0 l/m 5,9 km/h (2 Bft) N-NO 26 2 min 0,356 mm 1,0 UV-I 336 W/m 14,7 C 33,2 C 11,3 km/h (2 Bft) 100,00 %
31.07.2018 18:02 33,1 C 27,8 C 39,4 C 33 % 1013,1 hPa 0,0 l/m 6,1 km/h (2 Bft) N-NW 344 2 min 0,000 mm 0,8 UV-I 332 W/m 14,6 C 33,1 C 8,0 km/h (2 Bft) 100,00 %
31.07.2018 18:04 32,9 C 27,8 C 39,4 C 32 % 1013,1 hPa 0,0 l/m 3,4 km/h (1 Bft) W-NW 295 2 min 0,000 mm 1,0 UV-I 314 W/m 14,0 C 32,9 C 4,8 km/h (1 Bft) 100,00 %
31.07.2018 18:06 32,7 C 27,8 C 38,9 C 33 % 1013,1 hPa 0,0 l/m 3,6 km/h (1 Bft) W-NW 302 2 min 0,000 mm 1,0 UV-I 307 W/m 14,3 C 32,7 C 6,4 km/h (2 Bft) 100,00 %
31.07.2018 18:08 32,7 C 27,8 C 39,4 C 34 % 1013,1 hPa 0,0 l/m 2,5 km/h (1 Bft) N-NW 340 2 min 0,000 mm 0,9 UV-I 308 W/m 14,8 C 32,7 C 4,8 km/h (1 Bft) 100,00 %
31.07.2018 18:10 32,7 C 27,8 C 39,4 C 34 % 1013,1 hPa 0,0 l/m 5,0 km/h (1 Bft) N-NW 332 2 min 0,000 mm 0,9 UV-I 308 W/m 14,8 C 32,7 C 8,0 km/h (2 Bft) 100,00 %
31.07.2018 18:12 32,7 C 27,8 C 38,9 C 33 % 1013,1 hPa 0,0 l/m 2,3 km/h (1 Bft) N-NW 333 2 min 0,000 mm 0,9 UV-I 302 W/m 14,3 C 32,7 C 4,8 km/h (1 Bft) 100,00 %
31.07.2018 18:14 32,6 C 27,8 C 39,4 C 32 % 1013,1 hPa 0,0 l/m 1,3 km/h (1 Bft) N-NW 332 2 min 0,000 mm 0,9 UV-I 296 W/m 13,7 C 32,6 C 3,2 km/h (1 Bft) 98,00 %
31.07.2018 18:16 32,6 C 27,8 C 40,0 C 33 % 1013,1 hPa 0,0 l/m 1,3 km/h (1 Bft) N-NW 333 2 min 0,000 mm 0,8 UV-I 296 W/m 14,2 C 32,6 C 3,2 km/h (1 Bft) 100,00 %
31.07.2018 18:18 32,8 C 27,8 C 40,6 C 34 % 1013,1 hPa 0,0 l/m 3,7 km/h (1 Bft) O-NO 73 2 min 0,000 mm 0,8 UV-I 290 W/m 14,8 C 32,8 C 6,4 km/h (2 Bft) 100,00 %
31.07.2018 18:20 32,8 C 27,8 C 40,6 C 32 % 1013,1 hPa 0,0 l/m 4,5 km/h (1 Bft) O 80 2 min 0,000 mm 0,8 UV-I 259 W/m 13,9 C 32,8 C 6,4 km/h (2 Bft) 100,00 %
31.07.2018 18:22 32,8 C 27,8 C 40,0 C 33 % 1013,1 hPa 0,0 l/m 2,3 km/h (1 Bft) O 80 2 min 0,000 mm 0,7 UV-I 270 W/m 14,4 C 32,8 C 4,8 km/h (1 Bft) 100,00 %
31.07.2018 18:24 32,8 C 27,8 C 39,4 C 33 % 1013,1 hPa 0,0 l/m 3,3 km/h (1 Bft) NO 40 2 min 0,000 mm 0,7 UV-I 263 W/m 14,4 C 32,8 C 6,4 km/h (2 Bft) 98,00 %
31.07.2018 18:26 32,8 C 27,8 C 38,9 C 33 % 1013,1 hPa 0,0 l/m 5,5 km/h (1 Bft) N-NO 27 2 min 0,000 mm 0,7 UV-I 256 W/m 14,4 C 32,8 C 8,0 km/h (2 Bft) 97,87 %
31.07.2018 18:28 32,8 C 27,8 C 38,3 C 33 % 1013,1 hPa 0,0 l/m 5,6 km/h (1 Bft) N 9 2 min 0,000 mm 0,7 UV-I 249 W/m 14,4 C 32,8 C 6,4 km/h (2 Bft) 98,00 %
31.07.2018 18:30 32,8 C 27,8 C 38,3 C 32 % 1013,1 hPa 0,0 l/m 4,5 km/h (1 Bft) N-NO 21 2 min 0,000 mm 0,6 UV-I 241 W/m 13,9 C 32,8 C 6,4 km/h (2 Bft) 94,29 %
31.07.2018 18:32 32,8 C 27,8 C 38,9 C 32 % 1013,1 hPa 0,0 l/m 2,6 km/h (1 Bft) N-NO 19 2 min 0,000 mm 0,6 UV-I 239 W/m 13,9 C 32,8 C 4,8 km/h (1 Bft) 96,23 %
31.07.2018 18:34 32,9 C 27,8 C 38,9 C 33 % 1013,1 hPa 0,0 l/m 3,8 km/h (1 Bft) N-NO 30 2 min 0,000 mm 0,6 UV-I 234 W/m 14,5 C 32,9 C 6,4 km/h (2 Bft) 96,00 %
31.07.2018 18:36 32,8 C 27,8 C 37,8 C 33 % 1013,1 hPa 0,0 l/m 3,8 km/h (1 Bft) N-NO 33 2 min 0,000 mm 0,6 UV-I 227 W/m 14,4 C 32,8 C 6,4 km/h (2 Bft) 97,73 %
31.07.2018 18:38 32,8 C 27,8 C 37,8 C 33 % 1013,1 hPa 0,0 l/m 4,9 km/h (1 Bft) N 5 2 min 0,000 mm 0,6 UV-I 225 W/m 14,4 C 32,8 C 8,0 km/h (2 Bft) 92,00 %
31.07.2018 18:40 32,7 C 27,8 C 37,8 C 32 % 1013,1 hPa 0,0 l/m 5,1 km/h (1 Bft) N-NO 13 2 min 0,000 mm 0,5 UV-I 222 W/m 13,8 C 32,7 C 6,4 km/h (2 Bft) 93,62 %
31.07.2018 18:42 32,7 C 27,8 C 37,8 C 32 % 1013,1 hPa 0,0 l/m 4,6 km/h (1 Bft) N-NO 14 2 min 0,000 mm 0,5 UV-I 218 W/m 13,8 C 32,7 C 6,4 km/h (2 Bft) 97,56 %
31.07.2018 18:44 32,7 C 27,8 C 37,8 C 32 % 1013,1 hPa 0,0 l/m 2,7 km/h (1 Bft) N-NO 14 2 min 0,000 mm 0,5 UV-I 212 W/m 13,8 C 32,7 C 4,8 km/h (1 Bft) 93,62 %
31.07.2018 18:46 32,7 C 27,8 C 37,8 C 33 % 1013,1 hPa 0,0 l/m 0,3 km/h (0 Bft) N-NO 14 2 min 0,000 mm 0,5 UV-I 206 W/m 14,3 C 32,7 C 1,6 km/h (1 Bft) 95,74 %
31.07.2018 18:48 32,7 C 27,8 C 38,3 C 32 % 1013,1 hPa 0,0 l/m 1,3 km/h (1 Bft) N-NO 30 2 min 0,000 mm 0,5 UV-I 200 W/m 13,8 C 32,7 C 3,2 km/h (1 Bft) 95,12 %
31.07.2018 18:50 32,6 C 27,8 C 38,3 C 32 % 1013,1 hPa 0,0 l/m 4,5 km/h (1 Bft) NW 324 2 min 0,000 mm 0,5 UV-I 196 W/m 13,7 C 32,6 C 6,4 km/h (2 Bft) 96,00 %
31.07.2018 18:52 32,5 C 27,8 C 38,3 C 32 % 1013,0 hPa 0,0 l/m 3,3 km/h (1 Bft) NW 323 2 min 0,000 mm 0,0 UV-I 193 W/m 13,6 C 32,5 C 4,8 km/h (1 Bft) 95,74 %
31.07.2018 18:54 32,5 C 27,8 C 38,3 C 33 % 1013,1 hPa 0,0 l/m 1,7 km/h (1 Bft) NW 324 2 min 0,000 mm 0,0 UV-I 190 W/m 14,1 C 32,5 C 3,2 km/h (1 Bft) 98,00 %
31.07.2018 18:56 32,6 C 27,8 C 38,3 C 35 % 1013,1 hPa 0,0 l/m 4,1 km/h (1 Bft) O-NO 64 2 min 0,000 mm 0,0 UV-I 185 W/m 15,1 C 32,6 C 6,4 km/h (2 Bft) 95,74 %
31.07.2018 18:58 32,4 C 27,8 C 38,3 C 35 % 1013,1 hPa 0,0 l/m 4,5 km/h (1 Bft) O 82 2 min 0,000 mm 0,0 UV-I 178 W/m 14,9 C 32,4 C 8,0 km/h (2 Bft) 98,00 %
31.07.2018 19:00 32,3 C 27,8 C 37,8 C 35 % 1013,1 hPa 0,0 l/m 5,5 km/h (1 Bft) O 96 2 min 0,000 mm 0,0 UV-I 171 W/m 14,9 C 32,3 C 8,0 km/h (2 Bft) 95,24 %
31.07.2018 19:02 32,3 C 27,8 C 37,8 C 37 % 1013,1 hPa 0,0 l/m 5,8 km/h (2 Bft) O-SO 107 2 min 0,228 mm 0,0 UV-I 166 W/m 15,7 C 32,3 C 9,7 km/h (2 Bft) 97,14 %
31.07.2018 19:04 32,2 C 27,8 C 37,2 C 34 % 1013,1 hPa 0,0 l/m 5,8 km/h (2 Bft) O 90 2 min 0,000 mm 0,0 UV-I 163 W/m 14,3 C 32,2 C 9,7 km/h (2 Bft) 98,53 %
31.07.2018 19:06 32,2 C 27,8 C 37,2 C 37 % 1013,1 hPa 0,0 l/m 3,9 km/h (1 Bft) O-SO 116 2 min 0,000 mm 0,0 UV-I 158 W/m 15,6 C 32,2 C 6,4 km/h (2 Bft) 97,56 %
31.07.2018 19:08 32,1 C 27,8 C 37,2 C 36 % 1013,0 hPa 0,0 l/m 3,4 km/h (1 Bft) O 99 2 min 0,000 mm 0,0 UV-I 155 W/m 15,1 C 32,1 C 4,8 km/h (1 Bft) 100,00 %
31.07.2018 19:10 32,0 C 27,8 C 37,2 C 36 % 1013,1 hPa 0,0 l/m 4,6 km/h (1 Bft) O-SO 105 2 min 0,000 mm 0,0 UV-I 151 W/m 15,0 C 32,0 C 6,4 km/h (2 Bft) 100,00 %
31.07.2018 19:12 32,0 C 27,8 C 37,2 C 35 % 1013,1 hPa 0,0 l/m 4,1 km/h (1 Bft) O 92 2 min 0,000 mm 0,0 UV-I 146 W/m 14,6 C 32,0 C 6,4 km/h (2 Bft) 97,56 %
31.07.2018 19:14 31,9 C 27,8 C 37,2 C 37 % 1013,1 hPa 0,0 l/m 4,2 km/h (1 Bft) O-SO 103 2 min 0,000 mm 0,0 UV-I 141 W/m 15,4 C 31,9 C 6,4 km/h (2 Bft) 100,00 %
31.07.2018 19:16 31,9 C 27,8 C 37,2 C 36 % 1013,1 hPa 0,0 l/m 4,4 km/h (1 Bft) O-SO 103 2 min 0,000 mm 0,0 UV-I 136 W/m 14,9 C 31,9 C 6,4 km/h (2 Bft) 96,43 %
31.07.2018 19:18 31,9 C 27,8 C 36,7 C 36 % 1013,1 hPa 0,0 l/m 3,8 km/h (1 Bft) O-SO 103 2 min 0,000 mm 0,0 UV-I 131 W/m 14,9 C 31,9 C 4,8 km/h (1 Bft) 100,00 %
31.07.2018 19:20 31,9 C 27,8 C 36,7 C 38 % 1013,1 hPa 0,0 l/m 1,9 km/h (1 Bft) O-SO 103 2 min 0,000 mm 0,0 UV-I 127 W/m 15,8 C 31,9 C 3,2 km/h (1 Bft) 100,00 %
31.07.2018 19:22 31,8 C 27,8 C 36,7 C 37 % 1013,0 hPa 0,0 l/m 2,3 km/h (1 Bft) O-SO 103 2 min 0,000 mm 0,0 UV-I 123 W/m 15,3 C 31,8 C 3,2 km/h (1 Bft) 97,37 %
31.07.2018 19:24 31,7 C 27,8 C 36,7 C 38 % 1013,0 hPa 0,0 l/m 3,5 km/h (1 Bft) O-SO 105 2 min 0,000 mm 0,0 UV-I 119 W/m 15,6 C 31,7 C 4,8 km/h (1 Bft) 96,23 %
31.07.2018 19:26 31,6 C 27,8 C 36,1 C 38 % 1013,0 hPa 0,0 l/m 4,6 km/h (1 Bft) O-SO 123 2 min 0,000 mm 0,0 UV-I 113 W/m 15,5 C 31,6 C 6,4 km/h (2 Bft) 98,11 %
31.07.2018 19:28 31,6 C 27,8 C 36,1 C 37 % 1013,0 hPa 0,0 l/m 3,9 km/h (1 Bft) O-SO 123 2 min 0,000 mm 0,0 UV-I 107 W/m 15,1 C 31,6 C 4,8 km/h (1 Bft) 97,37 %
31.07.2018 19:30 31,6 C 27,8 C 35,6 C 38 % 1013,0 hPa 0,0 l/m 2,3 km/h (1 Bft) O-SO 123 2 min 0,000 mm 0,0 UV-I 104 W/m 15,5 C 31,6 C 3,2 km/h (1 Bft) 94,34 %
31.07.2018 19:32 31,5 C 27,8 C 35,0 C 38 % 1013,0 hPa 0,0 l/m 0,8 km/h (0 Bft) O-SO 123 2 min 0,000 mm 0,0 UV-I 100 W/m 15,4 C 31,5 C 1,6 km/h (1 Bft) 97,62 %
31.07.2018 19:34 31,5 C 27,8 C 35,0 C 39 % 1013,0 hPa 0,0 l/m 1,1 km/h (1 Bft) O-SO 123 2 min 0,000 mm 0,0 UV-I 96 W/m 15,8 C 31,5 C 1,6 km/h (1 Bft) 98,08 %
31.07.2018 19:36 31,5 C 27,8 C 34,4 C 38 % 1013,0 hPa 0,0 l/m 1,2 km/h (1 Bft) O-SO 123 2 min 0,000 mm 0,0 UV-I 92 W/m 15,4 C 31,5 C 1,6 km/h (1 Bft) 97,22 %
31.07.2018 19:38 31,5 C 27,8 C 33,9 C 37 % 1013,0 hPa 0,0 l/m 0,1 km/h (0 Bft) O-SO 123 2 min 0,000 mm 0,0 UV-I 87 W/m 15,0 C 31,5 C 1,6 km/h (1 Bft) 96,23 %
31.07.2018 19:40 31,4 C 27,8 C 32,8 C 39 % 1013,0 hPa 0,0 l/m 0,1 km/h (0 Bft) O-SO 123 0 min 0,000 mm 0,0 UV-I 67 W/m 15,7 C 31,4 C 1,6 km/h (1 Bft) 98,11 %
31.07.2018 19:42 31,3 C 27,8 C 32,2 C 38 % 1013,1 hPa 0,0 l/m 0,2 km/h (0 Bft) O-SO 123 0 min 0,000 mm 0,0 UV-I 67 W/m 15,3 C 31,3 C 1,6 km/h (1 Bft) 97,37 %
31.07.2018 19:44 31,3 C 27,8 C 32,2 C 39 % 1013,1 hPa 0,0 l/m 0,0 km/h (0 Bft) O-SO 123 2 min 0,000 mm 0,0 UV-I 76 W/m 15,7 C 31,3 C 0,0 km/h (0 Bft) 98,00 %
31.07.2018 19:46 31,2 C 27,8 C 31,7 C 39 % 1013,1 hPa 0,0 l/m 0,0 km/h (0 Bft) O-SO 123 2 min 0,000 mm 0,0 UV-I 74 W/m 15,6 C 31,2 C 0,0 km/h (0 Bft) 97,56 %
31.07.2018 19:48 31,3 C 27,8 C 31,7 C 38 % 1013,1 hPa 0,0 l/m 0,0 km/h (0 Bft) O-SO 123 0 min 0,000 mm 0,0 UV-I 59 W/m 15,3 C 31,3 C 0,0 km/h (0 Bft) 96,00 %
31.07.2018 19:50 31,2 C 27,8 C 31,1 C 39 % 1013,2 hPa 0,0 l/m 0,9 km/h (0 Bft) O-SO 123 0 min 0,000 mm 0,0 UV-I 56 W/m 15,6 C 31,2 C 3,2 km/h (1 Bft) 98,11 %
31.07.2018 19:52 30,9 C 27,8 C 30,6 C 42 % 1013,1 hPa 0,0 l/m 2,7 km/h (1 Bft) S 188 0 min 0,000 mm 0,0 UV-I 46 W/m 16,5 C 30,9 C 4,8 km/h (1 Bft) 97,87 %
31.07.2018 19:54 30,8 C 27,8 C 30,6 C 43 % 1013,2 hPa 0,0 l/m 3,3 km/h (1 Bft) S-SW 192 0 min 0,000 mm 0,0 UV-I 47 W/m 16,7 C 30,8 C 4,8 km/h (1 Bft) 95,12 %
31.07.2018 19:56 30,5 C 27,8 C 30,0 C 47 % 1013,2 hPa 0,0 l/m 2,6 km/h (1 Bft) S-SW 192 0 min 0,000 mm 0,0 UV-I 38 W/m 17,9 C 30,5 C 3,2 km/h (1 Bft) 98,00 %
31.07.2018 19:58 29,9 C 27,8 C 29,4 C 47 % 1013,2 hPa 0,0 l/m 1,1 km/h (1 Bft) S-SW 192 0 min 0,000 mm 0,0 UV-I 37 W/m 17,3 C 29,9 C 3,2 km/h (1 Bft) 97,73 %
31.07.2018 20:00 29,4 C 27,8 C 29,4 C 48 % 1013,2 hPa 0,0 l/m 0,5 km/h (0 Bft) S-SW 192 0 min 0,102 mm 0,0 UV-I 43 W/m 17,2 C 29,4 C 1,6 km/h (1 Bft) 94,64 %
31.07.2018 20:02 29,3 C 27,8 C 29,4 C 48 % 1013,1 hPa 0,0 l/m 0,2 km/h (0 Bft) S-SW 192 0 min 0,000 mm 0,0 UV-I 44 W/m 17,1 C 29,3 C 1,6 km/h (1 Bft) 97,14 %
31.07.2018 20:04 29,2 C 27,8 C 28,9 C 48 % 1013,1 hPa 0,0 l/m 0,0 km/h (0 Bft) S-SW 192 0 min 0,000 mm 0,0 UV-I 41 W/m 17,0 C 29,2 C 0,0 km/h (0 Bft) 96,23 %
31.07.2018 20:06 29,2 C 27,8 C 28,3 C 47 % 1013,2 hPa 0,0 l/m 0,0 km/h (0 Bft) S-SW 192 0 min 0,000 mm 0,0 UV-I 38 W/m 16,7 C 29,2 C 0,0 km/h (0 Bft) 97,56 %
31.07.2018 20:08 29,1 C 27,8 C 27,8 C 48 % 1013,2 hPa 0,0 l/m 1,0 km/h (0 Bft) S-SW 192 0 min 0,000 mm 0,0 UV-I 34 W/m 16,9 C 29,1 C 3,2 km/h (1 Bft) 92,00 %
31.07.2018 20:10 28,8 C 27,8 C 27,2 C 48 % 1013,2 hPa 0,0 l/m 2,6 km/h (1 Bft) S-SW 192 0 min 0,000 mm 0,0 UV-I 32 W/m 16,7 C 28,8 C 3,2 km/h (1 Bft) 100,00 %
31.07.2018 20:12 28,6 C 28,3 C 27,2 C 48 % 1013,2 hPa 0,0 l/m 1,8 km/h (1 Bft) S-SW 192 0 min 0,000 mm 0,0 UV-I 30 W/m 16,5 C 28,6 C 3,2 km/h (1 Bft) 93,55 %
31.07.2018 20:14 28,4 C 28,3 C 26,7 C 49 % 1013,3 hPa 0,0 l/m 1,8 km/h (1 Bft) S-SW 192 0 min 0,000 mm 0,0 UV-I 29 W/m 16,6 C 28,4 C 3,2 km/h (1 Bft) 95,74 %
31.07.2018 20:16 28,3 C 28,3 C 26,7 C 48 % 1013,3 hPa 0,0 l/m 2,3 km/h (1 Bft) S-SW 192 0 min 0,000 mm 0,0 UV-I 27 W/m 16,2 C 28,3 C 3,2 km/h (1 Bft) 97,87 %
31.07.2018 20:18 28,3 C 28,3 C 26,1 C 48 % 1013,3 hPa 0,0 l/m 2,9 km/h (1 Bft) S-SW 192 2 min 0,000 mm 0,0 UV-I 26 W/m 16,2 C 28,3 C 4,8 km/h (1 Bft) 97,37 %
31.07.2018 20:20 28,3 C 28,3 C 26,1 C 48 % 1013,3 hPa 0,0 l/m 2,6 km/h (1 Bft) S-SW 192 2 min 0,000 mm 0,0 UV-I 24 W/m 16,2 C 28,3 C 3,2 km/h (1 Bft) 98,00 %
31.07.2018 20:22 28,3 C 28,3 C 26,1 C 49 % 1013,3 hPa 0,0 l/m 2,3 km/h (1 Bft) S-SW 192 2 min 0,000 mm 0,0 UV-I 20 W/m 16,5 C 28,3 C 3,2 km/h (1 Bft) 97,87 %
31.07.2018 20:24 28,2 C 28,3 C 25,6 C 50 % 1013,3 hPa 0,0 l/m 2,1 km/h (1 Bft) S-SW 192 2 min 0,000 mm 0,0 UV-I 18 W/m 16,8 C 28,2 C 3,2 km/h (1 Bft) 94,00 %
31.07.2018 20:26 28,0 C 27,8 C 25,6 C 50 % 1013,4 hPa 0,0 l/m 3,1 km/h (1 Bft) S-SW 192 2 min 0,000 mm 0,0 UV-I 16 W/m 16,6 C 28,0 C 4,8 km/h (1 Bft) 96,00 %
31.07.2018 20:28 27,8 C 27,8 C 25,6 C 51 % 1013,3 hPa 0,0 l/m 2,4 km/h (1 Bft) S-SW 192 2 min 0,000 mm 0,0 UV-I 16 W/m 16,7 C 27,8 C 4,8 km/h (1 Bft) 93,62 %
31.07.2018 20:30 27,6 C 27,8 C 25,0 C 52 % 1013,4 hPa 0,0 l/m 2,2 km/h (1 Bft) S-SW 192 2 min 0,000 mm 0,0 UV-I 12 W/m 16,8 C 27,6 C 3,2 km/h (1 Bft) 94,74 %
31.07.2018 20:32 27,4 C 27,8 C 25,0 C 53 % 1013,3 hPa 0,0 l/m 2,7 km/h (1 Bft) S-SW 192 0 min 0,000 mm 0,0 UV-I 11 W/m 17,0 C 27,4 C 4,8 km/h (1 Bft) 94,34 %
31.07.2018 20:34 27,3 C 27,8 C 24,4 C 54 % 1013,3 hPa 0,0 l/m 2,9 km/h (1 Bft) S-SW 192 0 min 0,000 mm 0,0 UV-I 11 W/m 17,2 C 27,3 C 4,8 km/h (1 Bft) 95,74 %
31.07.2018 20:36 27,3 C 27,8 C 23,9 C 55 % 1013,4 hPa 0,0 l/m 3,4 km/h (1 Bft) S-SW 192 0 min 0,000 mm 0,0 UV-I 9 W/m 17,4 C 27,3 C 4,8 km/h (1 Bft) 93,62 %
31.07.2018 20:38 27,3 C 27,8 C 23,3 C 54 % 1013,3 hPa 0,0 l/m 2,7 km/h (1 Bft) S-SW 192 0 min 0,000 mm 0,0 UV-I 9 W/m 17,2 C 27,3 C 4,8 km/h (1 Bft) 97,87 %
31.07.2018 20:40 27,3 C 27,8 C 22,8 C 56 % 1013,3 hPa 0,0 l/m 3,1 km/h (1 Bft) S-SW 192 0 min 0,000 mm 0,0 UV-I 8 W/m 17,7 C 27,3 C 4,8 km/h (1 Bft) 97,56 %
31.07.2018 20:42 27,2 C 27,8 C 22,8 C 56 % 1013,3 hPa 0,0 l/m 2,7 km/h (1 Bft) S-SW 192 0 min 0,000 mm 0,0 UV-I 7 W/m 17,6 C 27,2 C 4,8 km/h (1 Bft) 96,23 %
31.07.2018 20:44 26,9 C 27,8 C 22,2 C 57 % 1013,3 hPa 0,0 l/m 2,8 km/h (1 Bft) S-SW 192 0 min 0,000 mm 0,0 UV-I 7 W/m 17,6 C 26,9 C 3,2 km/h (1 Bft) 97,56 %
31.07.2018 20:46 26,7 C 27,8 C 22,2 C 57 % 1013,4 hPa 0,0 l/m 3,5 km/h (1 Bft) S-SW 192 0 min 0,000 mm 0,0 UV-I 7 W/m 17,5 C 26,7 C 4,8 km/h (1 Bft) 98,00 %
31.07.2018 20:48 26,4 C 27,8 C 22,2 C 57 % 1013,3 hPa 0,0 l/m 3,0 km/h (1 Bft) S-SW 192 0 min 0,000 mm 0,0 UV-I 7 W/m 17,2 C 26,4 C 4,8 km/h (1 Bft) 98,00 %
31.07.2018 20:50 26,3 C 27,8 C 22,2 C 58 % 1013,4 hPa 0,0 l/m 2,5 km/h (1 Bft) S-SW 192 0 min 0,000 mm 0,0 UV-I 5 W/m 17,4 C 26,3 C 4,8 km/h (1 Bft) 95,74 %
31.07.2018 20:52 26,2 C 27,8 C 21,7 C 58 % 1013,4 hPa 0,0 l/m 4,1 km/h (1 Bft) S-SW 192 0 min 0,000 mm 0,0 UV-I 5 W/m 17,3 C 26,2 C 4,8 km/h (1 Bft) 100,00 %
31.07.2018 20:54 26,2 C 27,8 C 21,7 C 59 % 1013,4 hPa 0,0 l/m 3,7 km/h (1 Bft) S-SW 192 0 min 0,000 mm 0,0 UV-I 5 W/m 17,5 C 26,2 C 4,8 km/h (1 Bft) 97,87 %
31.07.2018 20:56 26,3 C 27,8 C 21,7 C 59 % 1013,4 hPa 0,0 l/m 3,1 km/h (1 Bft) S-SW 194 0 min 0,000 mm 0,0 UV-I 5 W/m 17,6 C 26,3 C 4,8 km/h (1 Bft) 100,00 %
31.07.2018 20:58 26,3 C 27,8 C 21,7 C 56 % 1013,4 hPa 0,0 l/m 4,2 km/h (1 Bft) S-SW 201 0 min 0,000 mm 0,0 UV-I 2 W/m 16,8 C 26,3 C 4,8 km/h (1 Bft) 100,00 %
31.07.2018 21:00 26,4 C 27,8 C 21,7 C 57 % 1013,5 hPa 0,0 l/m 4,0 km/h (1 Bft) S-SW 209 0 min 0,000 mm 0,0 UV-I 0 W/m 17,2 C 26,4 C 6,4 km/h (2 Bft) 100,00 %
31.07.2018 21:02 26,2 C 27,8 C 21,7 C 57 % 1013,4 hPa 0,0 l/m 3,8 km/h (1 Bft) S-SW 210 0 min 0,051 mm 0,0 UV-I 0 W/m 17,0 C 26,2 C 6,4 km/h (2 Bft) 96,00 %
31.07.2018 21:04 26,1 C 27,8 C 21,7 C 56 % 1013,4 hPa 0,0 l/m 2,6 km/h (1 Bft) S-SW 211 0 min 0,000 mm 0,0 UV-I 0 W/m 16,6 C 26,1 C 3,2 km/h (1 Bft) 100,00 %
31.07.2018 21:06 26,2 C 27,8 C 21,1 C 56 % 1013,4 hPa 0,0 l/m 2,6 km/h (1 Bft) S-SW 211 0 min 0,000 mm 0,0 UV-I 0 W/m 16,7 C 26,2 C 3,2 km/h (1 Bft) 97,87 %
31.07.2018 21:08 26,1 C 27,8 C 21,1 C 58 % 1013,5 hPa 0,0 l/m 1,7 km/h (1 Bft) S-SW 211 0 min 0,000 mm 0,0 UV-I 0 W/m 17,2 C 26,1 C 3,2 km/h (1 Bft) 100,00 %
31.07.2018 21:10 25,9 C 27,8 C 21,1 C 58 % 1013,5 hPa 0,0 l/m 2,4 km/h (1 Bft) S-SW 211 0 min 0,000 mm 0,0 UV-I 0 W/m 17,0 C 25,9 C 4,8 km/h (1 Bft) 100,00 %
31.07.2018 21:12 26,1 C 27,8 C 21,1 C 59 % 1013,6 hPa 0,0 l/m 1,6 km/h (1 Bft) S-SW 211 0 min 0,000 mm 0,0 UV-I 0 W/m 17,4 C 26,1 C 3,2 km/h (1 Bft) 100,00 %
31.07.2018 21:14 26,0 C 27,8 C 20,6 C 59 % 1013,6 hPa 0,0 l/m 2,6 km/h (1 Bft) S-SW 211 0 min 0,000 mm 0,0 UV-I 0 W/m 17,4 C 26,0 C 4,8 km/h (1 Bft) 100,00 %
31.07.2018 21:16 25,9 C 27,8 C 21,1 C 59 % 1013,5 hPa 0,0 l/m 4,1 km/h (1 Bft) S-SW 211 0 min 0,000 mm 0,0 UV-I 0 W/m 17,3 C 25,9 C 4,8 km/h (1 Bft) 97,87 %
31.07.2018 21:18 25,9 C 27,8 C 21,1 C 59 % 1013,6 hPa 0,0 l/m 3,2 km/h (1 Bft) S-SW 211 0 min 0,000 mm 0,0 UV-I 0 W/m 17,3 C 25,9 C 4,8 km/h (1 Bft) 100,00 %
31.07.2018 21:20 26,1 C 27,8 C 21,1 C 57 % 1013,6 hPa 0,0 l/m 4,3 km/h (1 Bft) S-SW 211 0 min 0,000 mm 0,0 UV-I 0 W/m 16,9 C 26,1 C 6,4 km/h (2 Bft) 100,00 %
31.07.2018 21:22 26,2 C 27,8 C 21,1 C 58 % 1013,6 hPa 0,0 l/m 4,6 km/h (1 Bft) S-SW 211 0 min 0,000 mm 0,0 UV-I 0 W/m 17,3 C 26,2 C 6,4 km/h (2 Bft) 97,87 %
31.07.2018 21:24 26,0 C 27,8 C 21,7 C 60 % 1013,6 hPa 0,0 l/m 3,8 km/h (1 Bft) S-SW 211 0 min 0,000 mm 0,0 UV-I 0 W/m 17,6 C 26,0 C 4,8 km/h (1 Bft) 100,00 %
31.07.2018 21:26 25,7 C 27,8 C 22,2 C 60 % 1013,6 hPa 0,0 l/m 4,4 km/h (1 Bft) S-SW 211 0 min 0,000 mm 0,0 UV-I 0 W/m 17,3 C 25,7 C 6,4 km/h (2 Bft) 100,00 %
31.07.2018 21:28 25,3 C 27,8 C 21,7 C 60 % 1013,6 hPa 0,0 l/m 4,5 km/h (1 Bft) S-SW 211 0 min 0,000 mm 0,0 UV-I 0 W/m 17,0 C 25,3 C 6,4 km/h (2 Bft) 100,00 %
31.07.2018 21:30 25,3 C 27,8 C 21,7 C 60 % 1013,6 hPa 0,0 l/m 4,2 km/h (1 Bft) S-SW 211 0 min 0,000 mm 0,0 UV-I 0 W/m 17,0 C 25,3 C 6,4 km/h (2 Bft) 100,00 %
31.07.2018 21:32 25,3 C 27,8 C 21,7 C 60 % 1013,6 hPa 0,0 l/m 4,5 km/h (1 Bft) S-SW 211 0 min 0,000 mm 0,0 UV-I 0 W/m 17,0 C 25,3 C 6,4 km/h (2 Bft) 97,87 %
31.07.2018 21:34 25,2 C 27,8 C 21,7 C 59 % 1013,6 hPa 0,0 l/m 4,7 km/h (1 Bft) S-SW 212 0 min 0,000 mm 0,0 UV-I 0 W/m 16,6 C 25,2 C 6,4 km/h (2 Bft) 97,87 %
31.07.2018 21:36 25,1 C 27,8 C 21,7 C 60 % 1013,6 hPa 0,0 l/m 5,2 km/h (1 Bft) SW 215 0 min 0,000 mm 0,0 UV-I 0 W/m 16,8 C 25,1 C 6,4 km/h (2 Bft) 97,87 %
31.07.2018 21:39 25,3 C 27,8 C 21,1 C 60 % 1013,7 hPa 0,0 l/m 5,4 km/h (1 Bft) SW 216 0 min 0,000 mm 0,0 UV-I 0 W/m 17,0 C 25,3 C 6,4 km/h (2 Bft) 97,14 %
31.07.2018 21:40 25,4 C 27,8 C 21,1 C 59 % 1013,7 hPa 0,0 l/m 5,9 km/h (2 Bft) SW 224 0 min 0,000 mm 0,0 UV-I 0 W/m 16,8 C 25,4 C 6,4 km/h (2 Bft) 100,00 %
31.07.2018 21:42 25,6 C 27,8 C 21,1 C 59 % 1013,7 hPa 0,0 l/m 4,8 km/h (1 Bft) SW 224 0 min 0,000 mm 0,0 UV-I 0 W/m 17,0 C 25,6 C 6,4 km/h (2 Bft) 97,87 %
31.07.2018 21:44 25,6 C 27,8 C 21,7 C 59 % 1013,7 hPa 0,0 l/m 4,1 km/h (1 Bft) SW 223 0 min 0,000 mm 0,0 UV-I 0 W/m 17,0 C 25,6 C 4,8 km/h (1 Bft) 97,87 %
31.07.2018 21:46 25,4 C 27,8 C 21,7 C 59 % 1013,8 hPa 0,0 l/m 4,1 km/h (1 Bft) SW 223 0 min 0,000 mm 0,0 UV-I 0 W/m 16,8 C 25,4 C 6,4 km/h (2 Bft) 96,00 %
31.07.2018 21:48 25,3 C 27,8 C 21,1 C 59 % 1013,7 hPa 0,0 l/m 3,7 km/h (1 Bft) SW 223 0 min 0,000 mm 0,0 UV-I 0 W/m 16,7 C 25,3 C 4,8 km/h (1 Bft) 97,87 %
31.07.2018 21:50 25,2 C 27,8 C 21,1 C 60 % 1013,8 hPa 0,0 l/m 2,8 km/h (1 Bft) SW 223 0 min 0,000 mm 0,0 UV-I 0 W/m 16,9 C 25,2 C 4,8 km/h (1 Bft) 97,87 %
31.07.2018 21:52 24,9 C 27,8 C 21,1 C 60 % 1013,7 hPa 0,0 l/m 2,9 km/h (1 Bft) SW 223 0 min 0,000 mm 0,0 UV-I 0 W/m 16,6 C 24,9 C 4,8 km/h (1 Bft) 97,87 %
31.07.2018 21:54 24,7 C 27,8 C 21,1 C 61 % 1013,8 hPa 0,0 l/m 3,3 km/h (1 Bft) SW 223 0 min 0,000 mm 0,0 UV-I 0 W/m 16,7 C 24,7 C 4,8 km/h (1 Bft) 97,87 %
31.07.2018 21:56 24,5 C 27,8 C 21,1 C 62 % 1013,8 hPa 0,0 l/m 3,7 km/h (1 Bft) SW 223 0 min 0,000 mm 0,0 UV-I 0 W/m 16,7 C 24,5 C 4,8 km/h (1 Bft) 95,74 %
31.07.2018 21:58 24,4 C 27,8 C 21,1 C 62 % 1013,8 hPa 0,0 l/m 4,9 km/h (1 Bft) SW 221 0 min 0,000 mm 0,0 UV-I 0 W/m 16,6 C 24,4 C 6,4 km/h (2 Bft) 97,87 %
31.07.2018 22:00 24,6 C 27,8 C 21,7 C 61 % 1013,9 hPa 0,0 l/m 5,9 km/h (2 Bft) SW 218 0 min 0,000 mm 0,0 UV-I 0 W/m 16,6 C 24,6 C 8,0 km/h (2 Bft) 100,00 %
31.07.2018 22:02 24,9 C 27,8 C 21,7 C 60 % 1013,9 hPa 0,0 l/m 5,7 km/h (1 Bft) S-SW 210 0 min 0,025 mm 0,0 UV-I 0 W/m 16,6 C 24,9 C 6,4 km/h (2 Bft) 96,00 %
31.07.2018 22:04 25,1 C 27,8 C 22,2 C 59 % 1013,9 hPa 0,0 l/m 6,8 km/h (2 Bft) S-SW 212 0 min 0,000 mm 0,0 UV-I 0 W/m 16,5 C 25,0 C 8,0 km/h (2 Bft) 95,74 %
31.07.2018 22:06 25,2 C 27,8 C 22,2 C 59 % 1013,9 hPa 0,0 l/m 5,2 km/h (1 Bft) S-SW 211 0 min 0,000 mm 0,0 UV-I 0 W/m 16,6 C 25,2 C 6,4 km/h (2 Bft) 97,87 %
31.07.2018 22:09 25,2 C 27,8 C 22,8 C 58 % 1013,9 hPa 0,0 l/m 4,6 km/h (1 Bft) S-SW 208 0 min 0,000 mm 0,0 UV-I 0 W/m 16,3 C 25,2 C 6,4 km/h (2 Bft) 100,00 %
31.07.2018 22:10 25,2 C 27,8 C 22,8 C 58 % 1013,9 hPa 0,0 l/m 5,6 km/h (1 Bft) S-SW 207 0 min 0,000 mm 0,0 UV-I 0 W/m 16,3 C 25,2 C 6,4 km/h (2 Bft) 100,00 %
31.07.2018 22:12 25,3 C 27,8 C 22,8 C 58 % 1013,9 hPa 0,0 l/m 5,0 km/h (1 Bft) S-SW 210 0 min 0,000 mm 0,0 UV-I 0 W/m 16,4 C 25,3 C 6,4 km/h (2 Bft) 100,00 %
31.07.2018 22:14 25,4 C 27,8 C 22,8 C 58 % 1013,9 hPa 0,0 l/m 5,0 km/h (1 Bft) S-SW 209 0 min 0,000 mm 0,0 UV-I 0 W/m 16,5 C 25,4 C 6,4 km/h (2 Bft) 95,74 %
31.07.2018 22:16 25,4 C 27,8 C 22,8 C 57 % 1013,9 hPa 0,0 l/m 4,5 km/h (1 Bft) S-SW 209 0 min 0,000 mm 0,0 UV-I 0 W/m 16,2 C 25,4 C 6,4 km/h (2 Bft) 92,68 %
31.07.2018 22:18 25,4 C 27,8 C 22,8 C 57 % 1013,9 hPa 0,0 l/m 4,0 km/h (1 Bft) S-SW 209 0 min 0,000 mm 0,0 UV-I 0 W/m 16,2 C 25,4 C 4,8 km/h (1 Bft) 98,00 %
31.07.2018 22:20 25,3 C 27,8 C 22,8 C 58 % 1013,9 hPa 0,0 l/m 5,0 km/h (1 Bft) S-SW 205 0 min 0,000 mm 0,0 UV-I 0 W/m 16,4 C 25,3 C 6,4 km/h (2 Bft) 97,87 %
31.07.2018 22:22 25,2 C 27,8 C 23,3 C 58 % 1013,9 hPa 0,0 l/m 4,9 km/h (1 Bft) S-SW 209 0 min 0,000 mm 0,0 UV-I 0 W/m 16,3 C 25,2 C 6,4 km/h (2 Bft) 94,00 %
31.07.2018 22:24 25,2 C 27,8 C 23,3 C 59 % 1013,9 hPa 0,0 l/m 5,2 km/h (1 Bft) S-SW 203 0 min 0,000 mm 0,0 UV-I 0 W/m 16,6 C 25,2 C 6,4 km/h (2 Bft) 100,00 %
31.07.2018 22:26 25,1 C 27,8 C 23,3 C 59 % 1014,0 hPa 0,0 l/m 5,6 km/h (1 Bft) S-SW 205 0 min 0,000 mm 0,0 UV-I 0 W/m 16,5 C 25,1 C 8,0 km/h (2 Bft) 93,62 %
31.07.2018 22:28 25,0 C 27,8 C 23,3 C 59 % 1014,0 hPa 0,0 l/m 6,8 km/h (2 Bft) S-SW 209 0 min 0,000 mm 0,0 UV-I 0 W/m 16,4 C 24,9 C 8,0 km/h (2 Bft) 97,87 %
31.07.2018 22:30 24,9 C 27,8 C 23,3 C 60 % 1014,0 hPa 0,0 l/m 6,5 km/h (2 Bft) S-SW 211 0 min 0,000 mm 0,0 UV-I 0 W/m 16,6 C 24,9 C 8,0 km/h (2 Bft) 96,00 %
31.07.2018 22:32 24,8 C 27,8 C 23,3 C 60 % 1014,0 hPa 0,0 l/m 5,8 km/h (2 Bft) S-SW 205 0 min 0,000 mm 0,0 UV-I 0 W/m 16,5 C 24,8 C 6,4 km/h (2 Bft) 94,00 %
31.07.2018 22:34 24,7 C 27,8 C 23,3 C 61 % 1014,1 hPa 0,0 l/m 6,0 km/h (2 Bft) SW 214 0 min 0,000 mm 0,0 UV-I 0 W/m 16,7 C 24,7 C 8,0 km/h (2 Bft) 97,87 %
31.07.2018 22:36 24,6 C 27,8 C 23,3 C 62 % 1014,1 hPa 0,0 l/m 5,0 km/h (1 Bft) S-SW 212 0 min 0,000 mm 0,0 UV-I 0 W/m 16,8 C 24,6 C 8,0 km/h (2 Bft) 97,87 %
31.07.2018 22:38 24,5 C 27,8 C 23,3 C 62 % 1014,1 hPa 0,0 l/m 5,0 km/h (1 Bft) S-SW 208 0 min 0,000 mm 0,0 UV-I 0 W/m 16,7 C 24,5 C 6,4 km/h (2 Bft) 97,87 %
31.07.2018 22:40 24,4 C 27,8 C 23,3 C 62 % 1014,1 hPa 0,0 l/m 4,6 km/h (1 Bft) S-SW 206 0 min 0,000 mm 0,0 UV-I 0 W/m 16,6 C 24,4 C 6,4 km/h (2 Bft) 93,62 %
31.07.2018 22:42 24,4 C 27,8 C 22,8 C 62 % 1014,1 hPa 0,0 l/m 4,4 km/h (1 Bft) SW 228 0 min 0,000 mm 0,0 UV-I 0 W/m 16,6 C 24,4 C 6,4 km/h (2 Bft) 95,83 %
31.07.2018 22:44 24,4 C 27,8 C 22,8 C 62 % 1014,2 hPa 0,0 l/m 4,7 km/h (1 Bft) S-SW 213 0 min 0,000 mm 0,0 UV-I 0 W/m 16,6 C 24,4 C 6,4 km/h (2 Bft) 98,00 %
31.07.2018 22:46 24,5 C 27,8 C 22,8 C 61 % 1014,2 hPa 0,0 l/m 4,1 km/h (1 Bft) S-SW 212 0 min 0,000 mm 0,0 UV-I 0 W/m 16,5 C 24,5 C 6,4 km/h (2 Bft) 97,14 %
31.07.2018 22:48 24,6 C 27,8 C 22,8 C 61 % 1014,2 hPa 0,0 l/m 5,0 km/h (1 Bft) SW 217 0 min 0,000 mm 0,0 UV-I 0 W/m 16,6 C 24,6 C 6,4 km/h (2 Bft) 98,00 %
31.07.2018 22:50 24,6 C 27,8 C 22,8 C 61 % 1014,2 hPa 0,0 l/m 4,9 km/h (1 Bft) SW 215 0 min 0,000 mm 0,0 UV-I 0 W/m 16,6 C 24,6 C 6,4 km/h (2 Bft) 97,87 %
31.07.2018 22:52 24,5 C 27,8 C 22,8 C 62 % 1014,2 hPa 0,0 l/m 4,1 km/h (1 Bft) S-SW 203 0 min 0,000 mm 0,0 UV-I 0 W/m 16,7 C 24,5 C 6,4 km/h (2 Bft) 100,00 %
31.07.2018 22:54 24,4 C 27,8 C 22,2 C 62 % 1014,2 hPa 0,0 l/m 4,4 km/h (1 Bft) S-SW 203 0 min 0,000 mm 0,0 UV-I 0 W/m 16,6 C 24,4 C 6,4 km/h (2 Bft) 100,00 %
31.07.2018 22:56 24,3 C 27,8 C 22,2 C 63 % 1014,2 hPa 0,0 l/m 4,8 km/h (1 Bft) S-SW 204 0 min 0,000 mm 0,0 UV-I 0 W/m 16,8 C 24,3 C 6,4 km/h (2 Bft) 100,00 %
31.07.2018 22:58 24,2 C 27,8 C 22,2 C 63 % 1014,2 hPa 0,0 l/m 4,9 km/h (1 Bft) SW 219 0 min 0,000 mm 0,0 UV-I 0 W/m 16,7 C 24,2 C 6,4 km/h (2 Bft) 100,00 %
31.07.2018 23:00 24,1 C 27,8 C 22,2 C 63 % 1014,2 hPa 0,0 l/m 5,6 km/h (1 Bft) SW 218 0 min 0,000 mm 0,0 UV-I 0 W/m 16,6 C 24,1 C 6,4 km/h (2 Bft) 100,00 %
31.07.2018 23:02 23,9 C 27,8 C 21,7 C 64 % 1014,2 hPa 0,0 l/m 5,7 km/h (1 Bft) SW 218 0 min 0,051 mm 0,0 UV-I 0 W/m 16,7 C 23,9 C 6,4 km/h (2 Bft) 98,00 %
31.07.2018 23:04 23,9 C 27,8 C 21,7 C 64 % 1014,2 hPa 0,0 l/m 5,3 km/h (1 Bft) SW 215 0 min 0,000 mm 0,0 UV-I 0 W/m 16,7 C 23,9 C 6,4 km/h (2 Bft) 100,00 %
31.07.2018 23:06 23,8 C 27,8 C 21,7 C 65 % 1014,2 hPa 0,0 l/m 4,7 km/h (1 Bft) S-SW 211 0 min 0,000 mm 0,0 UV-I 0 W/m 16,8 C 23,8 C 8,0 km/h (2 Bft) 100,00 %
31.07.2018 23:08 23,8 C 27,8 C 22,2 C 64 % 1014,2 hPa 0,0 l/m 5,2 km/h (1 Bft) S-SW 211 0 min 0,000 mm 0,0 UV-I 0 W/m 16,6 C 23,8 C 8,0 km/h (2 Bft) 100,00 %
31.07.2018 23:10 23,8 C 27,8 C 22,2 C 65 % 1014,2 hPa 0,0 l/m 5,1 km/h (1 Bft) SW 219 0 min 0,000 mm 0,0 UV-I 0 W/m 16,8 C 23,8 C 8,0 km/h (2 Bft) 97,87 %
31.07.2018 23:12 23,8 C 27,8 C 22,2 C 65 % 1014,3 hPa 0,0 l/m 4,7 km/h (1 Bft) SW 215 0 min 0,000 mm 0,0 UV-I 0 W/m 16,8 C 23,8 C 8,0 km/h (2 Bft) 97,87 %
31.07.2018 23:14 23,8 C 27,8 C 22,2 C 65 % 1014,3 hPa 0,0 l/m 5,6 km/h (1 Bft) SW 219 0 min 0,000 mm 0,0 UV-I 0 W/m 16,8 C 23,8 C 8,0 km/h (2 Bft) 95,74 %
31.07.2018 23:16 23,7 C 27,8 C 22,2 C 65 % 1014,2 hPa 0,0 l/m 6,1 km/h (2 Bft) S-SW 209 0 min 0,000 mm 0,0 UV-I 0 W/m 16,7 C 23,7 C 8,0 km/h (2 Bft) 94,87 %
31.07.2018 23:18 23,7 C 27,8 C 22,2 C 65 % 1014,3 hPa 0,0 l/m 5,5 km/h (1 Bft) S-SW 209 0 min 0,000 mm 0,0 UV-I 0 W/m 16,7 C 23,7 C 8,0 km/h (2 Bft) 93,62 %
31.07.2018 23:20 23,6 C 27,8 C 22,2 C 64 % 1014,3 hPa 0,0 l/m 5,3 km/h (1 Bft) S-SW 202 0 min 0,000 mm 0,0 UV-I 0 W/m 16,4 C 23,6 C 6,4 km/h (2 Bft) 90,57 %
31.07.2018 23:22 23,7 C 27,8 C 22,2 C 63 % 1014,3 hPa 0,0 l/m 5,7 km/h (1 Bft) SW 224 0 min 0,000 mm 0,0 UV-I 0 W/m 16,2 C 23,7 C 8,0 km/h (2 Bft) 95,74 %
31.07.2018 23:24 23,7 C 27,8 C 22,2 C 63 % 1014,3 hPa 0,0 l/m 6,0 km/h (2 Bft) SW 220 0 min 0,000 mm 0,0 UV-I 0 W/m 16,2 C 23,7 C 8,0 km/h (2 Bft) 95,12 %
31.07.2018 23:26 23,7 C 27,8 C 22,2 C 63 % 1014,3 hPa 0,0 l/m 5,6 km/h (1 Bft) S-SW 213 0 min 0,000 mm 0,0 UV-I 0 W/m 16,2 C 23,7 C 8,0 km/h (2 Bft) 95,74 %
31.07.2018 23:28 23,7 C 27,8 C 22,2 C 63 % 1014,2 hPa 0,0 l/m 6,0 km/h (2 Bft) SW 218 0 min 0,000 mm 0,0 UV-I 0 W/m 16,2 C 23,7 C 9,7 km/h (2 Bft) 95,74 %
31.07.2018 23:30 23,7 C 27,8 C 22,2 C 63 % 1014,2 hPa 0,0 l/m 5,9 km/h (2 Bft) S-SW 212 0 min 0,000 mm 0,0 UV-I 0 W/m 16,2 C 23,7 C 8,0 km/h (2 Bft) 94,34 %
31.07.2018 23:32 23,7 C 27,8 C 22,2 C 63 % 1014,3 hPa 0,0 l/m 6,0 km/h (2 Bft) S-SW 210 0 min 0,000 mm 0,0 UV-I 0 W/m 16,2 C 23,7 C 8,0 km/h (2 Bft) 95,74 %
31.07.2018 23:34 23,6 C 27,8 C 22,2 C 63 % 1014,3 hPa 0,0 l/m 5,9 km/h (2 Bft) SW 215 0 min 0,000 mm 0,0 UV-I 0 W/m 16,1 C 23,6 C 9,7 km/h (2 Bft) 96,00 %
31.07.2018 23:36 23,6 C 27,8 C 22,2 C 64 % 1014,3 hPa 0,0 l/m 6,3 km/h (2 Bft) S-SW 206 0 min 0,000 mm 0,0 UV-I 0 W/m 16,4 C 23,6 C 8,0 km/h (2 Bft) 94,74 %
31.07.2018 23:38 23,5 C 27,8 C 22,2 C 64 % 1014,3 hPa 0,0 l/m 5,5 km/h (1 Bft) S-SW 212 0 min 0,000 mm 0,0 UV-I 0 W/m 16,3 C 23,5 C 8,0 km/h (2 Bft) 95,74 %
31.07.2018 23:40 23,5 C 27,8 C 22,2 C 64 % 1014,3 hPa 0,0 l/m 5,8 km/h (2 Bft) S-SW 205 0 min 0,000 mm 0,0 UV-I 0 W/m 16,3 C 23,5 C 8,0 km/h (2 Bft) 95,74 %
31.07.2018 23:42 23,4 C 27,8 C 22,2 C 64 % 1014,3 hPa 0,0 l/m 5,7 km/h (1 Bft) S-SW 205 0 min 0,000 mm 0,0 UV-I 0 W/m 16,2 C 23,4 C 8,0 km/h (2 Bft) 91,49 %
31.07.2018 23:44 23,4 C 27,8 C 21,7 C 64 % 1014,3 hPa 0,0 l/m 5,7 km/h (1 Bft) S-SW 209 0 min 0,000 mm 0,0 UV-I 0 W/m 16,2 C 23,4 C 8,0 km/h (2 Bft) 98,00 %
31.07.2018 23:46 23,3 C 27,8 C 21,7 C 64 % 1014,3 hPa 0,0 l/m 4,7 km/h (1 Bft) SW 215 0 min 0,000 mm 0,0 UV-I 0 W/m 16,1 C 23,3 C 6,4 km/h (2 Bft) 97,87 %
31.07.2018 23:48 23,3 C 27,8 C 21,7 C 64 % 1014,3 hPa 0,0 l/m 6,3 km/h (2 Bft) SW 221 0 min 0,000 mm 0,0 UV-I 0 W/m 16,1 C 23,3 C 8,0 km/h (2 Bft) 97,87 %
31.07.2018 23:50 23,3 C 27,8 C 21,7 C 64 % 1014,3 hPa 0,0 l/m 5,7 km/h (1 Bft) S-SW 209 0 min 0,000 mm 0,0 UV-I 0 W/m 16,1 C 23,3 C 8,0 km/h (2 Bft) 97,87 %
31.07.2018 23:52 23,3 C 27,8 C 21,7 C 64 % 1014,3 hPa 0,0 l/m 5,5 km/h (1 Bft) S-SW 202 0 min 0,000 mm 0,0 UV-I 0 W/m 16,1 C 23,3 C 8,0 km/h (2 Bft) 97,87 %
31.07.2018 23:54 23,2 C 27,8 C 21,7 C 65 % 1014,3 hPa 0,0 l/m 6,1 km/h (2 Bft) S-SW 213 0 min 0,000 mm 0,0 UV-I 0 W/m 16,2 C 23,2 C 8,0 km/h (2 Bft) 97,87 %
31.07.2018 23:56 23,2 C 27,8 C 21,7 C 65 % 1014,3 hPa 0,0 l/m 6,6 km/h (2 Bft) S-SW 212 0 min 0,000 mm 0,0 UV-I 0 W/m 16,2 C 23,1 C 8,0 km/h (2 Bft) 95,74 %
31.07.2018 23:58 23,1 C 27,8 C 21,7 C 65 % 1014,3 hPa 0,0 l/m 6,8 km/h (2 Bft) S-SW 207 0 min 0,000 mm 0,0 UV-I 0 W/m 16,2 C 23,0 C 9,7 km/h (2 Bft) 97,92 %
_ Min-Zeit 05:50 04:16 04:24 18:04 18:52 - 00:00 - - - - - - 18:52 05:50 00:00 16:40
Minimum _ 17,0 C 26,1 C 15,6 C 32 % 1013,0 hPa - 0,0 km/h (0 Bft) - - - - - - 13,6 C 17,0 C 0,0 km/h (0 Bft) 83,33 %
_ Max-Zeit 16:54 20:12 15:14 05:24 10:48 00:00 13:06 - - 14:50 14:00 12:52 13:10 10:58 16:54 13:06 00:06
Maximum _ 33,2 C 28,3 C 45,0 C 91 % 1015,1 hPa 0,0 l/m 14,8 km/h
O (3 Bft)
- - 5 min 0,635 mm 6,0 UV-I 833 W/m 19,1 C 33,2 C 20,9 km/h
O-NO (4 Bft)
100,00 %
Durchschnitt _ 25,4 C 27,0 C 29,1 C 61 % 1014,1 hPa #0,0 l/m 3,6 km/h (1 Bft) S-SW - #14:08 h #5,385 mm 3,3 UV-I 453 W/m 16,4 C 25,4 C 5,9 km/h (2 Bft) 97,13 %